     2              OBSERVATION DATA    GPS                 RINEX VERSION / TYPE
ASRINEXO V2.2.0 UX USGS 25-JAN-94 11:07                     PGM / RUN BY / DATE
                                                            COMMENT
Original Marker Name: pico Pico_NCER_1977_USGS              COMMENT
Campaign Name: USGS-LA Basin                                COMMENT
4-Character Station Name: PICO                              COMMENT
6-Character Antenna Code: ASHL12                            COMMENT
Vertical Measurement Point: BBE                             COMMENT
Vertical Offset to Rinex Ref. Point: 0.0595                 COMMENT
Radial Measurement Point: EGP                               COMMENT
Radial Offset to Rinex Ref. Point: 0.1424                   COMMENT
Antenna Height from Field Measurement: 1.5650 m             COMMENT
Additional Antenna Identification Info.:                    COMMENT
Original Ashtech L1/L2                                      COMMENT
Original XYZ: -2524521.9700 -4630040.2400 3577255.6800      COMMENT
New XYZ position is based on association with SCEC monument COMMENT
E1E9I3O4+0031. Position of that monument is believed to be  COMMENT
valid to within 1 m horizontally; vertical accuracy         COMMENT
should be no worse than 3-times this value.                 COMMENT
                                                            COMMENT
Revised Rinex header created by UCSD GPS archive for        COMMENT
GSAC on 31-Aug-1999 (1999:243) 18:48:19 GMT                 COMMENT
For assistance contact dagnew@ucsd.edu or hjohnson@ucsd.edu COMMENT
                                                            COMMENT
PICO PICO_NCER_1977_USGS                                    MARKER NAME
                                                            MARKER NUMBER
GDH US GEOLOGICAL SURVEY                                    OBSERVER / AGENCY
762 ASHTECH L-XII 7A                                        REC # / TYPE / VERS
745 ASHTECH GEODETIC L                                      ANT # / TYPE
 -2524519.0000 -4630052.0000  3577414.0000                  APPROX POSITION XYZ
        1.4990        0.0000        0.0000                  ANTENNA: DELTA H/E/N
     1     2     0                                          WAVELENGTH FACT L1/2
     3    C1    L1    L2                                    # / TYPES OF OBSERV
    30                                                      INTERVAL
  1994     1    21    16    15    0.000000                  TIME OF FIRST OBS
  1994     1    22     1     1   30.000000                  TIME OF LAST OBS
                                                            END OF HEADER
 94  1 21 16 15  0.0000000  0  3  1 21 15
  20812129.752    -6049575.70819     70367.588 3
  21501724.596       -8985.00117     10953.398
  22872083.566    11645308.44116   -121048.852
 94  1 21 16 15 30.0000000  0  3  1 21 15
  20821282.296    -6001483.100 9    107842.323 7
  21510382.542       36496.649 7     46392.537 3
  22854908.276    11555046.223 6   -191380.869 1
 94  1 21 16 16  0.0000000  0  5  1 25 31 21 15
  20830473.663    -5953188.256 9    145474.657 8
  22463783.806     9194875.01417    -53301.699 1
  23328492.371    19506291.46016     48382.987
  21519061.234       82116.892 7     81940.750 4
  22837759.788    11464930.636 6   -261600.816 2
 94  1 21 16 16 30.0000000  0  6  1 23 25 31 21 15
  20839718.093    -5904608.757 9    183328.804 9
  24341136.702     -205674.61214     12329.478
  22447889.589     9111348.679 7   -118387.057 2
  23340374.795    19568684.293 6     97003.129 1
  21527782.286      127954.024 7    117657.985 5
  22820661.695    11375042.221 6   -331643.709 3
 94  1 21 16 17  0.0000000  0  6  1 23 25 31 21 15
  20849023.321    -5855691.366 9    221446.229 9
  24355038.558     -132605.522 4     69265.016
  22432050.025     9028106.467 7   -183251.081 3
  23352310.732    19631431.834 6    145897.252 1
  21536557.871      174050.611 7    153577.361 6
  22803610.519    11285427.797 6   -401473.138 3
 94  1 21 16 17 30.0000000  0  6  1 23 25 31 21 15
  20858407.335    -5806387.110 9    259865.104 9
  24368960.230      -59411.100 4    126299.515 1
  22416271.468     8945190.440 7   -247860.928 4
  23364322.036    19694572.231 5    195097.511 2
  21545381.093      220432.916 7    189719.379 6
  22786608.030    11196120.388 6   -471063.332 3
 94  1 21 16 18  0.0000000  0  6  1 23 25 31 21 15
  20867866.087    -5756681.764 9    298596.527 9
  24382919.196       13913.675 4    183435.564 1
  22400550.442     8862602.346 7   -312215.250 5
  23376415.934    19758110.962 6    244608.133 2
  21554265.113      267101.014 8    226084.120 6
  22769667.237    11107121.587 6   -540413.030 4
 94  1 21 16 18 30.0000000  0  6  1 23 25 31 21 15
  20877401.945    -5706574.151 9    337641.411 9
  24396901.846       87385.990 5    240686.653 1
  22384899.267     8780344.359 7   -376312.341 5
  23388585.649    19822046.445 6    294427.940 2
  21563199.528      314062.224 7    262677.252 6
  22752801.663    11018440.871 6   -609514.896 4
 94  1 21 16 19  0.0000000  0  6  1 23 25 31 21 15
  20887010.114    -5656083.344 9    376984.880 9
  24410911.088      161003.337 5    298050.742 1
  22369308.920     8698419.857 7   -440149.558 5
  23400819.370    19886373.622 6    344552.974 2
  21572189.524      361298.967 7    299485.076 6
  22735985.825    10930073.183 6   -678372.813 4
 94  1 21 16 19 30.0000000  0  6  1 23 25 31 21 15
  20896689.783    -5605222.910 9    416616.371 9
  24424943.294      234766.174 5    355528.220 2
  22353788.904     8616849.945 7   -503710.503 5
  23413139.101    19951074.269 6    394969.000 2
  21581226.408      408798.520 7    336497.708 6
  22719239.478    10842015.684 6   -746989.032 5
 94  1 21 16 20  0.0000000  0  6  1 23 25 31 21 15
  20906434.596    -5554016.216 9    456517.677 9
  24439011.714      308676.253 5    413120.365 2
  22338335.382     8535630.576 7   -566998.294 6
  23425513.544    20016125.759 5    445658.432 2
  21590312.458      456541.464 7    373699.960 6
  22702523.200    10754261.078 6   -815369.235 5
 94  1 21 16 20 30.0000000  0  7  1 23 25 31 21 28 15
  20916242.247    -5502466.829 9    496686.000 9
  24453104.688      382746.132 5    470837.069 2
  22322942.928     8454760.546 7   -630013.876 6
  23437957.420    20081525.512 5    496619.226 3
  21599446.834      504526.950 7    411091.199 6
  24133654.059    11912339.35214     52009.136
  22685894.552    10666812.613 7   -883510.890 5
 94  1 21 16 21  0.0000000  0  7  1 23 25 31 21 28 15
  20926114.502    -5450578.865 9    537118.178 9
  24467231.748      456976.282 5    528678.657 2
  22307618.497     8374234.512 7   -692761.409 6
  23450465.840    20147267.186 5    547846.452 3
  21608619.554      552761.012 7    448676.182 7
  24152333.288    12010458.759 5    128465.077 1
  22669306.436    10579674.299 7   -951410.870 5
 94  1 21 16 21 30.0000000  0  7  1 23 25 31 21 28 15
  20936056.190    -5398352.867 9    577813.758 9
  24481386.629      531366.603 5    586645.036 2
  22292363.828     8294040.683 7   -755250.059 6
  23463046.001    20213336.933 5    599329.302 3
  21617847.735      601249.182 7    486459.134 7
  24171002.173    12108627.134 4    204959.842 1
  22652782.265    10492847.206 7  -1019068.329 5
 94  1 21 16 22  0.0000000  0  7  1 23 25 31 21 28 15
  20946056.547    -5345802.599 9    618762.005 9
  24495574.217      605912.777 5    644732.875 2
  22277160.753     8214158.043 7   -817496.236 6
  23475674.759    20279729.925 5    651064.022 3
  21627126.372      650006.153 7    524451.568 7
  24189699.929    12206822.437 5    281475.444 1
  22636323.120    10406331.968 7  -1086482.802 5
 94  1 21 16 22 30.0000000  0  7  1 23 25 31 21 28 15
  20956114.584    -5292940.468 9    659953.265 9
  24509792.474      680596.451 5    702927.855 2
  22262011.820     8134573.008 7   -879510.501 6
  23488370.999    20346432.258 5    703039.831 3
  21636456.723      699030.428 7    562652.275 7
  24208376.849    12305031.454 5    358001.769 2
  22619909.093    10320122.221 6  -1153659.198 5
 94  1 21 16 23  0.0000000  0  7  1 23 25 31 21 28 15
  20966232.219    -5239764.395 9    701389.150 9
  24524012.380      755404.662 4    761219.907 2
  22246929.951     8055297.241 7   -941283.811 6
  23501120.903    20413438.810 5    755252.691 3
  21645838.158      748323.770 7    601062.657 7
  24227074.605    12403260.604 5    434543.844 2
  22603563.988    10234226.541 6  -1220590.900 5
 94  1 21 16 23 30.0000000  0  7  1 23 25 31 21 28 15
  20976409.334    -5186275.375 9    743068.899 9
  24538271.678      830324.819 4    819599.098 2
  22231903.124     7976334.064 7  -1002813.525 6
  23513934.032    20480753.042 5    807705.268 3
  21655266.301      797872.225 7    639671.811 7
  24245776.498    12501509.186 5    511101.005 2
  22587274.945    10148641.207 6  -1287280.762 5
 94  1 21 16 24  0.0000000  0  7  1 23 25 31 21 28 15
  20986646.827    -5132474.907 9    784991.337 9
  24552557.478      905344.740 4    878056.105 2
  22216935.296     7897689.351 7  -1064095.096 6
  23526798.246    20548382.085 5    860403.167 3
  21664740.972      847679.813 7    678482.897 7
  24264476.742    12599795.807 5    587687.835 2
  22571052.066    10063370.158 7  -1353725.721 5
 94  1 21 16 24 30.0000000  0  7  1 23 25 31 21 28 15
  20996948.085    -5078357.788 9    827160.499 9
  24566844.717      980446.838 5    936577.083 2
  22202033.032     7819368.232 7  -1125124.484 6
  23539734.381    20616326.044 5    913346.488 3
  21674272.393      897729.650 7    717482.774 7
  24283185.081    12698123.677 5    664306.793 2
  22554881.590     9978407.727 7  -1419930.198 5
 94  1 21 16 25  0.0000000  0  7  1 23 25 31 21 28 15
  21007306.874    -5023922.512 9    869577.598 9
  24581157.469     1055642.624 4    995171.117 2
  22187192.196     7741376.081 7  -1185897.552 6
  23552716.264    20684585.697 5    966535.776 3
  21683837.901      948023.733 7    756672.952 7
  24301904.691    12796497.033 5    740961.183 3
  22538778.298     9893758.776 7  -1485890.410 5
 94  1 21 16 25 30.0000000  0  7  1 23 25 31 21 28 15
  21017724.332    -4969173.573 9    912239.091 9
  24595488.478     1130951.233 4   1053852.934 2
  22172414.677     7663716.535 7  -1246411.436 6
  23565761.103    20753162.526 5   1019972.224 3
  21693459.560      998579.900 7    796067.332 7
  24320633.176    12894908.902 5    817645.566 3
  22522734.905     9809429.648 7  -1551601.423 5
 94  1 21 16 26  0.0000000  0  7  1 23 25 31 21 28 15
  21028202.888    -4914113.025 9    955143.408 9
  24609842.660     1206384.646 3   1112632.172 2
  22157696.306     7586377.321 7  -1306675.717 7
  23578871.717    20822037.981 5   1073641.339 3
  21703130.895     1049400.231 7    835667.586 6
  24339370.624    12993339.049 5    894344.276 3
  22506751.860     9725420.680 7  -1617062.930 5
 94  1 21 16 26 30.0000000  0  7  1 23 25 31 21 28 15
  21038737.745    -4858748.015 9    998284.943 9
  24624217.439     1281951.956 3   1171515.596 2
  22143039.423     7509358.957 7  -1366690.002 7
  23592035.694    20891198.876 5   1127532.882 3
  21712850.107     1100475.130 7    875466.180 6
  24358086.997    13091767.709 4    971041.787 4
  22490817.561     9641731.992 7  -1682274.883 5
 94  1 21 16 27  0.0000000  0  7  1 23 25 31 21 28 15
  21049330.582    -4803087.962 9   1041656.397 9
  24638623.636     1357661.560 4   1230510.042 2
  22128445.046     7432660.428 7  -1426455.036 7
  23605248.507    20960638.896 5   1181641.932 3
  21722614.467     1151805.281 7    915463.678 7
  24376815.662    13190184.701 4   1047730.119 4
  22474964.176     9558371.434 7  -1747231.154 5
 94  1 21 16 27 30.0000000  0  7  1 23 25 31 21 28 15
  21059978.280    -4747132.729 9   1085257.857 9
  24653054.206     1433489.113 4   1289596.333 2
  22113911.018     7356287.492 7  -1485966.393 7
  23618512.764    21030356.918 5   1235967.632 3
  21732429.012     1203373.160 7    955646.410 7
  24395549.992    13288575.278 3   1124397.937 4
  22459157.679     9475336.782 7  -1811933.456 5
 94  1 21 16 28  0.0000000  0  7  1 23 25 31 21 28 15
  21070683.120    -4690883.656 9   1129088.279 9
  24667501.114     1509413.558 4   1348758.146 2
  22099439.406     7280246.668 7  -1545218.942 7
  23631837.220    21100355.823 5   1290512.161 3
  21742281.871     1255154.804 7    995995.721 7
  24414260.489    13386932.614 3   1201039.839 4
  22443423.431     9392623.108 7  -1876385.643 5
 94  1 21 16 28 30.0000000  0  7  1 23 25 31 21 28 15
  21081443.600    -4634333.650 9   1173153.173 9
  24681975.784     1585433.287 4   1407994.170 2
  22085040.944     7204570.465 7  -1604187.369 6
  23645212.640    21170644.273 5   1345282.344 3
  21752178.500     1307160.442 7   1036519.588 7
  24432973.474    13485273.924 3   1277669.255 4
  22427747.464     9310244.044 7  -1940577.104 5
 94  1 21 16 29  0.0000000  0  7  1 23 25 31 21 28 15
  21092262.241    -4577475.742 9   1217458.041 9
  24696448.355     1661541.917 4   1467299.446 2
  22070709.066     7129264.696 7  -1662867.167 7
  23658641.603    21241212.830 5   1400270.778 3
  21762115.661     1359384.854 7   1077213.883 6
  24451687.749    13583587.497 2   1354276.989 4
  22412123.420     9228195.852 7  -2004510.751 5
 94  1 21 16 29 30.0000000  0  7  1 23 25 31 21 28 15
  21103140.750    -4520308.361 9   1262004.040 9
  24710955.372     1737745.155 4   1526678.498 2
  22056453.965     7054339.356 7  -1721250.490 7
  23672128.187    21312062.170 5   1455478.013 3
  21772098.270     1411834.529 7   1118083.744 6
  24470393.239    13681873.803 3   1430863.471 4
  22396573.755     9146482.495 7  -2068183.488 5
 94  1 21 16 30  0.0000000  0  7  1 23 25 31 21 28 15
  21114078.648    -4462850.501 9   1306776.396 9
  24725479.147     1814054.058 4   1586139.902 2
  22042262.749     6979784.088 7  -1779345.481 7
  23685661.508    21383182.977 6   1510896.796 3
  21782126.088     1464519.352 7   1159136.818 6
  24489084.550    13780130.750 3   1507427.150 3
  22381097.329     9065102.377 7  -2131596.542 5
 94  1 21 16 30 30.0000000  0  6  1 25 31 21 28 15
  21125062.593    -4405120.849 9   1351760.511 9
  22028147.051     6905595.396 7  -1837154.829 7
  23699242.076    21454555.249 5   1566511.496 3
  21792195.547     1517447.650 7   1200379.617 6
  24507784.344    13878358.622 4   1583968.119 3
  22365665.002     8984056.299 7  -2194749.319 5
 94  1 21 16 31  0.0000000  0  6  1 25 31 21 28 15
  21136096.185    -4347134.567 9   1396944.614 9
  22014096.438     6831760.091 7  -1894688.773 7
  23712869.232    21526176.483 5   1622320.229 3
  21802315.461     1570617.982 7   1241811.021 6
  24526468.189    13976540.383 4   1660473.256 3
  22350310.412     8903340.960 7  -2257644.386 5
 94  1 21 16 31 30.0000000  0  6  1 25 31 21 28 15
  21147176.454    -4288904.582 9   1442318.612 9
  22000111.360     6758263.688 8  -1951958.671 7
  23726543.726    21598053.392 5   1678328.114 3
  21812478.725     1624032.475 7   1283432.667 6
  24545138.035    14074680.565 4   1736945.938 2
  22335014.881     8822964.171 7  -2320275.631 5
 94  1 21 16 32  0.0000000  0  6  1 25 31 21 28 15
  21158302.442    -4230429.170 9   1487883.851 9
  21986189.867     6685104.651 8  -2008965.652 7
  23740275.419    21670181.944 6   1734532.157 3
  21822693.494     1677692.653 7   1325245.754 6
  24563806.860    14172772.982 4   1813381.385 2
  22319779.638     8742927.609 7  -2382641.754 5
 94  1 21 16 32 30.0000000  0  6  1 25 31 21 28 15
  21169478.555    -4171698.149 9   1533648.282 9
  21972333.490     6612282.723 8  -2065709.978 7
  23754041.859    21742555.381 5   1790927.012 3
  21832945.946     1731595.371 7   1367247.852 6
  24582461.506    14270806.751 5   1889771.190 2
  22304622.221     8663234.985 7  -2444739.885 6
 94  1 21 16 33  0.0000000  0  6  1 25 31 21 28 15
  21180707.222    -4112696.499 8   1579623.591 9
  21958537.341     6539791.104 8  -2122196.952 7
  23767863.640    21815173.543 5   1847512.519 3
  21843244.926     1785726.076 7   1409427.576 6
  24601101.792    14368762.726 5   1966100.383 2
  22289520.296     8583887.287 7  -2506569.257 6
 94  1 21 16 33 30.0000000  0  6  1 25 31 21 28 15
  21191989.671    -4053416.754 8   1625815.585 9
  21944810.264     6467645.133 8  -2178414.557 7
  23781731.440    21888038.078 5   1904290.021 3
  21853591.154     1840082.826 7   1451783.455 6
  24619728.886    14466639.249 5   2042367.735 2
  22274478.569     8504890.219 7  -2568125.388 6
 94  1 21 16 34  0.0000000  0  6  1 25 31 21 28 15
  21203320.597    -3993853.598 8   1672228.425 9
  21931150.610     6395876.915 7  -2234337.811 7
  23795647.386    21961147.988 6   1961258.748 3
  21863982.530     1894681.512 7   1494327.849 6
  24638340.602    14564445.721 5   2118580.345 1
  22259525.581     8426251.013 7  -2629402.691 6
 94  1 21 16 34 30.0000000  0  6  1 25 31 21 28 15
  21214707.524    -3934008.802 8   1718860.718 9
  21917565.725     6324495.634 7  -2289959.530 7
  23809602.095    22034499.142 5   2018415.461 3
  21874421.303     1949525.846 7   1537063.651 6
  24656942.424    14662195.471 5   2194748.808 1
  22244630.783     8347973.315 7  -2690398.271 6
 94  1 21 16 35  0.0000000  0  6  1 25 31 21 28 15
  21226152.191    -3873889.913 8   1765706.611 9
  21904056.987     6253500.077 7  -2345280.691 7
  23823599.825    22108079.521 5   2075750.747 3
  21884900.758     2004626.802 7   1579999.431 6
  24675533.334    14759884.570 5   2270870.021 1
  22229798.731     8270054.401 7  -2751114.291 6
 94  1 21 16 35 30.0000000  0  6  1 25 31 21 28 15
  21237641.617    -3813506.009 8   1812758.995 9
  21890622.987     6182894.925 7  -2400297.654 7
  23837650.378    22181892.597 5   2133267.399 3
  21895442.960     2060002.793 7   1623149.530 6
  24694110.123    14857533.015 5   2346959.607 2
  22215045.014     8192498.135 7  -2811547.710 6
 94  1 21 16 36  0.0000000  0  6  1 25 31 21 28 15
  21249182.367    -3752859.368 8   1860016.110 9
  21877256.441     6112671.242 8  -2455017.373 7
  23851727.882    22255919.635 5   2190950.731 3
  21906032.199     2115654.028 7   1666514.060 6
  24712684.694    14955150.180 5   2423024.681 2
  22200352.546     8115305.065 7  -2871698.149 6
 94  1 21 16 36 30.0000000  0  6  1 25 31 21 28 15
  21260773.753    -3691949.439 8   1907478.382 9
  21863961.574     6042806.486 8  -2509457.399 7
  23865865.525    22330148.433 5   2248791.317 3
  21916672.973     2171567.476 7   1710082.962 6
  24731256.867    15052723.477 5   2499055.632 2
  22185728.790     8038476.918 7  -2931564.200 6
 94  1 21 16 37  0.0000000  0  5  1 25 31 21 15
  21272416.283    -3630779.962 9   1955142.899 9
  21850739.348     5973308.504 8  -2563611.636 7
  23880026.821    22404586.082 5   2306794.607 3
  21927360.634     2227733.729 7   1753848.840 6
  22171179.922     7962020.660 7  -2991140.506 6
 94  1 21 16 37 30.0000000  0  5  1 25 31 21 15
  21284102.013    -3569358.799 9   2003003.537 9
  21837589.132     5904195.469 8  -2617465.905 7
  23894229.009    22479247.588 5   2364972.371 2
  21938091.765     2284139.860 7   1797801.619 6
  22156704.623     7885945.054 7  -3050420.183 6
 94  1 21 16 38  0.0000000  0  5  1 25 31 21 15
  21295835.140    -3507691.312 9   2051056.110 9
  21824508.737     5835483.604 8  -2671007.589 7
  23908478.385    22554125.093 5   2423318.405 2
  21948873.021     2340778.299 7   1841935.440 6
  22142304.661     7810257.115 7  -3109397.795 6
 94  1 21 16 38 30.0000000  0  5  1 25 31 21 15
  21307612.966    -3445783.929 9   2099295.612 9
  21811513.753     5767178.436 8  -2724232.372 7
  23922774.858    22629223.696 5   2481836.726 2
  21959694.120     2397651.454 7   1886252.140 6
  22127975.331     7734958.721 7  -3168071.836 6
 94  1 21 16 39  0.0000000  0  5  1 25 31 21 15
  21319442.927    -3383648.754 9   2147712.629 9
  21798592.998     5699288.138 8  -2777133.846 7
  23937102.689    22704537.381 5   2540522.669 2
  21970561.867     2454760.499 7   1930752.662 6
  22113714.144     7660047.258 7  -3226444.389 6
 94  1 21 16 39 30.0000000  0  5  1 25 31 21 15
  21331307.363    -3321281.479 9   2196310.491 9
  21785755.076     5631808.247 8  -2829715.567 7
  23951476.928    22780062.814 5   2599373.595 2
  21981475.961     2512116.104 7   1975445.302 6
  22099536.179     7585532.270 7  -3284507.996 6
 94  1 21 16 40  0.0000000  0  5  1 25 31 21 15
  21343223.664    -3258672.941 9   2245096.340 9
  21772987.664     5564721.570 8  -2881990.866 7
  23965885.223    22855787.548 5   2658379.827 2
  21992441.829     2569721.007 7   2020332.216 6
  22085435.261     7511414.772 7  -3342261.893 6
 94  1 21 16 40 30.0000000  0  5  1 25 31 21 15
  21355185.593    -3195809.519 9   2294080.823 9
  21760291.783     5498011.005 8  -2933973.097 8
  23980336.718    22931726.197 5   2717552.732 2
  22003452.367     2627583.518 7   2065419.842 6
  22071398.769     7437696.124 7  -3399704.979 6
 94  1 21 16 41  0.0000000  0  5  1 25 31 21 15
  21367198.606    -3132695.176 9   2343260.802 9
  21747670.431     5431681.728 7  -2985658.233 8
  23994825.088    23007887.882 5   2776899.444 2
  22014502.267     2685689.302 7   2110697.021 6
  22057452.873     7364376.259 7  -3456837.332 6
 94  1 21 16 41 30.0000000  0  5  1 25 31 21 15
  21379253.441    -3069327.958 9   2392637.847 9
  21735124.506     5365748.164 8  -3037035.008 8
  24009357.588    23084278.168 5   2836424.304 2
  22025609.788     2744043.138 7   2156167.512 5
  22043575.630     7291460.079 7  -3513655.105 6
 94  1 21 16 42  0.0000000  0  5  1 25 31 21 15
  21391359.300    -3005703.183 9   2442215.579 9
  21722656.108     5300230.516 8  -3088087.695 8
  24023950.615    23160903.703 5   2896132.421 2
  22036766.684     2802648.912 7   2201834.330 5
  22029779.181     7218947.912 7  -3570158.091 6
 94  1 21 16 42 30.0000000  0  5  1 25 31 21 15
  21403516.184    -2941828.839 9   2491987.782 9
  21710271.412     5235152.212 8  -3138798.047 8
  24038575.451    23237758.089 5   2956018.899 2
  22047963.962     2861513.932 7   2247703.107 5
  22016058.580     7146842.600 7  -3626344.039 6
 94  1 21 16 43  0.0000000  0  5  1 25 31 21 15
  21415716.268    -2877722.504 9   2541940.746 9
  21697976.234     5170527.519 8  -3189154.930 8
  24053230.925    23314806.723 5   3016056.733 2
  22059211.755     2920629.718 7   2293767.301 5
  22002414.156     7075144.680 7  -3682212.504 6
 94  1 21 16 43 30.0000000  0  5  1 25 31 21 15
  21427958.863    -2813380.461 9   2592077.406 9
  21685761.130     5106347.871 8  -3239165.050 8
  24067925.492    23392032.663 5   3076232.700 2
  22070512.252     2980015.018 6   2340041.536 5
  21988849.656     7003859.304 7  -3737759.569 6
 94  1 21 16 44  0.0000000  0  5  1 25 31 21 15
  21440251.613    -2748802.448 9   2642397.924 9
  21673627.450     5042592.627 8  -3288844.437 8
  24082658.582    23469427.085 5   3136539.972 2
  22081862.755     3039672.274 6   2386527.663 5
  21975362.533     6932988.168 7  -3792983.796 6
 94  1 21 16 44 30.0000000  0  5  1 25 31 21 15
  21452581.897    -2683993.813 9   2692898.143 9
  21661577.412     4979262.929 8  -3338192.225 8
  24097410.560    23546971.856 5   3196964.453 2
  22093273.485     3099596.555 7   2433221.842 5
  21961960.221     6862540.304 7  -3847878.232 6
 94  1 21 16 45  0.0000000  0  5  1 25 31 21 15
  21464958.498    -2618958.856 9   2743574.713 9
  21649602.742     4916341.850 8  -3387221.633 8
  24112196.804    23624662.961 5   3257502.868 2
  22104722.019     3159772.379 7   2480112.053 5
  21948632.888     6792514.194 7  -3902444.025 6
 94  1 21 16 45 30.0000000  0  5  1 25 31 21 15
  21477375.153    -2553698.888 9   2794426.624 9
  21637707.037     4853829.400 8  -3435932.615 8
  24127007.840    23702509.661 5   3318162.578 3
  22116216.752     3220192.805 6   2527192.865 5
  21935385.778     6722906.593 7  -3956683.705 6
 94  1 21 16 46  0.0000000  0  5  1 25 31 21 15
  21489835.726    -2488218.050 9   2845450.639 9
  21625891.677     4791736.932 8  -3484316.339 8
  24141855.032    23780510.826 5   3378942.644 3
  22127758.941     3280837.633 7   2574448.522 5
  21922216.525     6653720.058 7  -4010595.274 6
 94  1 21 16 46 30.0000000  0  5  1 25 31 21 15
  21502339.110    -2422519.904 9   2896643.986 9
  21614159.119     4730081.242 8  -3532359.714 8
  24156731.423    23858671.843 5   3439847.311 3
  22139340.224     3341698.567 7   2621872.588 6
  21909135.561     6584959.749 7  -4064174.734 6
 94  1 21 16 47  0.0000000  0  5  1 25 31 21 15
  21514884.585    -2356594.780 9   2948014.186 9
  21602511.163     4668865.752 8  -3580060.077 8
  24171636.864    23937016.910 5   3500895.324 3
  22150969.173     3402791.504 7   2669477.443 5
  21896134.671     6516627.135 7  -4117420.912 6
 94  1 21 16 47 30.0000000  0  5  1 25 31 21 15
  21527469.573    -2290445.053 9   2999559.427 9
  21590946.639     4608097.957 8  -3627411.595 8
  24186579.449    24015550.457 5   3562090.195 2
  22162641.023     3464128.774 7   2717272.684 5
  21883214.666     6448723.723 7  -4170332.648 6
 94  1 21 16 48  0.0000000  0  5  1 25 31 21 15
  21540098.300    -2224084.871 9   3051268.643 9
  21579465.787     4547767.065 8  -3674422.646 8
  24201558.879    24094258.573 5   3623421.166 2
  22174362.069     3525721.202 7   2765266.772 5
  21870367.570     6381247.188 7  -4222911.749 6
 94  1 21 16 48 30.0000000  0  5  1 25 31 21 15
  21552766.510    -2157513.124 8   3103142.715 9
  21568071.185     4487877.691 8  -3721089.664 8
  24216572.306    24173138.639 5   3684886.081 2
  22186135.338     3587591.112 7   2813477.059 5
  21857617.157     6314203.160 8  -4275153.825 6
 94  1 21 16 49  0.0000000  0  5  1 25 31 21 15
  21565477.621    -2090728.833 8   3155182.387 9
  21556756.418     4428426.617 8  -3767415.176 8
  24231610.945    24252175.113 5   3746472.893 2
  22197963.350     3649742.911 6   2861907.039 5
  21844939.353     6247594.854 8  -4327056.399 6
 94  1 21 16 49 30.0000000  0  5  1 25 31 21 15
  21578221.108    -2023746.829 8   3207376.132 9
  21545526.582     4369399.196 8  -3813410.540 8
  24246675.456    24331341.777 5   3808161.083 2
  22209837.140     3712163.548 6   2910546.430 5
  21832344.173     6181423.396 8  -4378618.574 6
 94  1 21 16 50  0.0000000  0  5  1 25 31 21 15
  21591005.638    -1956564.273 8   3259726.169 9
  21534372.594     4310795.671 8  -3859075.613 8
  24261755.017    24410622.780 4   3869938.433 2
  22221765.792     3774838.142 7   2959383.758 5
  21819837.821     6115690.702 7  -4429838.827 6
 94  1 21 16 50 30.0000000  0  5  1 25 31 21 15
  21603830.070    -1889172.900 8   3312238.918 9
  21523298.501     4252618.017 8  -3904408.813 8
  24276865.606    24490013.933 4   3931801.577 2
  22233737.734     3837743.464 6   3008400.881 5
  21807412.083     6050399.525 7  -4480715.070 7
 94  1 21 16 51  0.0000000  0  5  1 25 31 21 15
  21616692.425    -1821579.442 8   3364909.131 9
  21512314.225     4194868.819 8  -3949408.172 8
  24291998.679    24569517.924 4   3993752.644 2
  22245745.621     3900875.371 6   3057594.528 5
  21795074.694     5985552.487 8  -4531245.224 7
 94  1 21 16 51 30.0000000  0  5  1 25 31 21 15
  21629590.876    -1753796.438 8   3417727.038 9
  21501404.597     4137551.482 8  -3994071.015 8
  24307146.083    24649136.423 4   4055792.992 2
  22257803.213     3964236.170 6   3106966.542 5
  21782817.619     5921148.849 8  -4581429.861 7
 94  1 21 16 52  0.0000000  0  5  1 25 31 21 15
  21642525.721    -1685821.537 8   3470694.484 9
  21490584.968     4080692.253 8  -4038376.874 8
  24322331.620    24728889.051 4   4117937.800 2
  22269907.574     4027830.872 6   3156520.849 5
  21770646.945     5857196.322 8  -4631262.974 7
 94  1 21 16 52 30.0000000  0  5  1 25 31 21 15
  21655495.163    -1617670.019 8   3523799.542 9
  21479852.727     4024289.737 8  -4082326.855 9
  24337530.168    24808776.815 4   4180187.957 2
  22282052.766     4091670.260 6   3206265.794 5
  21758563.600     5793692.868 8  -4680746.178 7
 94  1 21 16 53  0.0000000  0  5  1 25 31 21 15
  21668494.883    -1549353.397 8   3577033.260 9
  21469208.296     3968344.979 8  -4125920.139 9
  24352753.629    24888798.913 4   4242542.782 2
  22294253.120     4155759.698 6   3256205.599 5
  21746561.769     5730635.714 7  -4729881.615 7
 94  1 21 16 53 30.0000000  0  5  1 25 31 21 15
  21681530.489    -1480853.599 8   3630409.710 9
  21458651.765     3912876.008 8  -4169142.682 9
  24368017.143    24968966.576 4   4305010.982 2
  22306495.085     4220099.102 6   3306340.155 5
  21734647.687     5668036.117 8  -4778660.507 7
 94  1 21 16 54  0.0000000  0  5  1 25 31 21 15
  21694605.037    -1412162.426 8   3683935.284 9
  21448182.592     3857882.811 8  -4211994.510 9
  24383297.564    25049278.633 4   4367591.733 2
  22318790.053     4284680.296 7   3356663.144 5
  21722827.200     5605896.628 8  -4827080.873 7
 94  1 21 16 54 30.0000000  0  5  1 25 31 21 15
  21707714.182    -1343268.207 8   3737619.081 9
  21437812.381     3803364.552 8  -4254476.244 9
  24398610.004    25129717.249 5   4430271.115 2
  22331121.596     4349513.342 6   3407182.399 5
  21711090.805     5544223.670 8  -4875137.729 7
 94  1 21 16 55  0.0000000  0  5  1 25 31 21 15
  21720862.540    -1274173.078 8   3791459.415 9
  21427529.500     3749325.777 8  -4296584.358 9
  24413928.769    25210272.850 4   4493041.630 2
  22343504.134     4414581.221 6   3457884.597 5
  21699442.369     5483018.052 8  -4922830.399 7
 94  1 21 16 55 30.0000000  0  5  1 25 31 21 15
  21734049.331    -1204875.066 9   3845457.852 9
  21417333.499     3695760.993 8  -4338323.133 9
  24429287.856    25290929.021 5   4555890.518 2
  22355933.889     4479887.060 7   3508772.232 5
  21687885.459     5422283.439 7  -4970156.067 7
 94  1 21 16 56  0.0000000  0  6  1 25 31 14 21 15
  21747273.806    -1135375.059 8   3899613.694 9
  21407231.002     3642668.997 8  -4379693.489 9
  24444646.044    25371672.861 4   4618807.768 2
  24952562.580   -12462239.90014  -3355357.070 2
  22368409.812     4545453.128 7   3559862.645 5
  21676416.809     5362028.183 7  -5017108.202 7
 94  1 21 16 56 30.0000000  0  6  1 25 31 14 21 15
  21760537.254    -1065684.367 8   3953918.090 8
  21397219.433     3590055.805 8  -4420690.769 9
  24460026.536    25452491.086 5   4681782.870 2
  24937663.615   -12540544.168 4  -3416373.327 2
  22380937.300     4611291.206 6   3611164.996 5
  21665040.585     5302257.516 7  -5063682.759 7
 94  1 21 16 57  0.0000000  0  6  1 25 31 14 21 15
  21773832.899     -995817.054 8   4008360.143 8
  21387297.982     3537917.735 8  -4461317.821 9
  24475416.112    25533383.850 5   4744816.174 2
  24922788.423   -12618861.459 4  -3477399.683 2
  22393518.869     4677400.273 6   3662678.524 5
  21653767.848     5242973.825 8  -5109877.837 7
 94  1 21 16 57 30.0000000  0  6  1 25 31 14 21 15
  21787159.094     -925778.107 8   4062935.945 8
  21377469.196     3486245.487 8  -4501581.873 9
  24490824.245    25614353.089 4   4807909.010 2
  24907852.912   -12697203.377 4  -3538445.228 2
  22406150.415     4743790.940 6   3714411.488 5
  21642579.594     5184178.919 8  -5155692.022 7
 94  1 21 16 58  0.0000000  0  6  1 25 31 14 21 15
  21800515.507     -855590.922 8   4117627.208 8
  21367722.314     3435043.223 8  -4541479.741 9
  24506248.627    25695402.447 4   4871064.248 2
  24892945.193   -12775588.482 4  -3599524.493 2
  22418831.186     4810441.398 6   3766346.862 5
  21631475.461     5125868.402 8  -5201128.798 7
 94  1 21 16 58 30.0000000  0  6  1 25 31 14 21 15
  21813900.671     -785248.133 8   4172439.758 8
  21358069.716     3384327.254 8  -4580998.643 9
  24521689.618    25776549.924 4   4934295.984 2
  24878009.173   -12854019.454 4  -3660639.419 2
  22431564.331     4877342.799 6   3818477.775 5
  21620479.404     5068056.605 8  -5246176.925 7
 94  1 21 16 59  0.0000000  0  6  1 25 31 14 21 15
  21827318.752     -714740.718 8   4227380.580 8
  21348508.075     3334081.825 8  -4620150.897 9
  24537156.120    25857808.150 5   4997614.027 2
  24863097.076   -12932510.691 5  -3721801.340 2
  22444338.518     4944484.179 6   3870795.682 5
  21609568.877     5010738.265 8  -5290840.564 7
 94  1 21 16 59 30.0000000  0  6  1 25 31 14 21 15
  21840768.581     -644049.622 8   4282464.537 8
  21339037.572     3284316.791 8  -4658928.816 9
  24552638.182    25939197.008 5   5061033.820 2
  24848117.676   -13011058.486 4  -3783007.298 2
  22457161.690     5011864.980 6   3923300.183 5
  21598761.808     4953918.599 8  -5335115.617 7
 94  1 21 17  0  0.0000000  0  6  1 25 31 14 21 15
  21854254.804     -573175.349 8   4337691.216 8
  21329668.907     3235035.073 8  -4697330.132 9
  24568157.359    26020720.801 5   5124558.831 2
  24833179.438   -13089652.709 5  -3844249.506 2
  22470033.070     5079490.017 6   3975994.970 5
  21588040.271     4897598.955 8  -5379001.053 7
 94  1 21 17  0 30.0000000  0  6  1 25 31 14 21 15
  21867781.650     -502102.238 8   4393072.837 8
  21320375.401     3186232.539 8  -4735358.062 9
  24583697.820    26102385.512 5   5188193.583 2
  24818213.378   -13168289.865 5  -3905525.144 2
  22482948.399     5147385.885 6   4028900.799 5
  21577418.744     4841783.349 8  -5422493.723 7
 94  1 21 17  1  0.0000000  0  6  1 25 31 14 21 15
  21881344.351     -430824.274 8   4448614.096 8
  21311180.647     3137914.757 8  -4773008.260 9
  24599255.100    26184208.144 5   5251951.406 2
  24803242.732   -13246942.046 5  -3966812.489 2
  22495924.466     5215569.099 6   4082030.525 5
  21566893.840     4786484.875 8  -5465583.437 7
 94  1 21 17  1 30.0000000  0  6  1 25 31 14 21 15
  21894945.964     -359357.239 8   4504302.675 8
  21302082.035     3090103.281 8  -4810263.927 9
  24614858.248    26266166.876 5   5315815.275 2
  24788297.329   -13325597.748 5  -4028102.592 2
  22508959.891     5284031.703 6   4135377.942 5
  21556474.673     4731703.755 8  -5508270.016 7
 94  1 21 17  2  0.0000000  0  6  1 25 31 14 21 15
  21908578.787     -287711.192 8   4560130.740 8
  21293080.377     3042800.282 8  -4847123.382 9
  24630477.195    26348233.727 5   5379763.367 2
  24773305.398   -13404253.596 5  -4089392.783 2
  22522034.950     5352772.342 6   4188942.017 5
  21546147.992     4677443.886 8  -5550550.441 7
 94  1 21 17  2 30.0000000  0  6  1 25 31 14 21 15
  21922243.027     -215891.656 8   4616093.991 8
  21284176.811     2996008.137 8  -4883584.772 9
  24646112.062    26430374.247 5   5443768.900 2
  24758350.281   -13482914.663 5  -4150687.049 2
  22535163.041     5421767.230 6   4242704.240 5
  21535921.832     4623701.573 8  -5592427.550 7
 94  1 21 17  3  0.0000000  0  6  1 25 31 14 21 15
  21935945.821     -143905.370 8   4672187.189 8
  21275370.408     2949741.553 8  -4919636.627 9
  24661749.056    26512563.624 5   5507812.462 2
  24743374.029   -13561576.443 5  -4211981.902 2
  22548337.211     5491004.503 6   4296655.305 5
  21525794.063     4570479.730 8  -5633899.117 7
 94  1 21 17  3 30.0000000  0  6  1 25 31 14 21 15
  21949673.197      -71756.847 8   4728406.787 8
  21266668.602     2904004.916 8  -4955275.550 9
  24677378.167    26594770.367 4   5571869.622 2
  24728397.177   -13640259.492 5  -4273293.273 2
  22561562.735     5560480.566 6   4350792.476 5
  21515762.917     4517771.696 8  -5674970.302 7
 94  1 21 17  4  0.0000000  0  6  1 25 31 14 21 15
  21963433.072         550.568 8   4784750.210 8
  21258064.468     2858794.432 8  -4990504.486 9
  24693037.586    26677002.906 4   5635946.804 2
  24713418.946   -13718961.815 5  -4334619.707 2
  22574833.678     5630204.349 6   4405122.630 4
  21505831.093     4465585.321 8  -5715635.014 7
 94  1 21 17  4 30.0000000  0  6  1 25 31 14 21 15
  21977225.893       73024.278 8   4841223.218 8
  21249564.603     2814118.874 8  -5025316.566 9
  24708701.802    26759268.924 4   5700050.092 2
  24698447.311   -13797692.121 5  -4395967.940 2
  22588150.249     5700187.601 6   4459654.980 4
  21495999.609     4413925.067 8  -5755889.751 7
 94  1 21 17  5  0.0000000  0  6  1 25 31 14 21 15
  21991047.045      145657.539 8   4897820.545 8
  21241159.861     2769965.049 8  -5059722.126 9
  24724361.761    26841579.411 4   5764188.033 2
  24683452.082   -13876466.090 5  -4457350.150 2
  22601514.697     5770439.842 6   4514396.930 4
  21486268.646     4362785.614 8  -5795738.675 7
 94  1 21 17  5 30.0000000  0  6  1 25 31 14 21 15
  22004900.334      218445.803 8   4954538.654 8
  21232858.878     2726327.139 8  -5093725.664 9
  24740040.756    26923949.044 4   5828372.048 2
  24668458.082   -13955286.664 5  -4518768.731 2
  22614936.165     5840959.503 6   4569347.308 4
  21476638.053     4312166.146 8  -5835182.395 7
 94  1 21 17  6  0.0000000  0  6  1 25 31 14 21 15
  22018778.687      291388.881 8   5011377.395 8
  21224648.072     2683197.630 8  -5127333.052 9
  24755721.671    27006382.288 3   5892605.686 3
  24653448.583   -14034158.014 5  -4580226.869 2
  22628405.841     5911746.936 6   4624506.296 4
  21467101.595     4262063.514 8  -5874223.397 7
 94  1 21 17  6 30.0000000  0  6  1 25 31 14 21 15
  22032689.357      364492.875 8   5068341.526 8
  21216538.416     2640574.482 8  -5160545.888 9
  24771425.459    27088874.258 3   5956885.062 3
  24638426.162   -14113081.496 5  -4641725.602 2
  22641926.600     5982809.140 6   4679879.373 4
  21457668.115     4212482.378 8  -5912858.060 7
 94  1 21 17  7  0.0000000  0  6  1 25 31 14 21 15
  22046630.335      437742.695 8   5125419.291 8
  21208523.075     2598454.956 8  -5193366.276 9
  24787103.615    27171419.034 2   6021205.539 3
  24623394.868   -14192047.996 5  -4703257.902 2
  22655498.894     6054128.598 6   4735452.933 4
  21448333.418     4163424.664 8  -5951084.834 7
 94  1 21 17  7 30.0000000  0  6  1 25 31 14 21 15
  22060594.758      511139.325 8   5182611.453 8
  21200607.175     2556849.075 8  -5225786.425 9
  24802857.169    27253999.037 3   6085553.440 3
  24608365.463   -14271050.999 5  -4764818.656 2
  22669114.509     6125692.223 6   4791216.737 4
  21439098.491     4114895.434 8  -5988899.821 7
 94  1 21 17  8  0.0000000  0  6  1 25 31 14 21 15
  22074587.571      584680.322 8   5239916.094 8
  21192786.819     2515754.104 8  -5257808.452 9
  24818552.953    27336594.420 3   6149913.378 2
  24593324.006   -14350097.395 5  -4826413.183 2
  22682783.036     6197497.390 6   4847168.787 4
  21429962.676     4066900.044 8  -6026298.822 7
 94  1 21 17  8 30.0000000  0  6  1 25 31 14 21 15
  22088607.515      658349.463 8   5297320.613 8
  21185063.446     2475159.349 9  -5289440.718 9
  24834280.875    27419181.061 3   6214266.495 2
  24578277.483   -14429186.446 5  -4888040.974 2
  22696485.140     6269518.645 6   4903289.171 4
  21420931.038     4019433.095 8  -6063286.051 8
 94  1 21 17  9  0.0000000  0  6  1 25 31 14 21 15
  22102652.582      732149.142 8   5354826.824 8
  21177434.207     2435076.140 8  -5320674.376 9
  24849976.659    27501759.598 3   6278613.271 2
  24563202.329   -14508311.624 5  -4949696.904 2
  22710233.922     6341761.145 6   4959581.972 4
  21412002.049     3972498.657 8  -6099858.331 8
 94  1 21 17  9 30.0000000  0  6  1 25 31 14 21 15
  22116722.262      806085.931 8   5412439.890 8
  21169905.819     2395504.825 8  -5351509.139 9
  24865704.941    27584334.885 3   6342957.480 2
  24548152.568   -14587465.654 5  -5011375.293 2
  22724025.544     6414246.345 6   5016063.906 4
  21403171.932     3926100.095 8  -6136013.058 8
 94  1 21 17 10  0.0000000  0  6  1 25 31 14 21 15
  22130813.856      880144.828 8   5470148.104 8
  21162470.247     2356432.183 8  -5381955.330 9
  24881413.766    27666912.622 3   6407303.709 2
  24533098.759   -14666641.274 5  -5073070.498 2
  22737869.900     6486981.617 6   5072740.692 4
  21394438.199     3880234.093 8  -6171752.786 8
 94  1 21 17 10 30.0000000  0  6  1 25 31 14 21 15
  22144930.334      954320.188 8   5527947.049 8
  21155128.060     2317858.522 8  -5412012.714 9
  24897128.017    27749506.955 4   6471662.809 2
  24518010.774   -14745832.284 5  -5134777.707 2
  22751756.317     6559973.434 6   5129617.388 4
  21385817.307     3834900.161 8  -6207077.937 8
 94  1 21 17 11  0.0000000  0  6  1 25 31 14 21 15
  22159069.955     1028606.167 8   5585832.206 8
  21147882.256     2279784.567 8  -5441680.715 9
  24912859.716    27832131.438 4   6536045.477 2
  24502947.702   -14825048.210 5  -5196504.346 2
  22765701.223     6633225.981 6   5186697.218 4
  21377289.381     3790095.447 8  -6241990.695 8
 94  1 21 17 11 30.0000000  0  6  1 25 31 14 21 15
  22173226.215     1103014.711 8   5643812.852 8
  21140730.587     2242203.595 8  -5470964.573 9
  24928584.130    27914799.181 4   6600461.730 2
  24487871.919   -14904289.535 5  -5258250.771 2
  22779692.927     6706725.379 6   5243969.436 4
  21368865.003     3745821.683 8  -6276489.721 8
 94  1 21 17 12  0.0000000  0  6  1 25 31 14 21 15
  22187413.803     1177560.744 8   5701900.651 8
  21133676.920     2205132.020 8  -5499851.512 9
  24944333.907    27997517.775 5   6664917.733 2
  24472774.970   -14983555.585 5  -5320016.475 2
  22793717.278     6780463.367 6   5301427.552 4
  21360544.413     3702089.651 8  -6310566.620 8
 94  1 21 17 12 30.0000000  0  6  1 25 31 14 21 15
  22201628.432     1252262.430 8   5760109.738 8
  21126725.962     2168607.630 8  -5528312.059 9
  24960085.273    28080298.146 5   6729421.783 1
  24457705.273   -15062842.554 5  -5381798.416 2
  22807798.889     6854442.412 6   5359073.536 4
  21352325.123     3658908.717 8  -6344214.115 8
 94  1 21 17 13  0.0000000  0  6  1 25 31 14 21 15
  22215871.782     1327119.420 8   5818439.824 8
  21119882.390     2132631.226 8  -5556345.611 9
  24975850.728    28163114.828 4   6793954.230 1
  24442619.057   -15142158.476 5  -5443602.998 2
  22821913.028     6928644.985 6   5416893.605 4
  21344213.488     3616270.854 8  -6377438.429 8
 94  1 21 17 13 30.0000000  0  6  1 25 31 14 21 15
  22230145.620     1402120.529 8   5876882.213 8
  21113140.207     2097211.404 8  -5583945.447 9
  24991606.051    28245946.371 5   6858498.229 1
  24427505.920   -15221511.249 5  -5505436.236 2
  22836084.548     7003078.592 6   5474893.798 4
  21336203.664     3574180.005 8  -6410236.489 8
 94  1 21 17 14  0.0000000  0  6  1 25 31 14 21 15
  22244439.065     1477222.600 8   5935403.272 8
  21106507.179     2062348.973 8  -5611110.977 9
  25007372.166    28328757.817 5   6923026.438 1
  24412398.808   -15300918.164 5  -5567311.709 2
  22850286.556     7077744.527 6   5533075.003 4
  21328295.978     3532626.256 8  -6442616.038 8
 94  1 21 17 14 30.0000000  0  6  1 25 31 14 21 15
  22258740.874     1552403.522 8   5993985.782 8
  21099973.472     2028019.962 8  -5637860.826 9
  25023108.872    28411522.828 4   6987518.660 1
  24397271.370   -15380381.710 5  -5629231.285 2
  22864540.308     7152646.413 6   5591440.031 4
  21320492.170     3491601.995 8  -6474582.987 8
 94  1 21 17 15  0.0000000  0  5  1 25 14 21 15
  22273062.380     1627651.171 8   6052620.288 7
  21093533.451     1994179.330 8  -5664230.124 9
  24382143.004   -15459915.892 5  -5691205.916 2
  22878834.053     7227771.051 6   5649978.661 4
  21312785.496     3451100.670 8  -6506142.452 8
 94  1 21 17 15 30.0000000  0  5  1 25 14 21 15
  22287392.669     1702963.062 7   6111304.844 7
  21087191.131     1960830.492 8  -5690216.209 9
  24366990.683   -15539502.536 5  -5753221.397 2
  22893181.280     7303130.378 6   5708700.197 4
  21305174.814     3411133.648 8  -6537285.573 8
 94  1 21 17 16  0.0000000  0  5  1 25 14 21 15
  22301738.817     1778376.239 7   6170068.317 7
  21080936.801     1927970.945 9  -5715821.044 9
  24351850.505   -15619105.383 5  -5815249.533 3
  22907567.661     7378732.303 6   5767610.741 4
  21297675.656     3371716.972 8  -6567999.876 8
 94  1 21 17 16 30.0000000  0  5  1 25 14 21 15
  22316117.014     1853909.204 7   6228925.134 7
  21074771.929     1895593.343 8  -5741050.332 9
  24336675.700   -15698717.506 5  -5877284.903 3
  22921997.242     7454566.225 6   5826702.008 4
  21290280.196     3332853.110 8  -6598283.401 8
 94  1 21 17 17  0.0000000  0  5  1 25 14 21 15
  22330512.028     1929561.998 7   6287875.334 7
  21068708.507     1863720.960 9  -5765885.939 9
  24321525.538   -15778346.124 5  -5939333.151 3
  22936470.322     7530633.318 6   5885975.017 4
  21282995.509     3294544.951 8  -6628133.921 8
 94  1 21 17 17 30.0000000  0  5  1 25 14 21 15
  22344932.195     2005344.300 7   6346926.430 7
  21062745.964     1832391.788 8  -5790298.263 9
  24306387.698   -15857985.326 5  -6001389.625 3
  22950991.759     7606950.871 6   5945443.207 4
  21275807.775     3256806.101 8  -6657540.808 8
 94  1 21 17 18  0.0000000  0  5  1 25 14 21 15
  22359377.455     2081258.333 8   6406080.184 7
  21056886.581     1801598.910 8  -5814292.702 9
  24291218.619   -15937650.224 5  -6063466.082 3
  22965561.103     7683510.600 6   6005100.107 4
  21268736.060     3219634.902 8  -6686505.383 8
 94  1 21 17 18 30.0000000  0  5  1 25 14 21 15
  22373849.546     2157288.820 8   6465324.701 7
  21051133.354     1771355.319 8  -5837859.117 9
  24276049.481   -16017354.568 5  -6125573.315 3
  22980179.193     7760315.322 6   6064947.859 4
  21261770.023     3183033.958 8  -6715025.587 8
 94  1 21 17 19  0.0000000  0  5  1 25 14 21 15
  22388342.083     2233443.476 7   6524665.958 7
  21045485.923     1741668.369 8  -5860991.797 9
  24260874.736   -16097095.498 5  -6187709.083 3
  22994845.640     7837375.072 6   6124994.370 4
  21254914.729     3147014.460 8  -6743092.730 8
 94  1 21 17 19 30.0000000  0  5  1 25 14 21 15
  22402856.055     2309727.117 7   6584107.736 7
  21039937.964     1712532.207 8  -5883695.291 9
  24245695.015   -16176863.754 5  -6249866.121 3
  23009556.845     7914692.628 6   6185241.753 4
  21248174.165     3111584.745 8  -6770700.308 8
 94  1 21 17 20  0.0000000  0  5  1 25 14 21 15
  22417393.621     2386124.014 8   6643637.751 7
  21034498.979     1683942.680 8  -5905972.831 9
  24230519.311   -16256653.170 5  -6312039.649 3
  23024314.279     7992262.684 6   6245685.883 4
  21241545.364     3076745.325 8  -6797847.913 8
 94  1 21 17 20 30.0000000  0  5  1 25 14 21 15
  22431950.104     2462626.967 8   6703250.413 7
  21029165.971     1655922.927 8  -5927806.393 9
  24215334.103   -16336463.643 5  -6374229.596 3
  23039124.206     8070097.390 6   6306336.277 3
  21235028.775     3042499.903 8  -6824532.643 9
 94  1 21 17 21  0.0000000  0  5  1 25 14 21 15
  22446529.431     2539232.447 7   6762942.955 7
  21023941.009     1628476.087 8  -5949193.543 9
  24200143.439   -16416286.723 5  -6436429.355 3
  23053988.816     8148199.976 6   6367195.385 3
  21228626.408     3008851.371 8  -6850752.284 9
 94  1 21 17 21 30.0000000  0  5  1 25 14 21 15
  22461124.677     2615936.829 7   6822712.571 7
  21018835.093     1601620.993 9  -5970119.587 9
  24184955.114   -16496093.875 5  -6498616.706 3
  23068906.279     8226586.362 6   6428275.636 3
  21222336.312     2975806.787 8  -6876501.308 9
 94  1 21 17 22  0.0000000  0  5  1 25 14 21 15
  22475743.996     2692748.552 7   6882565.832 7
  21013836.084     1575359.114 8  -5990583.372 9
  24169778.361   -16575879.412 5  -6560787.225 3
  23083874.196     8305244.509 6   6489569.986 4
  21216163.735     2943368.615 8  -6901777.802 9
 94  1 21 17 22 30.0000000  0  5  1 25 14 21 15
  22490382.142     2769679.908 7   6942512.299 7
  21008947.248     1549679.123 8  -6010593.760 9
  24154598.459   -16655633.807 5  -6622933.477 3
  23098894.968     8384190.285 6   6551083.754 3
  21210105.380     2911538.110 8  -6926580.811 9
 94  1 21 17 23  0.0000000  0  5  1 25 14 21 15
  22505043.463     2846734.942 7   7002555.159 7
  21004170.745     1524563.972 8  -6030163.991 9
  24139428.751   -16735333.486 5  -6685037.066 3
  23113972.730     8463405.219 6   6612809.632 3
  21204166.881     2880320.408 8  -6950906.270 9
 94  1 21 17 23 30.0000000  0  5  1 25 14 21 15
  22519732.394     2923921.482 7   7062700.466 7
  20999499.079     1500013.084 8  -6049294.536 9
  24124267.137   -16814976.262 5  -6747096.316 3
  23129094.921     8542882.286 6   6674739.793 3
  21198341.164     2849719.589 8  -6974751.062 9
 94  1 21 17 24  0.0000000  0  6  1 25 14 29 21 15
  22534445.638     3001240.930 7   7122949.344 7
  20994933.420     1476022.158 8  -6067988.768 9
  24109117.036   -16894578.688 5  -6809124.194 3
  24980025.518    -7347217.75415   -264048.682
  23144271.284     8622616.271 6   6736870.086 3
  21192634.524     2819738.059 8  -6998113.290 9
 94  1 21 17 24 30.0000000  0  6  1 25 14 29 21 15
  22549182.686     3078682.122 7   7183293.094 7
  20990473.048     1452600.252 8  -6086239.608 9
  24094000.181   -16974134.490 6  -6871115.691 3
  24966168.751    -7420000.171 5   -320762.230 1
  23159491.058     8702620.725 6   6799211.134 3
  21187048.761     2790378.699 8  -7020990.732 9
 94  1 21 17 25  0.0000000  0  6  1 25 14 29 21 15
  22563941.828     3156239.859 7   7243727.655 6
  20986129.055     1429765.974 8  -6104032.539 9
  24078852.507   -17053661.705 6  -6933084.899 3
  24952354.704    -7492613.833 5   -377344.263 1
  23174769.921     8782885.232 6   6861754.871 3
  21181584.294     2761638.683 8  -7043385.532 9
 94  1 21 17 25 30.0000000  0  6  1 25 14 29 21 15
  22578722.706     3233919.744 7   7304257.396 6
  20981901.382     1407538.494 8  -6121352.645 9
  24063719.134   -17133182.137 5  -6995048.832 3
  24938568.328    -7565050.768 4   -433788.434 1
  23190097.679     8863418.064 6   6924507.660 3
  21176231.680     2733519.447 8  -7065296.627 9
 94  1 21 17 26  0.0000000  0  6  1 25 14 29 21 15
  22593528.945     3311714.615 7   7364876.730 6
  20977785.142     1385917.829 8  -6138199.916 9
  24048594.215   -17212694.155 5  -7057006.224 3
  24924816.069    -7637317.523 5   -490100.120 1
  23205468.848     8944216.346 6   6987467.279 3
  21170997.453     2706017.841 8  -7086726.448 9
 94  1 21 17 26 30.0000000  0  6  1 25 14 29 21 15
  22608355.151     3389622.815 7   7425584.382 6
  20973785.760     1364896.833 9  -6154579.906 9
  24033458.893   -17292200.358 5  -7118959.063 3
  24911103.472    -7709410.805 5   -546276.635 1
  23220894.429     9025272.150 5   7050627.608 3
  21165880.656     2679131.976 8  -7107676.463 9
 94  1 21 17 27  0.0000000  0  6  1 25 14 29 21 15
  22623205.461     3467656.612 7   7486389.901 6
  20969898.022     1344458.159 8  -6170506.142 9
  24018334.243   -17371718.185 6  -7180921.014 3
  24897421.993    -7781340.440 4   -602325.610 1
  23236361.352     9106569.838 6   7113976.349 3
  21160880.747     2652861.615 8  -7128146.889 9
 94  1 21 17 27 30.0000000  0  6  1 25 14 29 21 15
  22638075.946     3545800.664 7   7547281.332 6
  20966112.752     1324579.837 8  -6185995.740 9
  24003200.240   -17451240.981 6  -7242886.774 3
  24883764.858    -7853105.054 4   -658246.039 1
  23251873.273     9188106.140 6   7177511.086 3
  21155998.147     2627206.021 8  -7148138.243 9
 94  1 21 17 28  0.0000000  0  6  1 25 14 29 21 15
  22652965.438     3624058.041 7   7608261.048 6
  20962435.408     1305249.458 8  -6201058.376 9
  23988065.488   -17530761.435 6  -7304850.804 3
  24870130.357    -7924695.070 4   -714030.336 1
  23267436.069     9269891.804 5   7241240.117 3
  21151234.235     2602171.118 8  -7167645.963 9
 94  1 21 17 28 30.0000000  0  6  1 25 14 29 21 15
  22667879.484     3702425.226 7   7669326.345 6
  20958858.914     1286469.836 8  -6215691.837 9
  23972928.667   -17610295.271 6  -7366825.185 3
  24856525.595    -7996111.531 3   -769679.478 2
  23283047.821     9351935.344 5   7305170.072 3
  21146591.889     2577756.404 8  -7186670.423 9
 94  1 21 17 29  0.0000000  0  6  1 25 14 29 21 15
  22682810.287     3780884.834 7   7730463.658 6
  20955396.191     1268250.526 8  -6229888.708 9
  23957789.597   -17689844.796 6  -7428811.786 3
  24842969.220    -8067365.212 3   -825201.767 2
  23298713.836     9434240.900 5   7369304.206 3
  21142063.614     2553956.450 8  -7205215.836 9
 94  1 21 17 29 30.0000000  0  6  1 25 14 29 21 15
  22697752.303     3859417.141 7   7791657.618 6
  20952036.597     1250606.130 9  -6243637.588 9
  23942652.297   -17769390.326 6  -7490795.299 3
  24829453.257    -8138460.549 3   -880600.599 2
  23314424.580     9516819.105 5   7433650.723 3
  21137648.271     2530770.641 8  -7223282.707 9
 94  1 21 17 30  0.0000000  0  6  1 25 14 29 21 15
  22712712.217     3938028.030 7   7852912.821 6
  20948789.695     1233541.483 9  -6256934.708 9
  23927526.118   -17848929.582 6  -7552773.919 3
  24815960.228    -8209410.342 4   -935886.060 2
  23330196.151     9599668.986 6   7498209.032 3
  21133348.347     2508199.771 8  -7240870.391 9
 94  1 21 17 30 30.0000000  0  6  1 25 14 29 21 15
  22727687.180     4016708.238 7   7914222.025 6
  20945653.626     1217068.638 8  -6269770.699 9
  23912389.088   -17928453.773 6  -7614740.817 3
  24802462.103    -8280227.157 3   -991067.943 2
  23346012.932     9682766.023 6   7562959.895 3
  21129170.620     2486240.850 8  -7257981.241 9
 94  1 21 17 31  0.0000000  0  6  1 25 14 29 21 15
  22742669.847     4095462.168 7   7975588.661 6
  20942633.157     1201176.404 8  -6282154.261 9
  23897258.412   -18007953.130 6  -7676688.357 3
  24789028.852    -8350913.725 4  -1046148.304 2
  23361873.062     9766103.449 6   7627898.103 3
  21125111.789     2464893.461 8  -7274615.580 9
 94  1 21 17 31 30.0000000  0  6  1 25 14 29 21 15
  22757670.802     4174296.149 7   8037017.691 6
  20939714.527     1185852.551 9  -6294094.914 9
  23882129.836   -18087425.775 6  -7738615.082 3
  24775582.171    -8421470.717 4  -1101127.761 2
  23377771.356     9849667.737 5   7693013.028 3
  21121165.202     2444156.607 8  -7290774.175 9
 94  1 21 17 32  0.0000000  0  6  1 25 14 29 21 15
  22772690.045     4253218.835 7   8098515.832 6
  20936904.872     1171095.803 8  -6305593.679 9
  23867021.795   -18166882.171 6  -7800529.127 3
  24762199.106    -8491883.662 4  -1155994.834 2
  23393725.171     9933463.718 6   7758308.519 3
  21117336.312     2424034.829 8  -7306453.486 9
 94  1 21 17 32 30.0000000  0  6  1 25 14 29 21 15
  22787727.784     4332234.267 7   8160086.246 6
  20934205.781     1156916.616 8  -6316642.390 9
  23851898.824   -18246314.913 6  -7862424.776 4
  24748828.363    -8562131.546 4  -1210733.390 2
  23409710.645    10017513.191 5   7823801.527 3
  21113630.458     2404538.973 8  -7321645.071 9
 94  1 21 17 33  0.0000000  0  6  1 25 14 29 21 15
  22802777.576     4411335.809 7   8221723.746 6
  20931619.411     1143298.907 9  -6327253.593 9
  23836785.117   -18325730.212 6  -7924306.812 3
  24735498.661    -8632212.843 5  -1265342.114 2
  23425757.755    10101835.266 6   7889506.987 3
  21110037.895     2385669.023 8  -7336348.925 9
 94  1 21 17 33 30.0000000  0  6  1 25 14 29 21 15
  22817847.903     4490518.114 7   8283424.204 6
  20929137.190     1130253.530 9  -6337418.827 9
  23821685.620   -18405118.198 6  -7986167.546 4
  24722197.799    -8702120.101 5  -1319815.237 2
  23441855.321    10186436.888 6   7955430.229 3
  21106569.626     2367432.854 8  -7350558.922 9
 94  1 21 17 34  0.0000000  0  6  1 25 14 29 21 15
  22832928.632     4569783.482 7   8345189.358 6
  20926760.885     1117777.246 8  -6347140.604 9
  23806565.887   -18484491.161 5  -8048016.598 3
  24708922.209    -8771856.811 5  -1374155.455 2
  23458007.929    10271313.956 5   8021568.109 3
  21103219.985     2349831.908 8  -7364273.959 9
 94  1 21 17 34 30.0000000  0  6  1 25 14 29 21 15
  22848031.577     4649132.606 7   8407019.784 6
  20924493.914     1105869.563 9  -6356419.324 9
  23791468.159   -18563846.696 5  -8109852.050 3
  24695675.100    -8841433.872 5  -1428371.281 2
  23474207.095    10356445.788 5   8087904.541 3
  21099989.781     2332864.610 8  -7377495.229 9
 94  1 21 17 35  0.0000000  0  6  1 25 14 29 21 15
  22863145.973     4728566.373 7   8468916.162 6
  20922337.237     1094530.830 8  -6365254.707 9
  23776370.191   -18643181.238 6  -8171671.168 3
  24682466.754    -8910855.974 5  -1482466.322 2
  23490455.846    10441802.702 5   8154416.323 3
  21096879.464     2316526.016 8  -7390226.625 9
 94  1 21 17 35 30.0000000  0  6  1 25 14 29 21 15
  22878280.306     4808092.930 7   8530884.842 6
  20920292.023     1083782.074 9  -6373630.351 9
  23761287.843   -18722487.265 6  -8233468.033 3
  24669294.683    -8980115.061 5  -1536434.394 2
  23506733.497    10527380.823 5   8221100.485 3
  21093894.581     2300820.891 8  -7402464.378 9
 94  1 21 17 36  0.0000000  0  6  1 25 14 29 21 15
  22893430.318     4887722.471 7   8592933.774 6
  20918359.621     1073628.715 9  -6381542.075 9
  23746197.550   -18801768.431 6  -8295245.579 3
  24656141.948    -9049211.259 5  -1590275.544 2
  23523069.818    10613186.549 6   8287962.076 3
  21091024.098     2285751.406 8  -7414206.857 9
 94  1 21 17 36 30.0000000  0  6  1 25 14 29 21 15
  22908604.763     4967440.785 7   8655051.889 6
  20916543.298     1064079.870 8  -6388982.721 9
  23731117.179   -18881001.793 6  -8356985.816 3
  24643025.339    -9118133.853 5  -1643981.375 2
  23539442.443    10699235.032 5   8355012.684 3
  21088276.530     2271324.278 8  -7425448.769 9
 94  1 21 17 37  0.0000000  0  6  1 25 14 29 21 15
  22923787.902     5047235.107 7   8717229.210 6
  20914836.730     1055127.923 9  -6395958.265 9
  23716043.135   -18960196.221 6  -8418695.733 3
  24629931.693    -9186889.881 5  -1697557.452 2
  23555852.423    10785537.874 5   8422261.609 3
  21085653.046     2257537.866 8  -7436191.444 9
 94  1 21 17 37 30.0000000  0  6  1 25 14 29 21 15
  22938988.609     5127099.048 7   8779460.799 6
  20913245.431     1046758.199 9  -6402480.124 9
  23700980.603   -19039374.972 6  -8480393.476 3
  24616890.182    -9255494.752 5  -1751015.717 2
  23572345.055    10872098.765 5   8489711.552 3
  21083150.319     2244386.396 8  -7446439.338 9
 94  1 21 17 38  0.0000000  0  6  1 25 14 29 21 15
  22954197.650     5207029.712 7   8841744.377 6
  20911764.217     1038961.000 9  -6408555.861 9
  23685918.250   -19118529.897 6  -8542072.606 3
  24603861.591    -9323946.433 5  -1804354.672 2
  23588845.782    10958913.448 5   8557359.245 3
  21080767.418     2231877.601 8  -7456186.460 9
 94  1 21 17 38 30.0000000  0  6  1 25 14 29 21 15
  22969412.716     5287017.784 7   8904072.672 6
  20910391.947     1031740.976 9  -6414181.861 9
  23670870.078   -19197656.044 6  -8603729.325 3
  24590866.367    -9392234.955 5  -1857566.422 2
  23605427.243    11045977.196 5   8625201.064 2
  21078515.647     2220015.325 8  -7465429.798 9
 94  1 21 17 39  0.0000000  0  6  1 25 14 29 21 15
  22984652.546     5367079.053 7   8966458.013 6
  20909126.103     1025107.778 9  -6419350.575 9
  23655806.136   -19276752.195 6  -8665362.692 3
  24577899.864    -9460354.759 5  -1910646.746 2
  23622038.743    11133291.904 5   8693238.413 2
  21076378.337     2208802.322 8  -7474167.198 9
 94  1 21 17 39 30.0000000  0  6  1 25 14 29 21 15
  22999901.939     5447218.938 7   9028904.616 6
  20907974.930     1019067.140 9  -6424057.579 9
  23640752.508   -19355803.111 6  -8726960.790 3
  24564974.282    -9528295.082 5  -1963587.204 2
  23638700.758    11220849.603 6   8761465.086 2
  21074368.438     2198239.272 8  -7482398.164 9
 94  1 21 17 40  0.0000000  0  6  1 25 14 29 21 15
  23015165.273     5527432.030 7   9091408.272 6
  20906943.164     1013635.164 9  -6428290.281 9
  23625734.734   -19434786.530 6  -8788506.299 3
  24552071.784    -9596045.484 5  -2016379.652 2
  23655404.204    11308666.414 5   8829893.684 3
  21072486.971     2188330.768 8  -7490119.080 9
 94  1 21 17 40 30.0000000  0  6  1 25 14 29 21 15
  23030452.829     5607737.285 7   9153983.709 5
  20906027.568     1008822.811 9  -6432040.171 9
  23610721.098   -19513699.407 6  -8849996.824 3
  24539225.648    -9663600.955 5  -2069020.259 2
  23672175.614    11396754.750 5   8898533.801 3
  21070725.600     2179079.080 8  -7497328.197 9
 94  1 21 17 41  0.0000000  0  6  1 25 14 29 21 15
  23045749.500     5688147.609 7   9216641.047 5
  20905229.221     1004628.554 9  -6435308.423 9
  23595718.794   -19592539.889 6  -8911430.950 3
  24526405.443    -9730973.235 5  -2121518.068 2
  23688983.148    11485116.119 5   8967386.726 3
  21069089.903     2170487.221 8  -7504023.156 9
 94  1 21 17 41 30.0000000  0  6  1 25 14 29 21 15
  23061067.845     5768660.495 7   9279378.307 6
  20904547.313     1001051.983 9  -6438095.364 9
  23580729.860   -19671318.451 6  -8972816.821 3
  24513617.706    -9798169.951 4  -2173879.083 2
  23705856.757    11573759.514 5   9036459.421 2
  21067582.576     2162560.160 8  -7510200.097 9
 94  1 21 17 42  0.0000000  0  6  1 25 14 29 21 15
  23076408.974     5849267.829 7   9342189.126 5
  20903984.782      998087.578 9  -6440405.293 9
  23565749.711   -19750045.135 6  -9034162.292 3
  24500863.215    -9865197.022 4  -2226107.933 2
  23722780.251    11662689.101 5   9105755.118 2
  21066197.535     2155296.373 8  -7515860.200 9
 94  1 21 17 42 30.0000000  0  6  1 25 14 29 21 15
  23091770.820     5929974.042 7   9405077.025 5
  20903533.415      995712.527 9  -6442255.987 9
  23550775.797   -19828733.756 6  -9095478.087 4
  24488141.133    -9932061.331 4  -2278209.952 2
  23739750.812    11751880.054 5   9175254.454 2
  21064939.846     2148690.585 8  -7521007.586 9
 94  1 21 17 43  0.0000000  0  6  1 25 14 29 21 15
  23107142.768     6010769.553 7   9468034.528 5
  20903192.881      993926.331 9  -6443647.809 9
  23535820.411   -19907372.431 6  -9156754.935 4
  24475453.196    -9998757.958 4  -2330181.292 2
  23756769.131    11841328.968 5   9244954.793 2
  21063810.707     2142745.126 8  -7525640.405 9
 94  1 21 17 43 30.0000000  0  6  1 25 14 29 21 15
  23122537.980     6091650.453 7   9531058.529 5
  20902966.088      992725.650 9  -6444583.432 9
  23520860.527   -19985939.420 6  -9217975.996 4
  24462797.458   -10065264.760 5  -2382004.731 2
  23773837.455    11931036.578 5   9314856.753 2
  21062807.812     2137463.186 8  -7529756.227 9
 94  1 21 17 44  0.0000000  0  6  1 25 14 29 21 15
  23137937.839     6172612.540 7   9594145.807 5
  20902848.029      992106.064 9  -6445066.233 9
  23505933.561   -20064423.896 6  -9279132.704 4
  24450175.925   -10131572.634 4  -2433673.135 2
  23790957.193    12020990.866 4   9384950.922 2
  21061926.302     2132843.808 8  -7533355.754 9
 94  1 21 17 44 30.0000000  0  6  1 25 14 29 21 15
  23153364.379     6253653.822 6   9657294.798 5
  20902836.967      992072.716 9  -6445092.225 9
  23491009.353   -20142824.691 6  -9340224.216 4
  24437589.739   -10197685.158 4  -2485189.339 2
  23808131.703    12111190.832 5   9455236.485 2
  21061177.540     2128886.385 8  -7536439.473 9
 94  1 21 17 45  0.0010000  0  6  1 25 14 29 21 15
  23168793.108     6334757.772 6   9720492.604 5
  20902949.269      992641.885 9  -6444648.723 9
  23476095.457   -20221151.258 6  -9401257.907 4
  24425046.302   -10263618.837 4  -2536566.170 2
  23825346.236    12201650.888 6   9525724.739 2
  21060547.736     2125588.606 8  -7539009.177 9
 94  1 21 17 45 30.0010000  0  6  1 25 14 29 21 15
  23184241.054     6415909.534 7   9783727.686 5
  20903166.259      993808.030 9  -6443740.046 9
  23461198.021   -20299427.995 6  -9462252.751 4
  24412527.569   -10329385.254 5  -2587812.697 2
  23842599.742    12292362.073 5   9596408.669 2
  21060046.273     2122946.878 8  -7541067.679 9
 94  1 21 17 46  0.0010000  0  6  1 25 14 29 21 15
  23199690.019     6497116.548 6   9847005.816 5
  20903505.954      995575.475 9  -6442362.829 9
  23446316.683   -20377670.018 6  -9523220.549 4
  24400042.262   -10395000.202 5  -2638941.174 2
  23859902.653    12383330.562 5   9667293.094 2
  21059663.288     2120959.030 8  -7542616.664 9
 94  1 21 17 46 30.0010000  0  6  1 25 14 29 21 15
  23215158.500     6578383.372 6   9910330.551 5
  20903955.942      997942.826 9  -6440518.151 9
  23431423.983   -20455873.350 6  -9584158.217 4
  24387581.479   -10460469.703 5  -2689956.319 2
  23877264.414    12474547.584 4   9738371.238 2
  21059411.913     2119624.402 8  -7543656.650 9
 94  1 21 17 47  0.0010000  0  6  1 25 14 29 21 15
  23230633.847     6659725.689 6   9973714.099 5
  20904520.452     1000907.324 9  -6438208.155 9
  23416559.463   -20534030.402 6  -9645059.809 4
  24375165.244   -10525769.275 5  -2740839.052 2
  23894669.704    12566004.014 4   9809635.861 2
  21059285.550     2118955.592 8  -7544177.819 9
 94  1 21 17 47 30.0010000  0  6  1 25 14 29 21 15
  23246129.459     6741154.232 6  10037164.863 5
  20905198.103     1004454.814 9  -6435443.883 9
  23401699.710   -20612133.256 6  -9705919.169 4
  24362776.111   -10590882.275 5  -2791576.416 2
  23912118.855    12657685.810 4   9881076.090 2
  21059279.914     2118951.987 8  -7544180.628 9
 94  1 21 17 48  0.0010000  0  6  1 25 14 29 21 15
  23261647.976     6822674.696 7  10100687.227 5
  20905983.709     1008590.799 9  -6432221.036 9
  23386850.780   -20690166.126 6  -9766723.971 4
  24350414.978   -10655803.199 5  -2842164.150 2
  23929613.993    12749596.580 5   9952694.755 2
  21059409.484     2119614.104 8  -7543664.697 9
 94  1 21 17 48 30.0010000  0  6  1 25 14 29 21 15
  23277170.330     6904270.901 6  10164268.624 5
  20906877.240     1013307.596 9  -6428545.628 9
  23372008.415   -20768145.582 6  -9827487.196 4
  24338098.635   -10720539.395 5  -2892607.866 2
  23947143.338    12841723.970 5  10024482.208 2
  21059663.109     2120937.745 8  -7542633.314 9
 94  1 21 17 49  0.0010000  0  6  1 25 14 29 21 15
  23292712.890     6985936.040 6  10227903.711 5
  20907887.661     1018603.498 9  -6424418.956 9
  23357176.603   -20846073.344 6  -9888210.138 4
  24325816.977   -10785099.760 5  -2942914.614 2
  23964714.653    12934087.831 5  10096453.960 2
  21060037.340     2122919.632 8  -7541089.005 9
 94  1 21 17 49 30.0010000  0  6  1 25 14 29 21 15
  23308261.147     7067654.668 6  10291580.495 5
  20909004.238     1024485.439 9  -6419835.628 9
  23342359.061   -20923934.308 6  -9948880.993 4
  24313551.479   -10849501.423 5  -2993097.692 2
  23982351.264    13026722.591 5  10168636.807 2
  21060539.882     2125558.311 8  -7539032.911 9
 94  1 21 17 50  0.0010000  0  6  1 25 14 29 21 15
  23323813.540     7149422.362 6  10355295.532 5
  20910241.811     1030955.098 9  -6414794.353 9
  23327556.569   -21001728.799 6 -10009500.081 4
  24301326.452   -10913754.891 5  -3043165.272 2
  24000030.385    13119628.586 5  10241030.998 2
  21061168.426     2128852.642 8  -7536465.911 9
 94  1 21 17 50 30.0010000  0  6  1 25 14 29 21 15
  23339390.426     7231242.627 6  10419051.496 5
  20911581.433     1038016.117 9  -6409292.271 9
  23312774.132   -21079444.863 6 -10070058.037 4
  24289127.567   -10977845.215 5  -3093105.744 3
  24017761.999    13212797.996 5  10313630.394 2
  21061922.165     2132808.086 8  -7533383.763 9
 94  1 21 17 51  0.0010000  0  6  1 25 14 29 21 15
  23354973.608     7313114.186 7  10482847.447 5
  20913042.202     1045684.119 9  -6403317.210 9
  23298004.287   -21157061.188 6 -10130538.280 4
  24276967.025   -11041760.800 5  -3142910.039 3
  24035533.247    13306237.080 5  10386439.966 2
  21062800.197     2137429.436 8  -7529782.726 9
 94  1 21 17 51 30.0010000  0  6  1 25 14 29 21 15
  23370561.617     7395036.097 6  10546682.623 5
  20914617.671     1053966.055 9  -6396863.772 9
  23283248.173   -21234583.032 6 -10190944.904 4
  24264846.896   -11105494.944 5  -3192572.992 3
  24053343.317    13399915.927 4  10459436.364 2
  21063801.953     2142717.841 8  -7525661.904 9
 94  1 21 17 52  0.0010000  0  6  1 25 14 29 21 15
  23386159.639     7477018.076 6  10610564.568 5
  20916311.109     1062868.156 9  -6389927.088 9
  23268516.761   -21312012.876 6 -10251279.849 4
  24252745.564   -11169045.507 5  -3242092.893 3
  24071227.736    13493808.068 4  10532598.985 2
  21064939.366     2148674.315 8  -7521020.509 9
 94  1 21 17 52 30.0010000  0  6  1 25 14 29 21 15
  23401772.170     7559048.621 6  10674484.441 5
  20918122.935     1072392.545 9  -6382505.500 9
  23253785.319   -21389350.602 6 -10311543.021 4
  24240691.389   -11232419.363 5  -3291475.098 3
  24089144.592    13587922.122 5  10605934.517 2
  21066199.004     2155297.765 8  -7515859.413 9
 94  1 21 17 53  0.0010000  0  6  1 25 14 29 21 15
  23417390.968     7641119.093 6  10738435.384 5
  20920053.179     1082521.781 9  -6374612.604 9
  23239095.009   -21466606.984 6 -10371742.796 4
  24228657.569   -11295638.546 5  -3340736.749 3
  24107092.657    13682264.911 5  10679448.229 2
  21067585.514     2162580.848 8  -7510184.289 9
 94  1 21 17 53 30.0010000  0  6  1 25 14 29 21 15
  23433016.061     7723235.605 6  10802422.197 5
  20922090.688     1093231.438 9  -6366267.417 9
  23224407.068   -21543785.746 6 -10431882.108 4
  24216658.586   -11358718.001 5  -3389889.533 3
  24125091.567    13776835.545 5  10753139.509 2
  21069093.530     2170515.708 8  -7504001.298 9
 94  1 21 17 54  0.0010000  0  6  1 25 14 29 21 15
  23448652.006     7805405.268 6  10866450.431 5
  20924239.630     1104517.176 9  -6357473.368 9
  23209737.623   -21620885.958 6 -10491960.165 5
  24204682.117   -11421653.784 5  -3438930.376 3
  24143132.027    13871655.864 5  10827025.405 2
  21070725.840     2179103.856 8  -7497309.253 9
 94  1 21 17 54 30.0010000  0  6  1 25 14 29 21 15
  23464296.166     7887622.287 6  10930515.548 5
  20926489.123     1116360.660 9  -6348244.689 9
  23195075.613   -21697913.922 6 -10551981.966 5
  24192728.193   -11484441.050 5  -3487855.530 3
  24161228.849    13966723.238 5  10901103.745 2
  21072485.592     2188336.535 8  -7490114.977 9
 94  1 21 17 55  0.0010000  0  6  1 25 14 29 21 15
  23479953.277     7969898.509 6  10994626.805 5
  20928850.258     1128749.598 9  -6338590.985 9
  23180438.636   -21774871.030 6 -10611948.552 5
  24180807.875   -11547079.169 5  -3536664.381 2
  24179353.282    14062019.030 5  10975360.075 2
  21074364.181     2198210.579 8  -7482420.937 9
 94  1 21 17 55 30.0010000  0  6  1 25 14 29 21 15
  23495617.013     8052225.429 6  11058777.582 4
  20931308.587     1141687.025 9  -6328509.897 9
  23165807.415   -21851764.848 6 -10671865.809 5
  24168913.369   -11609560.294 5  -3585350.955 2
  24197534.196    14157534.692 5  11049787.748 2
  21076360.889     2208724.070 8  -7474228.622 9
 94  1 21 17 56  0.0010000  0  6  1 25 14 29 21 15
  23511296.188     8134597.103 6  11122963.208 4
  20933879.037     1155185.462 9  -6317991.659 9
  23151173.736   -21928606.633 6 -10731742.521 5
  24157064.282   -11671871.752 5  -3633905.340 2
  24215752.314    14253263.511 5  11124381.518 2
  21078487.317     2219875.438 8  -7465539.280 9
 94  1 21 17 56 30.0010000  0  6  1 25 14 29 21 15
  23526981.630     8217011.317 7  11187182.014 5
  20936553.276     1169244.123 9  -6307036.860 9
  23136572.494   -22005386.742 6 -10791571.183 5
  24145239.598   -11734013.286 5  -3682327.303 2
  24234002.989    14349204.776 4  11199140.833 2
  21080730.784     2231668.073 8  -7456350.222 9
 94  1 21 17 57  0.0010000  0  6  1 25 14 29 21 15
  23542669.529     8299469.710 6  11251435.202 5
  20939337.328     1183871.900 9  -6295638.622 9
  23121970.863   -22082112.605 6 -10851357.582 5
  24133447.712   -11795997.620 5  -3730626.762 2
  24252308.106    14445357.798 5  11274065.165 2
  21083099.534     2244104.803 8  -7446659.289 9
 94  1 21 17 57 30.0010000  0  6  1 25 14 29 21 15
  23558368.371     8381957.845 6  11315711.581 5
  20942230.236     1199074.462 9  -6283792.495 9
  23107387.728   -22158789.080 7 -10911105.486 5
  24121680.468   -11857829.609 5  -3778807.515 2
  24270646.861    14541718.408 5  11349151.274 2
  21085587.811     2257179.982 8  -7436470.856 9
 94  1 21 17 58  0.0010000  0  6  1 25 14 29 21 15
  23574066.793     8464483.204 6  11380016.980 5
  20945234.606     1214855.636 9  -6271495.484 9
  23092806.333   -22235401.879 7 -10970803.793 5
  24109936.998   -11919511.279 5  -3826871.151 2
  24289017.693    14638281.739 4  11424395.293 2
  21088196.156     2270896.359 8  -7425782.791 9
 94  1 21 17 58 30.0010000  0  6  1 25 14 29 21 15
  23589784.222     8547045.273 6  11444350.968 5
  20948345.552     1231204.296 9  -6258756.298 9
  23078234.830   -22311936.394 6 -11030441.079 5
  24098225.995   -11981051.582 5  -3874824.615 2
  24307420.663    14735052.471 5  11499800.895 2
  21090928.944     2285260.160 8  -7414590.255 9
 94  1 21 17 59  0.0010000  0  6  1 25 14 29 21 15
  23605504.469     8629638.580 6  11508709.322 5
  20951562.325     1248123.631 9  -6245572.418 9
  23063681.016   -22388390.317 7 -11090015.602 5
  24086547.700   -12042443.267 5  -3922662.238 2
  24325891.536    14832025.514 5  11575364.174 2
  21093785.606     2300272.680 8  -7402892.196 9
 94  1 21 17 59 30.0010000  0  6  1 25 14 29 21 15
  23621220.849     8712248.641 6  11573080.718 5
  20954892.630     1265604.740 9  -6231950.793 9
  23049159.099   -22464760.370 7 -11149524.718 5
  24074896.836   -12103675.838 5  -3970375.919 2
  24344377.428    14929205.719 5  11651088.874 2
  21096766.922     2315929.525 8  -7390692.088 9
 94  1 21 18  0  0.0010000  0  6  1 25 14 29 21 15
  23636940.976     8794872.746 6  11637463.067 4
  20958323.844     1283641.343 9  -6217896.324 9
  23034645.876   -22541043.699 7 -11208966.276 5
  24063274.841   -12164738.126 5  -4017956.902 2
  24362910.928    15026604.003 5  11726983.564 2
  21099868.845     2332230.469 8  -7377990.075 9
 94  1 21 18  0 30.0010000  0  6  1 25 14 29 21 15
  23652665.720     8877514.634 6  11701859.253 4
  20961861.575     1302234.100 9  -6203408.490 9
  23020131.455   -22617236.490 7 -11268337.296 5
  24051696.257   -12225621.228 5  -4065398.289 2
  24381487.597    15124233.036 5  11803058.027 2
  21103096.350     2349178.413 8  -7364783.920 9
 94  1 21 18  1  0.0010000  0  6  1 25 14 29 21 15
  23668398.709     8960164.831 6  11766261.942 4
  20965509.600     1321406.477 9  -6188468.995 9
  23005657.535   -22693342.828 7 -11327640.914 5
  24040138.808   -12286315.598 5  -4112692.578 2
  24400099.672    15222087.061 4  11879307.820 2
  21106445.242     2366772.641 8  -7351074.150 9
 94  1 21 18  1 30.0010000  0  6  1 25 14 29 21 15
  23684121.654     9042822.116 6  11830670.101 4
  20969268.158     1341153.288 9  -6173081.901 9
  22991190.420   -22769361.655 7 -11386876.394 5
  24028620.212   -12346836.893 5  -4159852.004 3
  24418772.546    15320159.603 5  11955727.887 2
  21109908.864     2385004.723 8  -7336867.366 9
 94  1 21 18  2  0.0010000  0  6  1 25 14 29 21 15
  23699856.501     9125499.700 6  11895094.150 4
  20973135.181     1361463.701 9  -6157255.615 9
  22976740.753   -22845281.677 6 -11446034.846 5
  24017134.534   -12407190.557 5  -4206880.789 3
  24437477.616    15418438.818 5  12032308.916 2
  21113501.037     2403874.752 8  -7322163.475 9
 94  1 21 18  2 30.0010000  0  6  1 25 14 29 21 15
  23715597.374     9208202.103 6  11959537.489 4
  20977105.542     1382341.209 9  -6140987.459 9
  22962327.661   -22921107.174 7 -11505119.661 5
  24005685.640   -12467393.091 5  -4253791.842 3
  24456220.761    15516908.027 5  12109037.988 2
  21117212.228     2423383.400 8  -7306961.969 9
 94  1 21 18  3  0.0010000  0  6  1 25 14 29 21 15
  23731341.424     9290929.864 6  12024000.606 4
  20981184.039     1403784.219 9  -6124278.637 9
  22947895.233   -22996844.702 6 -11564135.920 5
  23994259.560   -12527467.035 6  -4300602.645 3
  24474994.244    15615555.841 4  12185906.326 2
  21121048.852     2443528.785 8  -7291264.275 9
 94  1 21 18  3 30.0010000  0  6  1 25 14 29 21 15
  23747090.811     9373706.375 6  12088501.692 4
  20985370.700     1425775.931 9  -6107142.264 9
  22933514.518   -23072484.155 7 -11623075.747 5
  23982842.773   -12587420.412 6  -4347319.549 3
  24493801.664    15714389.931 5  12262919.767 2
  21125000.626     2464310.611 8  -7275070.679 9
 94  1 21 18  4  0.0010000  0  6  1 25 14 29 21 15
  23762850.901     9456519.194 6  12153031.101 4
  20989659.771     1448303.887 9  -6089588.039 9
  22919133.174   -23148049.152 7 -11681957.566 5
  23971446.193   -12647268.260 5  -4393954.183 3
  24512637.684    15813408.528 5  12340076.956 2
  21129074.716     2485717.664 8  -7258389.898 9
 94  1 21 18  4 30.0010000  0  6  1 25 14 29 21 15
  23778611.710     9539360.839 6  12217582.955 4
  20994053.289     1471392.425 9  -6071596.988 9
  22904767.360   -23223535.870 7 -11740778.368 5
  23960084.719   -12707009.540 5  -4440505.798 3
  24531518.883    15912632.720 4  12417394.380 2
  21133272.230     2507758.947 8  -7241214.906 9
 94  1 21 18  5  0.0010000  0  6  1 25 14 29 21 15
  23794389.547     9622243.014 6  12282166.377 4
  20998548.168     1495041.995 9  -6053168.783 9
  22890426.817   -23298914.372 7 -11799514.867 5
  23948741.531   -12766619.453 5  -4486955.058 3
  24550430.840    16012085.610 4  12494890.070 2
  21137585.974     2530444.227 8  -7223538.094 9
 94  1 21 18  5 30.0010000  0  6  1 25 14 29 21 15
  23810164.446     9705153.208 6  12346771.631 4
  21003158.586     1519236.985 9  -6034315.575 9
  22876096.648   -23374180.900 7 -11858164.114 5
  23937429.462   -12826079.180 6  -4533287.273 3
  24569416.097    16111772.999 4  12572568.442 2
  21142025.151     2553767.036 8  -7205364.499 9
 94  1 21 18  6  0.0010000  0  6  1 25 14 29 21 15
  23825939.675     9788053.330 6  12411369.062 4
  21007864.008     1543964.698 9  -6015047.246 9
  22861795.918   -23449343.851 7 -11916732.644 5
  23926139.398   -12885394.000 6  -4579506.580 3
  24588430.494    16211674.748 4  12650413.757 2
  21146581.876     2577715.945 8  -7186703.064 9
 94  1 21 18  6 30.0010000  0  6  1 25 14 29 21 15
  23841713.825     9870946.978 6  12475961.434 4
  21012671.031     1569224.612 9  -5995364.213 9
  22847517.013   -23524394.063 7 -11975213.326 5
  23914883.301   -12944557.700 6  -4625608.110 3
  24607479.396    16311775.567 4  12728414.326 2
  21151258.279     2602291.260 8  -7167553.491 9
 94  1 21 18  7  0.0010000  0  6  1 25 14 29 21 15
  23857488.784     9953830.668 6  12540546.041 4
  21017574.796     1595001.712 9  -5975278.188 9
  22833245.393   -23599344.896 7 -12033616.588 5
  23903642.583   -13003581.052 5  -4671600.342 3
  24626559.867    16412053.941 4  12806553.171 1
  21156052.020     2627485.600 8  -7147921.582 9
 94  1 21 18  7 30.0010000  0  6  1 25 14 29 21 15
  23873257.957    10036707.466 6  12605125.293 4
  21022580.910     1621309.295 9  -5954778.805 9
  22819001.294   -23674214.079 7 -12091956.204 6
  23892446.354   -13062466.041 5  -4717484.723 3
  24645669.268    16512502.431 4  12884824.532 1
  21160971.404     2653305.664 8  -7127802.079 9
 94  1 21 18  8  0.0010000  0  6  1 25 14 29 21 15
  23889026.111    10119584.674 6  12669704.849 4
  21027689.463     1648162.735 9  -5933854.064 9
  22804766.669   -23749006.973 7 -12150236.385 6
  23881267.602   -13121218.784 6  -4763266.048 3
  24664814.224    16613105.125 4  12963216.116 1
  21166000.783     2679750.678 8  -7107195.607 9
 94  1 21 18  8 30.0010000  0  6  1 25 14 29 21 15
  23904798.942    10202469.862 6  12734290.645 4
  21032901.745     1675556.920 9  -5912507.977 9
  22790553.238   -23823737.458 7 -12208467.936 6
  23870106.299   -13179843.162 5  -4808947.381 3
  24683976.029    16713856.681 4  13041723.742 1
  21171148.099     2706811.413 8  -7086109.363 9
 94  1 21 18  9  0.0010000  0  6  1 25 14 29 21 15
  23920565.657    10285363.988 6  12798883.372 4
  21038220.393     1703496.471 9  -5890736.908 9
  22776345.384   -23898390.466 7 -12266639.099 6
  23858971.857   -13238328.698 5  -4854520.478 3
  24703184.181    16814770.060 4  13120357.426 1
  21176416.322     2734487.267 8  -7064543.808 9
 94  1 21 18  9 30.0010000  0  6  1 25 14 29 21 15
  23936351.169    10368283.416 6  12863495.828 3
  21043641.810     1731987.967 9  -5868535.771 9
  22762156.147   -23972935.773 7 -12324726.369 6
  23847872.282   -13296659.533 5  -4899973.092 3
  24722423.572    16915857.347 4  13199126.575 1
  21181803.053     2762775.735 8  -7042500.872 9
 94  1 21 18 10  0.0010000  0  6  1 25 14 29 21 15
  23952137.370    10451234.029 6  12928132.580 3
  21049167.824     1761036.469 9  -5845900.616 9
  22747999.318   -24047342.887 7 -12382705.923 6
  23836810.300   -13354830.929 5  -4945301.459 3
  24741688.895    17017138.056 4  13278046.424 1
  21187300.167     2791677.697 8  -7019979.888 9
 94  1 21 18 10 30.0010000  0  6  1 25 14 29 21 15
  23967930.287    10534214.004 6  12992792.215 3
  21054801.704     1790631.771 9  -5822839.349 9
  22733860.176   -24121612.639 7 -12440578.477 6
  23825764.237   -13412844.150 5  -4990506.526 3
  24761005.003    17118625.516 4  13357127.434 1
  21192916.599     2821195.750 8  -6996978.845 9
 94  1 21 18 11  0.0010000  0  6  1 25 14 29 21 15
  23983720.236    10617216.734 6  13057469.593 3
  21060536.074     1820765.032 9  -5799358.916 9
  22719757.399   -24195752.533 7 -12498349.830 6
  23814765.511   -13470712.479 5  -5035598.752 3
  24780355.557    17220311.810 4  13436363.351 1
  21198655.166     2851326.632 8  -6973500.271 9
 94  1 21 18 11 30.0010000  0  7  1 22 25 14 29 21 15
  23999521.547    10700224.982 6  13122151.254 3
  24851216.990    -1872677.61213  -1851168.027 3
  21066368.057     1851416.012 9  -5775475.047 9
  22705663.826   -24269797.866 7 -12556047.469 6
  23803766.096   -13528453.965 5  -5080592.139 3
  24799749.910    17322175.944 5  13515737.815 1
  21204502.139     2882062.782 8  -6949550.059 9
 94  1 21 18 12  0.0010000  0  7  1 22 25 14 29 21 15
  24015310.417    10783215.658 6  13186819.235 3
  24835377.786    -1955910.973 4  -1916024.864 3
  21072297.352     1882567.083 9  -5751201.521 9
  22691590.429   -24343781.369 7 -12613696.968 6
  23792799.178   -13586071.450 5  -5125488.875 3
  24819162.012    17424205.343 5  13595241.135 1
  21210465.161     2913404.295 8  -6925128.131 9
 94  1 21 18 12 30.0010000  0  6  1 22 25 14 29 15
  24031100.395    10866183.629 6  13251469.481 3
  24819539.121    -2039181.259 5  -1980910.558 3
  21078319.403     1914208.829 9  -5726545.628 9
  22677516.552   -24417708.801 7 -12671302.750 6
  23781875.730   -13643557.328 6  -5170283.029 3
  21216544.682     2945355.661 8  -6900231.009 9
 94  1 21 18 13  0.0010000  0  6  1 22 25 14 29 15
  24046885.637    10949128.540 6  13316101.782 3
  24803686.455    -2122485.842 5  -2045823.048 3
  21084432.591     1946349.971 9  -5701500.621 9
  22663468.667   -24491555.264 7 -12728845.471 6
  23770952.102   -13700908.326 5  -5214972.164 3
  21222735.906     2977919.513 8  -6874856.616 9
 94  1 21 18 13 30.0010000  0  6  1 22 25 14 29 15
  24062664.404    11032060.604 6  13380724.148 3
  24787820.329    -2205827.731 5  -2110764.599 3
  21090648.398     1979008.619 9  -5676052.346 9
  22649440.299   -24565288.047 7 -12786299.576 6
  23760065.799   -13758109.253 6  -5259544.311 3
  21229056.130     3011102.997 8  -6848999.370 9
 94  1 21 18 14  0.0010000  0  6  1 22 25 14 29 15
  24078445.899    11114983.191 6  13445339.061 3
  24771953.274    -2289224.107 5  -2175748.596 3
  21096963.796     2012190.751 9  -5650196.178 9
  22635434.475   -24638869.249 7 -12843635.607 6
  23749210.164   -13815160.548 5  -5303999.892 3
  21235485.000     3044908.068 8  -6822657.813 9
 94  1 21 18 14 30.0010000  0  6  1 22 25 14 29 15
  24094221.158    11197901.080 5  13509950.314 3
  24756073.387    -2372704.499 5  -2240798.073 3
  21103377.975     2045910.345 9  -5623921.176 9
  22621469.962   -24712287.027 7 -12900844.254 6
  23738385.827   -13872072.152 6  -5348346.604 3
  21242039.002     3079328.174 8  -6795836.974 9
 94  1 21 18 15  0.0010000  0  6  1 22 25 14 29 15
  24110001.363    11280820.776 5  13574562.938 3
  24740167.808    -2456262.032 5  -2305907.701 3
  21109900.590     2080183.082 9  -5597215.174 9
  22607523.827   -24785537.267 7 -12957922.385 6
  23727574.052   -13928856.162 6  -5392593.926 3
  21248702.339     3114361.341 8  -6768538.436 9
 94  1 21 18 15 30.0010000  0  6  1 22 25 14 29 15
  24125778.841    11363747.769 6  13639181.306 3
  24724252.756    -2539884.589 6  -2371068.007 3
  21116526.393     2115002.487 9  -5570083.197 9
  22593607.551   -24858637.676 7 -13014883.737 6
  23716799.751   -13985510.939 6  -5436740.504 3
  21255493.028     3150008.072 8  -6740761.815 9
 94  1 21 18 16  0.0010000  0  6  1 22 25 14 29 15
  24141562.284    11446670.132 6  13703796.078 3
  24708335.395    -2623551.832 6  -2436263.162 3
  21123255.894     2150353.320 9  -5542537.115 9
  22579727.130   -24931610.839 7 -13071745.941 6
  23706033.664   -14042036.845 6  -5480786.662 3
  21262384.957     3186263.584 8  -6712510.790 9
 94  1 21 18 16 30.0010000  0  6  1 22 25 14 29 15
  24157347.137    11529600.104 5  13768416.739 3
  24692412.818    -2707230.434 6  -2501467.119 2
  21130084.597     2186238.309 9  -5514574.814 9
  22565867.995   -25004470.570 7 -13128519.755 6
  23695308.050   -14098430.444 6  -5524729.772 3
  21269401.810     3223126.587 8  -6683786.424 9
 94  1 21 18 17  0.0010000  0  6  1 22 25 14 29 15
  24173130.250    11612549.582 5  13833052.605 3
  24676489.042    -2790898.777 6  -2566663.081 2
  21137011.751     2222644.712 9  -5486206.235 9
  22552026.997   -25077210.644 7 -13185200.356 6
  23684600.272   -14154685.876 6  -5568565.209 3
  21276533.872     3260601.613 8  -6654585.162 9
 94  1 21 18 17 30.0010000  0  6  1 22 25 14 29 15
  24188925.385    11695523.323 6  13897707.383 3
  24660572.881    -2874566.336 5  -2631858.414 2
  21144033.460     2259556.047 9  -5457444.163 9
  22538202.937   -25149825.540 7 -13241783.396 6
  23673912.282   -14210796.012 6  -5612287.423 3
  21283776.018     3298686.302 8  -6624908.801 9
 94  1 21 18 18  0.0010000  0  6  1 22 25 14 29 15
  24204713.386    11778529.941 6  13962387.776 3
  24644646.376    -2958239.592 5  -2697058.294 2
  21151157.668     2296978.937 9  -5428283.508 9
  22524404.269   -25222301.335 7 -13298258.029 6
  23663276.035   -14266761.795 6  -5655897.155 3
  21291140.840     3337378.050 8  -6594759.417 9
 94  1 21 18 18 30.0010000  0  6  1 22 25 14 29 15
  24220519.583    11861572.745 6  14027096.387 3
  24628713.456    -3041935.857 5  -2762276.113 2
  21158372.563     2334912.672 9  -5398724.774 9
  22510639.479   -25294638.087 7 -13354624.344 6
  23652649.112   -14322594.952 6  -5699403.490 3
  21298619.223     3376671.353 8  -6564141.304 9
 94  1 21 18 19  0.0010000  0  6  1 22 25 14 29 15
  24236320.954    11944639.562 6  14091823.696 3
  24612779.218    -3125680.768 5  -2827531.784 2
  21165690.078     2373343.055 9  -5368779.042 9
  22496903.858   -25366837.541 7 -13410883.658 6
  23642051.718   -14378286.511 6  -5742799.550 3
  21306211.287     3416565.964 8  -6533054.615 9
 94  1 21 18 19 30.0010000  0  6  1 22 25 14 29 15
  24252133.357    12027715.061 5  14156557.786 3
  24596830.858    -3209484.307 5  -2892833.176 2
  21173097.470     2412279.068 9  -5338439.327 9
  22483196.807   -25438899.911 7 -13467036.165 6
  23631482.865   -14433827.090 6  -5786077.963 3
  21313918.381     3457061.762 8  -6501499.485 9
 94  1 21 18 20  0.0010000  0  6  1 22 25 14 29 15
  24267947.140    12110777.722 6  14221281.838 3
  24580873.296    -3293343.837 5  -2958178.208 2
  21180601.635     2451718.796 9  -5307707.098 9
  22469500.488   -25510842.299 7 -13523095.162 6
  23620939.554   -14489207.055 6  -5829231.201 3
  21321738.168     3498152.387 8  -6469480.867 9
 94  1 21 18 20 30.0010000  0  6  1 22 25 14 29 15
  24283741.316    12193811.352 6  14285983.298 3
  24564900.893    -3377259.962 5  -3023567.337 2
  21188203.712     2491653.221 9  -5276589.391 9
  22455835.978   -25582671.893 7 -13579066.288 6
  23610441.751   -14544427.139 6  -5872259.895 3
  21329670.287     3539836.006 8  -6437000.162 9
 94  1 21 18 21  0.0010000  0  6  1 22 25 14 29 15
  24299532.674    12276805.420 6  14350653.908 3
  24548924.503    -3461230.021 5  -3088998.467 3
  21195893.808     2532071.877 9  -5245094.387 9
  22442193.053   -25654382.793 7 -13634944.934 6
  23599952.133   -14599500.897 6  -5915174.522 3
  21337713.239     3582102.368 8  -6404065.388 9
 94  1 21 18 21 30.0010000  0  6  1 22 25 14 29 15
  24315323.792    12359771.951 5  14415303.049 3
  24532947.364    -3545218.717 5  -3154444.110 3
  21203681.697     2573005.779 9  -5213197.839 9
  22428572.163   -25725951.200 7 -13690712.523 6
  23589501.758   -14654422.078 6  -5957970.271 3
  21345868.643     3624957.414 8  -6370671.877 9
 94  1 21 18 22  0.0010000  0  6  1 22 25 14 29 15
  24331113.321    12442717.363 6  14479935.769 3
  24516967.976    -3629201.171 4  -3219884.932 3
  21211571.275     2614454.482 9  -5180900.180 9
  22414980.622   -25797362.946 7 -13746358.060 7
  23579089.426   -14709213.591 6  -6000665.002 3
  21354131.462     3668395.478 8  -6336824.070 9
 94  1 21 18 22 30.0010000  0  6  1 22 25 14 29 15
  24346890.498    12525660.606 6  14544566.809 3
  24500991.826    -3713153.413 5  -3285302.229 3
  21219559.275     2656434.849 9  -5148188.235 9
  22401420.469   -25868592.881 7 -13801861.892 7
  23568677.154   -14763889.675 6  -6043269.762 3
  21362510.182     3712426.564 8  -6302514.157 9
 94  1 21 18 23  0.0010000  0  6  1 22 25 14 29 15
  24362673.492    12608599.965 5  14609194.792 3
  24485017.925    -3797069.422 5  -3350691.288 3
  21227649.774     2698950.282 9  -5115059.355 9
  22387912.541   -25939639.727 8 -13857223.093 7
  23558283.710   -14818451.684 6  -6085785.651 3
  21371004.921     3757043.874 8  -6267747.481 9
 94  1 21 18 23 30.0010000  0  6  1 22 25 14 29 15
  24378449.291    12691528.893 6  14673814.629 3
  24469061.082    -3880952.388 5  -3416054.525 2
  21235842.502     2741998.854 9  -5081515.037 9
  22374418.702   -26010515.293 7 -13912450.803 7
  23547929.807   -14872904.850 6  -6128216.709 4
  21379603.778     3802242.658 8  -6232527.676 9
 94  1 21 18 24  0.0010000  0  6  1 22 25 14 29 15
  24394237.681    12774446.940 6  14738426.008 3
  24453097.493    -3964813.353 5  -3481400.621 2
  21244128.196     2785556.231 9  -5047574.247 9
  22360961.558   -26081239.460 7 -13967560.557 7
  23537582.591   -14927261.779 6  -6170572.793 4
  21388316.017     3848019.256 8  -6196857.643 9
 94  1 21 18 24 30.0010000  0  6  1 22 25 14 29 15
  24410008.233    12857348.487 6  14803024.542 3
  24437141.549    -4048673.943 4  -3546746.465 2
  21252513.691     2829605.049 9  -5013250.525 9
  22347526.929   -26151834.196 7 -14022569.441 7
  23527258.128   -14981507.133 6  -6212841.917 4
  21397137.440     3894369.729 8  -6160740.433 9
 94  1 21 18 25  0.0010000  0  6  1 22 25 14 29 15
  24425778.905    12940230.395 5  14867607.778 3
  24421176.881    -4132547.618 4  -3612102.568 2
  21260986.156     2874128.861 9  -4978556.681 9
  22334120.240   -26222295.452 7 -14077474.320 7
  23516967.122   -15035622.360 6  -6255009.675 4
  21406064.510     3941292.138 8  -6124177.544 9
 94  1 21 18 25 30.0010000  0  6  1 22 25 14 29 15
  24441545.860    13023098.150 5  14932179.945 3
  24405220.607    -4216425.131 4  -3677461.558 2
  21269545.620     2919114.462 9  -4943502.997 9
  22320738.045   -26292613.631 7 -14132267.723 7
  23506701.839   -15089598.964 6  -6297069.359 4
  21415103.253     3988788.449 8  -6087167.479 9
 94  1 21 18 26  0.0010000  0  6  1 22 25 14 29 15
  24457309.337    13105946.537 5  14996737.057 2
  24389252.402    -4300309.055 5  -3742825.620 2
  21278190.285     2964553.437 9  -4908096.026 9
  22307388.107   -26362788.161 7 -14186949.163 7
  23496451.065   -15143423.012 6  -6339010.204 4
  21424250.490     4036854.154 8  -6049713.718 8
 94  1 21 18 26 30.0010000  0  6  1 22 25 14 29 15
  24473079.290    13188777.293 5  15061280.371 2
  24373294.389    -4384205.394 5  -3808199.326 2
  21286923.719     3010448.889 8  -4872333.384 9
  22294062.931   -26432800.541 8 -14241504.284 7
  23486237.046   -15197092.546 6  -6380830.619 4
  21433503.015     4085483.032 7  -6011821.121 8
 94  1 21 18 27  0.0010000  0  6  1 22 25 14 29 15
  24488837.281    13271589.943 5  15125809.672 2
  24357333.889    -4468106.016 5  -3873576.351 2
  21295748.230     3056802.153 9  -4836213.981 9
  22280773.971   -26502641.392 7 -14295925.732 7
  23476045.932   -15250625.272 6  -6422544.456 4
  21442860.946     4134664.579 8  -5973497.886 8
 94  1 21 18 27 30.0010000  0  6  1 22 25 14 29 15
  24504593.053    13354391.621 5  15190330.370 2
  24341363.105    -4551990.066 5  -3938940.524 2
  21304652.516     3103604.021 9  -4799745.012 9
  22267510.823   -26572317.694 7 -14350218.965 7
  23465891.421   -15304027.041 6  -6464156.225 4
  21452327.133     4184396.416 8  -5934745.856 8
 94  1 21 18 28  0.0010000  0  6  1 22 25 14 29 15
  24520349.545    13437177.211 5  15254838.500 2
  24325404.523    -4635866.805 5  -4004298.942 2
  21313645.330     3150855.113 9  -4762926.014 9
  22254285.779   -26641835.128 7 -14404388.398 7
  23455745.695   -15357307.395 6  -6505673.402 4
  21461892.161     4234674.895 8  -5895567.839 8
 94  1 21 18 28 30.0010000  0  6  1 22 25 14 29 15
  24536093.746    13519961.315 5  15319345.508 2
  24309448.279    -4719717.344 4  -4069636.975 2
  21322722.536     3198557.011 8  -4725755.715 9
  22241088.405   -26711181.374 8 -14458424.427 7
  23445634.955   -15410468.881 6  -6547097.919 4
  21471568.862     4285509.118 8  -5855956.800 8
 94  1 21 18 29  0.0010000  0  6  1 22 25 14 29 15
  24551837.497    13602738.910 5  15383847.403 2
  24293483.162    -4803528.520 4  -4134944.341 2
  21331884.823     3246712.411 8  -4688232.053 9
  22227922.569   -26780368.528 7 -14512336.509 7
  23435543.851   -15463507.511 6  -6588426.752 4
  21481348.242     4336904.839 8  -5815908.225 8
 94  1 21 18 29 30.0010000  0  6  1 22 25 14 29 15
  24567599.205    13685514.558 5  15448347.822 2
  24277562.683    -4887296.760 3  -4200218.250 2
  21341136.958     3295328.198 8  -4650349.651 9
  22214787.523   -26849399.288 8 -14566126.720 7
  23425477.419   -15516412.646 6  -6629651.530 4
  21491238.006     4388869.109 7  -5775416.636 8
 94  1 21 18 30  0.0010000  0  6  1 22 25 14 29 15
  24583345.054    13768284.474 5  15512843.795 2
  24261616.752    -4971043.526 3  -4265475.471 2
  21350479.930     3344433.118 8  -4612086.096 9
  22201678.858   -26918273.817 8 -14619795.176 7
  23415422.620   -15569200.729 6  -6670785.111 4
  21501233.116     4441395.756 8  -5734486.811 8
 94  1 21 18 30 30.0010000  0  6  1 22 25 14 29 15
  24599102.596    13851049.860 5  15577336.236 2
  24245690.518    -5054765.158 3  -4330713.009 2
  21359921.834     3394040.999 8  -4573430.620 9
  22188598.853   -26986980.721 8 -14673333.032 7
  23405405.595   -15621877.090 6  -6711831.640 4
  21511335.103     4494484.672 8  -5693118.863 8
 94  1 21 18 31  0.0010000  0  6  1 22 25 14 29 15
  24614849.584    13933802.423 5  15641818.692 2
  24229763.324    -5138462.488 4  -4395931.785 1
  21369457.183     3444149.231 9  -4534385.261 9
  22175562.767   -27055516.496 8 -14726737.545 7
  23395401.670   -15674439.758 6  -6752789.558 4
  21521544.655     4548130.117 8  -5651317.251 8
 94  1 21 18 31 30.0010000  0  6  1 22 25 14 29 15
  24630598.432    14016547.390 5  15706295.187 2
  24213845.124    -5222115.844 4  -4461116.090 1
  21379084.718     3494758.429 9  -4494949.556 9
  22162560.499   -27123843.225 8 -14779979.152 7
  23385426.946   -15726882.299 6  -6793653.882 4
  21531861.892     4602335.929 8  -5609079.007 8
 94  1 21 18 32  0.0010000  0  6  1 22 25 14 29 15
  24646340.923    14099280.532 5  15770762.446 2
  24197944.252    -5305717.797 3  -4526260.404 1
  21388812.623     3545863.297 8  -4455127.599 9
  22149605.057   -27191937.809 8 -14833039.871 8
  23375469.579   -15779203.045 6  -6834423.304 4
  21542280.100     4657102.292 8  -5566403.971 8
 94  1 21 18 32 30.0010000  0  6  1 22 25 14 29 15
  24662089.950    14182006.859 6  15835224.449 2
  24182012.171    -5389242.843 3  -4591344.929 1
  21398624.950     3597430.569 9  -4414945.324 9
  22136689.849   -27259801.028 8 -14885920.315 8
  23365540.243   -15831389.964 6  -6875088.420 4
  21552808.151     4712429.393 8  -5523291.985 8
 94  1 21 18 33  0.0010000  0  5  1 25 14 29 15
  24677830.164    14264745.579 5  15899696.070 2
  21408524.127     3649450.689 9  -4374410.193 9
  22123813.613   -27327431.272 7 -14938619.206 8
  23355630.753   -15883430.804 6  -6915639.712 4
  21563445.807     4768322.928 8  -5479738.622 8
 94  1 21 18 33 30.0010000  0  5  1 25 14 29 15
  24693570.857    14347493.575 5  15964174.956 3
  21418508.205     3701919.973 9  -4333525.046 9
  22110987.412   -27394847.509 7 -14991151.345 8
  23345756.249   -15935343.080 6  -6956090.864 4
  21574185.032     4824767.286 8  -5435756.046 8
 94  1 21 18 34  0.0010000  0  5  1 25 14 29 15
  24709317.785    14430258.463 5  16028667.001 2
  21428579.163     3754837.024 9  -4292291.017 9
  22098193.559   -27462082.288 7 -15043542.085 8
  23335896.285   -15987130.259 6  -6996444.502 4
  21585029.125     4881761.611 8  -5391344.920 8
 94  1 21 18 34 30.0010000  0  5  1 25 14 29 15
  24725074.067    14513049.909 5  16093179.718 2
  21438737.991     3808216.942 9  -4250696.290 9
  22085434.032   -27529134.875 8 -15095790.865 8
  23326064.502   -16038780.872 6  -7036691.720 4
  21595981.203     4939313.432 7  -5346499.380 8
 94  1 21 18 35  0.0010000  0  5  1 25 14 29 15
  24740829.540    14595841.971 5  16157692.969 2
  21448982.019     3862074.702 9  -4208729.240 9
  22072704.665   -27596001.337 8 -15147894.592 8
  23316271.121   -16090295.039 6  -7076832.607 4
  21607042.496     4997415.718 8  -5301224.920 8
 94  1 21 18 35 30.0010000  0  5  1 25 14 29 15
  24756582.794    14678609.300 6  16222186.889 2
  21459325.608     3916415.209 9  -4166386.018 9
  22060020.566   -27662682.869 8 -15199854.263 8
  23306496.928   -16141668.963 6  -7116864.246 4
  21618200.411     5056062.509 8  -5255526.177 8
 94  1 21 18 36  0.0010000  0  6  1 22 25 14 29 15
  24772323.787    14761333.840 5  16286647.461 2
  24071240.627     5822307.87614    -76404.114
  21469756.947     3971227.403 9  -4123675.235 9
  22047370.253   -27729172.699 8 -15251664.510 8
  23296746.298   -16192904.884 6  -7156788.329 4
  21629462.595     5115247.720 7  -5209407.870 8
 94  1 21 18 36 30.0010000  0  6  1 22 25 14 29 15
  24788054.407    14844023.423 5  16351080.822 2
  24055485.754     5739484.547 3   -140941.802 1
  21480280.261     4026528.998 9  -4080583.115 9
  22034759.184   -27795442.341 8 -15303303.201 8
  23287021.361   -16243983.591 6  -7196589.869 4
  21640829.945     5174978.158 8  -5162864.716 8
 94  1 21 18 37  0.0010000  0  6  1 22 25 14 29 15
  24803793.541    14926688.602 5  16415495.133 2
  24039746.020     5656768.666 4   -205395.779 1
  21490895.912     4082309.946 9  -4037117.455 9
  22022189.695   -27861491.052 8 -15354769.726 8
  23277330.360   -16294905.514 6  -7236269.291 4
  21652296.887     5235254.396 8  -5115896.258 8
 94  1 21 18 37 30.0010000  0  6  1 22 25 14 29 15
  24819525.780    15009352.102 5  16479908.205 2
  24024026.013     5574164.128 3   -269762.941 2
  21501597.694     4138548.851 9  -3993294.961 9
  22009669.223   -27927312.418 8 -15406059.091 8
  23267669.128   -16345684.192 6  -7275837.066 5
  21663870.195     5296074.286 7  -5068504.178 8
 94  1 21 18 38  0.0010000  0  6  1 22 25 14 29 15
  24835260.537    15092034.550 4  16544335.950 2
  24008329.030     5491671.152 3   -334043.135 2
  21512385.336     4195236.052 8  -3949123.152 9
  21997186.135   -27992898.232 7 -15457164.938 8
  23258029.301   -16396322.855 6  -7315295.760 5
  21675550.289     5357435.985 7  -5020689.911 8
 94  1 21 18 38 30.0010000  0  6  1 22 25 14 29 15
  24850991.876    15174747.171 5  16608787.257 2
  23992650.394     5409295.827 5   -398231.691 2
  21523255.960     4252363.104 9  -3904608.587 9
  21984750.894   -28058242.016 8 -15508082.167 8
  23248421.433   -16446814.414 6  -7354639.815 5
  21687330.124     5419340.924 7  -4972452.332 8
 94  1 21 18 39  0.0010000  0  6  1 22 25 14 29 15
  24866736.916    15257488.715 5  16673261.072 2
  23977003.626     5327040.281 5   -462326.949 2
  21534207.708     4309919.861 9  -3859759.204 9
  21972365.988   -28123336.793 8 -15558805.375 8
  23238845.012   -16497164.407 6  -7393873.576 5
  21699211.648     5481786.531 7  -4923793.479 8
 94  1 21 18 39 30.0010000  0  6  1 22 25 14 29 15
  24882489.631    15340248.361 5  16737749.027 2
  23961371.458     5244893.270 4   -526337.576 2
  21545242.259     4367910.241 9  -3814571.927 9
  21960021.973   -28188186.035 8 -15609337.259 8
  23229292.276   -16547367.550 6  -7432992.890 5
  21711198.670     5544765.809 7  -4874718.761 8
 94  1 21 18 40  0.0010000  0  6  1 22 25 14 29 15
  24898248.131    15423010.214 5  16802238.644 2
  23945762.703     5162857.491 4   -590261.602 2
  21556363.870     4426345.070 9  -3769038.333 9
  21947730.332   -28252789.458 8 -15659677.574 8
  23219769.608   -16597405.582 6  -7471983.540 5
  21723281.085     5608280.196 7  -4825227.072 8
 94  1 21 18 40 30.0010000  0  6  1 22 25 14 29 15
  24913993.741    15505770.821 5  16866727.354 2
  23930173.136     5080935.227 4   -654097.105 2
  21567570.771     4485241.834 9  -3723144.792 9
  21935477.005   -28317137.927 8 -15709819.240 8
  23210275.541   -16647274.533 6  -7510842.442 5
  21735470.677     5672335.919 7  -4775313.564 8
 94  1 21 18 41  0.0010000  0  6  1 22 25 14 29 15
  24929737.792    15588522.422 5  16931208.999 2
  23914600.537     4999114.578 4   -717853.476 2
  21578866.711     4544605.744 9  -3676887.230 9
  21923282.018   -28381242.622 8 -15759770.949 8
  23200819.337   -16696984.076 6  -7549577.165 5
  21747765.285     5736927.914 7  -4724982.205 8
 94  1 21 18 41 30.0010000  0  6  1 22 25 14 29 15
  24945480.703    15671253.999 4  16995675.062 2
  23899047.034     4917394.926 4   -781531.135 2
  21590251.960     4604434.247 9  -3630267.654 9
  21911134.907   -28445093.312 8 -15809524.741 8
  23191386.038   -16746537.909 6  -7588190.526 5
  21760156.817     5802054.548 7  -4674234.232 8
 94  1 21 18 42  0.0010000  0  6  1 22 25 14 29 15
  24961221.186    15753966.782 4  17060126.451 2
  23883514.277     4835782.093 5   -845125.611 2
  21601723.548     4664718.801 9  -3583292.717 9
  21899035.073   -28508680.365 8 -15859073.088 8
  23181987.124   -16795957.258 6  -7626699.096 5
  21772651.717     5867707.583 7  -4623076.054 8
 94  1 21 18 42 30.0010000  0  6  1 22 25 14 29 15
  24976951.896    15836679.888 4  17124578.133 2
  23868013.868     4754302.775 5   -908616.008 2
  21613283.815     4725466.657 9  -3535956.765 9
  21886990.192   -28571997.047 8 -15908410.757 8
  23172607.218   -16845239.609 6  -7665100.964 5
  21785243.270     5933889.671 7  -4571505.651 7
 94  1 21 18 43  0.0010000  0  6  1 22 25 14 29 15
  24992702.332    15919405.193 4  17189039.283 2
  23852541.579     4672978.950 6   -971985.238 2
  21624931.591     4786673.193 9  -3488263.390 9
  21874989.560   -28635035.615 8 -15957531.714 8
  23163252.644   -16894375.641 6  -7703388.803 5
  21797939.810     6000601.727 7  -4519522.275 7
 94  1 21 18 43 30.0010000  0  6  1 22 25 14 29 15
  25008430.134    16002145.982 4  17253512.486 2
  23837095.342     4591823.253 6  -1035223.453 2
  21636662.650     4848327.208 9  -3440221.339 9
  21863046.908   -28697792.541 8 -16006433.216 8
  23153931.587   -16943372.058 6  -7741567.847 5
  21810731.595     6067836.394 7  -4467131.693 7
 94  1 21 18 44  0.0010000  0  6  1 22 25 14 29 15
  25024201.166    16084911.080 5  17318004.685 2
  23821683.941     4510838.130 6  -1098328.756 3
  21648480.349     4910422.185 9  -3391835.675 9
  21851150.393   -28760299.004 8 -16055139.539 8
  23144634.873   -16992228.433 6  -7779637.762 5
  21823626.058     6135587.311 7  -4414338.803 7
 94  1 21 18 44 30.0010000  0  6  1 22 25 14 29 15
  25039950.073    16167692.411 5  17382509.489 2
  23806307.166     4430010.743 6  -1161311.128 3
  21660377.163     4972946.513 9  -3343115.468 9
  21839304.304   -28822572.431 8 -16103664.274 8
  23135364.151   -17040943.024 6  -7817597.224 5
  21836616.575     6203846.929 7  -4361149.547 7
 94  1 21 18 45  0.0010000  0  6  1 22 25 14 29 15
  25055710.313    16250484.980 5  17447023.114 2
  23790945.231     4349319.412 6  -1224187.466 3
  21672353.542     5035886.711 9  -3294071.183 9
  21827496.319   -28884613.877 8 -16152008.254 8
  23126117.082   -17089523.791 6  -7855452.406 5
  21849704.434     6272613.316 7  -4307565.407 7
 94  1 21 18 45 30.0010000  0  6  1 22 25 14 29 15
  25071460.179    16333282.618 5  17511540.681 2
  23775615.824     4268758.641 6  -1286962.073 4
  21684412.094     5099243.126 8  -3244702.601 9
  21815733.962   -28946434.367 8 -16200180.063 8
  23116898.104   -17137970.050 6  -7893202.771 5
  21862883.940     6341885.872 7  -4253586.846 7
 94  1 21 18 46  0.0010000  0  6  1 22 25 14 29 15
  25087220.269    16416074.956 5  17576054.063 2
  23760315.346     4188326.766 5  -1349636.224 4
  21696547.483     5163020.630 9  -3195005.875 9
  21804012.766   -29008033.639 8 -16248179.486 8
  23107702.900   -17186276.595 6  -7930844.264 5
  21876159.950     6411658.311 7  -4199218.736 7
 94  1 21 18 46 30.0010000  0  6  1 22 25 14 29 15
  25102966.178    16498861.171 5  17640562.729 2
  23745040.411     4108034.339 5  -1412201.683 4
  21708762.856     5227216.009 8  -3144983.545 9
  21792337.289   -29069385.245 8 -16295985.925 8
  23098547.778   -17234445.767 6  -7968378.714 5
  21889534.141     6481926.611 7  -4144464.283 7
 94  1 21 18 47  0.0010000  0  6  1 22 25 14 29 15
  25118720.452    16581642.997 5  17705067.991 2
  23729785.172     4027902.419 5  -1474642.093 3
  21721062.232     5291835.242 8  -3094630.917 9
  21780713.226   -29130464.399 8 -16343580.079 8
  23089406.027   -17282466.402 6  -8005797.421 5
  21902998.480     6552693.087 7  -4089321.604 7
 94  1 21 18 47 30.0010000  0  6  1 22 25 14 29 15
  25134474.665    16664432.299 5  17769579.034 2
  23714570.524     3947958.477 5  -1536936.013 3
  21733437.394     5356889.969 8  -3043938.965 9
  21769144.625   -29191259.861 8 -16390953.152 9
  23080293.445   -17330335.620 6  -8043098.141 5
  21916563.069     6623955.782 8  -4033792.296 7
 94  1 21 18 48  0.0010000  0  6  1 22 25 14 29 15
  25150229.688    16747240.742 5  17834105.001 2
  23699392.362     3868214.916 5  -1599073.781 3
  21745899.827     5422368.628 8  -2992916.672 9
  21757631.125   -29251757.879 8 -16438094.464 9
  23071217.319   -17378054.791 6  -8080281.940 5
  21930214.748     6695711.037 7  -3977879.148 7
 94  1 21 18 48 30.0010000  0  6  1 22 25 14 29 15
  25165988.519    16830063.185 5  17898641.867 2
  23684257.280     3788664.212 5  -1661061.220 3
  21758436.818     5488243.662 8  -2941585.516 9
  21746175.036   -29311966.196 8 -16485010.023 9
  23062153.154   -17425640.347 6  -8117361.602 5
  21943963.590     6767951.514 7  -3921587.931 7
 94  1 21 18 49  0.0010000  0  6  1 22 25 14 29 15
  25181756.133    16912887.874 5  17963180.547 2
  23669150.708     3709294.258 5  -1722907.793 3
  21771045.759     5554510.346 8  -2889949.158 9
  21734765.025   -29371907.442 8 -16531717.481 9
  23053123.405   -17473101.324 6  -8154344.187 5
  21957799.372     6840669.020 7  -3864924.995 7
 94  1 21 18 49 30.0010000  0  6  1 22 25 14 29 15
  25197523.897    16995716.783 5  18027722.451 2
  23654085.447     3630098.820 5  -1784618.465 3
  21783728.329     5621157.321 8  -2838016.490 9
  21723408.197   -29431603.214 8 -16578233.653 9
  23044115.451   -17520448.619 6  -8191238.186 5
  21971728.569     6913858.525 7  -3807894.259 7
 94  1 21 18 50  0.0010000  0  6  1 22 25 14 29 15
  25213282.488    17078524.812 5  18092248.085 2
  23639047.078     3551061.101 5  -1846206.202 2
  21796482.489     5688174.459 8  -2785795.380 9
  21712093.820   -29491054.848 8 -16624559.595 9
  23035126.114   -17567693.236 6  -8228052.154 5
  21985742.397     6987513.821 7  -3750500.582 7
 94  1 21 18 50 30.0010000  0  6  1 22 25 14 29 15
  25229027.618    17161304.705 4  18156751.845 2
  23624033.982     3472188.188 5  -1907665.635 2
  21809310.279     5755589.715 8  -2733264.044 9
  21700829.179   -29550245.808 8 -16670682.417 9
  23026164.808   -17614822.866 6  -8264776.548 5
  21999852.489     7061642.598 7  -3692737.941 7
 94  1 21 18 51  0.0010000  0  6  1 22 25 14 29 15
  25244783.870    17244061.782 5  18221237.730 2
  23609057.610     3393484.084 5  -1968993.433 2
  21822220.031     5823424.701 8  -2680405.635 9
  21689620.088   -29609160.120 8 -16716589.672 9
  23017218.311   -17661820.937 6  -8301398.418 5
  22014047.932     7136241.946 7  -3634608.623 7
 94  1 21 18 51 30.0010000  0  6  1 22 25 14 29 15
  25260517.248    17326802.409 5  18285710.940 2
  23594113.885     3314963.059 5  -2030178.516 2
  21835207.910     5891694.872 8  -2627208.135 9
  21678467.809   -29667762.339 8 -16762253.726 9
  23008290.612   -17708689.354 7  -8337919.253 5
  22028334.511     7211314.406 7  -3576110.649 7
 94  1 21 18 52  0.0010000  0  5 22 25 14 29 15
  23579213.150     3236639.080 5  -2091210.210 1
  21848283.658     5960398.952 8  -2573672.500 9
  21667379.415   -29726032.710 8 -16807659.207 9
  22999405.093   -17755429.856 7  -8374340.387 5
  22042705.692     7286857.278 7  -3517246.129 7
 94  1 21 18 52 30.0010000  0  5 22 25 14 29 15
  23564346.772     3158517.698 5  -2152083.956 1
  21861439.300     6029525.976 8  -2519807.304 9
  21656357.366   -29783974.946 8 -16852808.992 9
  22990533.665   -17802035.271 7  -8410656.271 5
  22057172.177     7362863.515 7  -3458020.540 7
 94  1 21 18 53  0.0010000  0  5 22 25 14 29 15
  23549512.802     3080595.533 5  -2212802.473 1
  21874663.985     6099038.406 8  -2465641.798 9
  21645388.469   -29841605.181 8 -16897715.678 9
  22981691.616   -17848529.168 6  -8446885.239 5
  22071722.604     7439320.724 7  -3398443.557 7
 94  1 21 18 53 30.0010000  0  5 22 25 14 29 15
  23534720.322     3002878.570 5  -2273361.126 1
  21887962.149     6168914.085 8  -2411193.240 9
  21634477.523   -29898932.632 8 -16942386.430 9
  22972859.011   -17894918.581 7  -8483032.833 5
  22086355.204     7516231.763 7  -3338512.932 7
 94  1 21 18 54  0.0010000  0  5 22 25 14 29 15
  23519975.060     2925360.762 4  -2333764.568 1
  21901326.387     6239134.861 8  -2356475.768 9
  21623625.845   -29955980.660 8 -16986839.441 9
  22964049.969   -17941176.418 6  -8519077.880 5
  22101077.353     7593596.412 7  -3278228.836 7
 94  1 21 18 54 30.0010000  0  5 22 25 14 29 15
  23505259.268     2848027.121 4  -2394024.487 2
  21914753.912     6309708.140 8  -2301483.624 9
  21612816.978   -30012756.049 8 -17031080.005 9
  22955278.911   -17987295.663 7  -8555014.940 5
  22115885.331     7671409.595 7  -3217595.251 7
 94  1 21 18 55  0.0010000  0  5 22 25 14 29 15
  23490581.279     2770871.157 4  -2454145.990 2
  21928255.844     6380636.602 8  -2246214.713 9
  21602065.911   -30069260.115 8 -17075109.157 9
  22946532.616   -18033277.797 6  -8590845.169 5
  22130778.931     7749668.058 7  -3156614.702 7
 94  1 21 18 55 30.0010000  0  5 22 25 14 29 15
  23475926.944     2693884.575 4  -2514135.524 2
  21941822.322     6451938.289 7  -2190654.976 8
  21591364.579   -30125488.182 7 -17118923.244 9
  22937812.733   -18079108.086 6  -8626557.068 5
  22145753.144     7828368.778 6  -3095289.509 7
 94  1 21 18 56  0.0010000  0  5 22 25 14 29 15
  23461319.107     2617064.045 5  -2573995.643 2
  21955460.841     6523616.178 8  -2134802.099 8
  21580717.180   -30181446.188 8 -17162526.892 9
  22929112.965   -18124805.013 7  -8662165.073 5
  22160806.623     7907501.938 7  -3033627.378 7
 94  1 21 18 56 30.0010000  0  5 22 25 14 29 15
  23446724.430     2540421.672 5  -2633716.940 2
  21969174.577     6595675.202 8  -2078652.237 8
  21570121.975   -30237129.205 8 -17205916.262 9
  22920437.421   -18170395.288 6  -8697689.944 5
  22175953.217     7987068.236 7  -2971627.713 7
 94  1 21 18 57  0.0010000  0  5 22 25 14 29 15
  23432174.663     2463974.916 5  -2693285.793 2
  21982957.295     6668106.809 8  -2022212.036 8
  21559577.405   -30292541.123 8 -17249094.407 9
  22911779.565   -18215889.014 6  -8733139.602 5
  22191176.648     8067065.582 7  -2909292.186 6
 94  1 21 18 57 30.0010000  0  5 22 25 14 29 15
  23417672.743     2387750.024 5  -2752681.771 2
  21996809.955     6740905.889 8  -1965485.500 8
  21549083.410   -30347678.321 8 -17292058.437 9
  22903139.127   -18261296.574 7  -8768522.126 6
  22206480.064     8147491.668 7  -2846622.576 6
 94  1 21 18 58  0.0010000  0  5 22 25 14 29 15
  23403210.125     2311770.157 4  -2811886.844 2
  22010729.199     6814062.611 7  -1908480.295 8
  21538649.853   -30402534.896 7 -17334803.832 9
  22894515.147   -18306622.804 6  -8803841.246 5
  22221866.582     8228341.085 6  -2783623.093 6
 94  1 21 18 58 30.0010000  0  5 22 25 14 29 15
  23388806.386     2236059.537 4  -2870882.090 2
  22024723.032     6887585.463 7  -1851189.787 8
  21528263.933   -30457085.690 7 -17377310.952 9
  22885902.739   -18351840.117 6  -8839075.542 5
  22237330.207     8309611.916 6  -2720295.231 6
 94  1 21 18 59  0.0010000  0  5 22 25 14 29 15
  23374460.268     2160643.328 3  -2929647.911 2
  22038787.075     6961492.236 7  -1793600.122 8
  21517953.381   -30511292.377 7 -17419549.940 9
  22877334.431   -18396911.805 6  -8874196.316 6
  22252877.923     8391315.442 6  -2656630.189 6
 94  1 21 18 59 30.0010000  0  5 22 25 14 29 15
  23360155.941     2085510.819 3  -2988192.689 2
  22052926.637     7035780.910 7  -1735712.867 8
  21507704.916   -30565143.541 7 -17461511.878 9
  22868791.245   -18441817.282 6  -8909187.601 6
  22268511.710     8473448.266 6  -2592630.651 6
 94  1 21 19  0  0.0010000  0  5 22 25 14 29 15
  23345911.961     2010637.917 2  -3046535.097 1
  22067133.951     7110445.044 7  -1677533.074 8
  21497523.484   -30618642.722 7 -17503199.560 9
  22860277.859   -18486543.560 6  -8944039.224 6
  22284220.805     8556002.438 6  -2528302.792 6
 94  1 21 19  0 30.0010000  0  4 25 14 29 15
  22081409.828     7185470.338 7  -1619071.817 8
  21487405.998   -30671794.806 7 -17544616.775 9
  22851798.139   -18531095.419 6  -8978754.973 6
  22300014.981     8638970.738 6  -2463652.270 6
 94  1 21 19  1  0.0010000  0  4 25 14 29 15
  22095751.599     7260834.183 7  -1560346.773 8
  21477354.347   -30724614.204 7 -17585774.756 9
  22843351.877   -18575489.449 6  -9013347.717 6
  22315869.385     8722349.979 6  -2398681.483 6
 94  1 21 19  1 30.0010000  0  4 25 14 29 15
  22110148.383     7336524.808 8  -1501367.075 8
  21467370.119   -30777106.426 9 -17626677.777 9
  22834937.692   -18619735.713 7  -9047825.301 6
  22331817.684     8806139.753 7  -2333390.805 6
 94  1 21 19  2  0.0010000  0  4 25 14 29 15
  22124615.767     7412532.328 8  -1442140.482 8
  21457438.744   -30829270.115 8 -17667324.814 9
  22826532.890   -18663862.585 7  -9082209.865 6
  22347839.852     8890339.288 7  -2267780.850 6
 94  1 21 19  2 30.0010000  0  4 25 14 29 15
  22139137.804     7488850.707 8  -1382671.630 8
  21447579.680   -30881101.001 9 -17707712.514 9
  22818161.396   -18707888.587 7  -9116515.828 6
  22363939.877     8974944.963 7  -2201854.410 6
 94  1 21 19  3  0.0010000  0  4 25 14 29 15
  22153720.728     7565470.457 8  -1322967.950 8
  21437774.907   -30932611.067 8 -17747850.223 9
  22809796.107   -18751821.924 7  -9150749.579 6
  22380113.530     9059944.719 7  -2135620.927 6
 94  1 21 19  3 30.0010000  0  4 25 14 29 15
  22168357.166     7642397.995 8  -1263024.452 8
  21428036.059   -30983797.291 9 -17787735.601 9
  22801454.232   -18795660.430 7  -9184909.463 6
  22396361.382     9145334.914 7  -2069083.171 6
 94  1 21 19  4  0.0010000  0  4 25 14 29 15
  22183058.448     7719660.734 8  -1202819.743 8
  21418360.168   -31034636.058 9 -17827350.207 9
  22793134.271   -18839389.984 7  -9218984.417 6
  22412689.578     9231123.650 7  -2002234.879 6
 94  1 21 19  4 30.0010000  0  4 25 14 29 15
  22197829.762     7797270.663 8  -1142344.516 8
  21408754.997   -31085127.295 9 -17866694.022 9
  22784834.038   -18882988.984 7  -9252957.653 6
  22429090.504     9317304.026 7  -1935081.387 6
 94  1 21 19  5  0.0010000  0  4 25 14 29 15
  22212662.384     7875221.680 8  -1081603.492 8
  21399210.025   -31135270.542 9 -17905766.686 9
  22776566.961   -18926449.062 7  -9286822.653 6
  22445562.331     9403872.095 7  -1867625.834 6
 94  1 21 19  5 30.0010000  0  4 25 14 29 15
  22227563.928     7953521.937 8  -1020590.334 8
  21389737.063   -31185055.016 9 -17944559.782 9
  22768323.268   -18969774.558 7  -9320582.771 6
  22462107.906     9490823.785 7  -1799871.339 6
 94  1 21 19  6  0.0010000  0  4 25 14 29 15
  22242533.794     8032174.987 8   -959302.297 8
  21380333.593   -31234485.083 9 -17983076.711 9
  22760103.378   -19012967.741 7  -9354239.807 6
  22478724.713     9578152.018 7  -1731823.437 6
 94  1 21 19  6 30.0010000  0  4 25 14 29 15
  22257564.129     8111177.561 8   -897741.860 8
  21370987.143   -31283583.016 9 -18021334.836 9
  22751906.153   -19056021.642 7  -9387788.291 6
  22495416.947     9665852.051 7  -1663485.810 6
 94  1 21 19  7  0.0010000  0  4 25 14 29 15
  22272660.658     8190520.645 8   -835916.131 8
  21361708.987   -31332342.814 9 -18059329.475 9
  22743735.819   -19098958.896 7  -9421245.902 6
  22512173.577     9753917.393 7  -1594863.517 6
 94  1 21 19  7 30.0010000  0  4 25 14 29 15
  22287827.938     8270217.411 8   -773814.807 8
  21352494.386   -31380761.176 9 -18097058.065 9
  22735584.852   -19141785.626 7  -9454617.377 6
  22529000.777     9842345.271 7  -1525958.772 6
 94  1 21 19  8  0.0010000  0  4 25 14 29 15
  22303061.502     8350256.061 8   -711447.034 8
  21343346.968   -31428844.871 9 -18134525.871 9
  22727459.997   -19184494.477 7  -9487897.004 6
  22545898.339     9931134.420 7  -1456772.499 6
 94  1 21 19  8 30.0010000  0  4 25 14 29 15
  22318351.157     8430617.678 8   -648827.647 8
  21334254.863   -31476589.256 8 -18171729.272 9
  22719356.097   -19227091.712 7  -9521089.651 6
  22562862.245    10020282.286 7  -1387306.690 6
 94  1 21 19  9  0.0010000  0  5 22 25 14 29 15
  23097685.065     3909746.99214    -43650.885
  22333698.103     8511279.850 8   -585974.034 8
  21325243.011   -31523982.264 9 -18208658.889 9
  22711263.230   -19269584.780 7  -9554201.149 6
  22579891.536    10109786.907 7  -1317562.914 6
 94  1 21 19  9 30.0010000  0  5 22 25 14 29 15
  23084401.112     3839957.294 5    -98032.261
  22349103.238     8592228.511 8   -522897.198 8
  21316288.990   -31571048.216 9 -18245333.652 9
  22703204.778   -19311962.644 7  -9587222.869 6
  22596990.979    10199643.139 7  -1247545.150 6
 94  1 21 19 10  0.0010000  0  5 22 25 14 29 15
  23071180.774     3770469.059 5   -152178.829
  22364562.186     8673450.550 8   -459607.412 7
  21307392.589   -31617793.473 9 -18281758.611 9
  22695161.257   -19354220.865 7  -9620151.451 6
  22614158.654    10289847.109 7  -1177256.477 6
 94  1 21 19 10 30.0010000  0  5 22 25 14 29 15
  23058015.328     3701267.503 5   -206101.877 1
  22380072.638     8754947.174 8   -396103.504 7
  21298554.947   -31664201.281 9 -18317920.430 9
  22687141.898   -19396374.521 7  -9652998.341 6
  22631390.334    10380396.827 7  -1106698.244 6
 94  1 21 19 11  0.0010000  0  5 22 25 14 29 15
  23044897.969     3632342.010 5   -259810.061 1
  22395636.004     8836732.874 8   -332374.437 8
  21289795.611   -31710254.367 9 -18353805.956 9
  22679140.198   -19438418.391 7  -9685759.794 6
  22648686.021    10471296.159 7  -1035867.669 6
 94  1 21 19 11 30.0010000  0  5 22 25 14 29 15
  23031831.725     3563688.712 5   -313306.067 2
  22411251.084     8918815.365 8   -268414.083 8
  21281101.630   -31755944.036 9 -18389408.290 9
  22671164.190   -19480355.689 7  -9718438.216 6
  22666051.889    10562540.687 7   -964768.095 6
 94  1 21 19 12  0.0010000  0  5 22 25 14 29 15
  23018816.925     3495305.428 6   -366591.639 2
  22426928.670     9001197.420 8   -204220.305 8
  21272477.830   -31801245.054 9 -18424707.779 9
  22663192.498   -19522198.362 7  -9751042.888 6
  22683481.103    10654125.817 6   -893403.157 6
 94  1 21 19 12 30.0010000  0  5 22 25 14 29 15
  23005867.509     3427231.837 5   -419635.947 2
  22442663.337     9083883.137 8   -139789.964 7
  21263936.833   -31846128.091 9 -18459681.589 9
  22655254.624   -19563936.440 7  -9783566.057 6
  22700976.061    10746057.163 7   -821768.422 6
 94  1 21 19 13  0.0010000  0  5 22 25 14 29 15
  22992975.115     3359476.130 5   -472432.520 2
  22458457.154     9166866.293 8    -75127.803 7
  21255475.161   -31890606.032 9 -18494339.709 9
  22647333.357   -19605551.802 7  -9815993.602 7
  22718532.837    10838326.969 7   -749869.923 6
 94  1 21 19 13 30.0010000  0  5 22 25 14 29 15
  22980140.190     3292059.584 5   -524964.805 2
  22474302.984     9250140.546 7    -10238.829 7
  21247090.865   -31934688.170 9 -18528689.427 9
  22639445.938   -19647026.702 7  -9848311.678 7
  22736151.999    10930930.547 7   -677711.371 6
 94  1 21 19 14  0.0010000  0  5 22 25 14 29 15
  22967380.363     3224996.199 6   -577221.900 3
  22490204.575     9333706.114 7     54877.156 7
  21238775.941   -31978374.828 9 -18562730.968 9
  22631575.666   -19688359.790 7  -9880519.260 7
  22753839.575    11023863.871 7   -605295.870 5
 94  1 21 19 14 30.0010000  0  5 22 25 14 29 15
  22954688.620     3158277.524 6   -629210.414 3
  22506159.500     9417545.860 8    120206.770 7
  21230529.670   -32021679.260 8 -18596474.676 9
  22623741.250   -19729549.663 7  -9912615.257 7
  22771585.310    11117118.649 7   -532629.864 5
 94  1 21 19 15  0.0010000  0  5 22 25 14 29 15
  22942052.308     3091888.379 6   -680942.139 3
  22522166.589     9501655.602 8    185746.760 7
  21222357.897   -32064624.883 9 -18629938.804 9
  22615931.686   -19770596.910 7  -9944600.101 7
  22789390.283    11210688.579 6   -459718.328 5
 94  1 21 19 15 30.0010000  0  5 22 25 14 29 15
  22929482.610     3025837.689 6   -732410.142 3
  22538218.346     9586037.139 7    251498.538 7
  21214257.385   -32107206.139 9 -18663119.006 9
  22608143.018   -19811517.129 7  -9976485.958 7
  22807255.366    11304572.977 6   -386561.729 5
 94  1 21 19 16  0.0010000  0  5 22 25 14 29 15
  22916973.469     2960117.755 6   -783620.430 4
  22554330.392     9670689.587 7    317461.458 7
  21206231.312   -32149403.363 9 -18695999.951 9
  22600379.203   -19852325.597 7 -10008284.741 7
  22825179.597    11398770.192 7   -313161.387 5
 94  1 21 19 16 30.0010000  0  5 22 25 14 29 15
  22904537.689     2894733.833 7   -834568.907 4
  22570490.824     9755620.852 7    383641.590 7
  21198274.880   -32191212.495 9 -18728578.501 9
  22592632.326   -19893008.340 7 -10039985.555 7
  22843169.933    11493282.911 7   -239515.195 5
 94  1 21 19 17  0.0010000  0  5 22 25 14 29 15
  22892161.117     2829698.110 7   -885246.082 4
  22586708.757     9840843.370 7    450048.680 7
  21190387.820   -32232625.056 9 -18760848.021 9
  22584915.458   -19933566.104 7 -10071588.995 7
  22861209.224    11588107.526 6   -165625.935 5
 94  1 21 19 17 30.0010000  0  5 22 25 14 29 15
  22879845.493     2765012.603 6   -935650.320 4
  22602985.089     9926361.364 7    516686.011 7
  21182584.852   -32273612.481 9 -18792786.276 9
  22577223.144   -19974005.000 7 -10103099.818 7
  22879312.282    11683240.758 6    -91496.250 5
 94  1 21 19 18  0.0010000  0  5 22 25 14 29 15
  22867604.067     2700673.050 6   -985785.018 4
  22619311.966    10012167.424 7    583547.819 7
  21174869.393   -32314182.635 9 -18824399.373 9
  22569546.988   -20014318.023 7 -10134512.547 7
  22897476.527    11778674.775 6    -17132.164 5
 94  1 21 19 18 30.0010000  0  5 22 25 14 29 15
  22855435.221     2636690.266 6  -1035641.681 5
  22635694.934    10098259.662 7    650632.628 7
  21167229.212   -32354352.418 9 -18855700.504 9
  22561906.027   -20054502.795 7 -10165825.354 7
  22915691.977    11874411.234 6     57467.626 5
 94  1 21 19 19  0.0010000  0  5 22 25 14 29 15
  22843321.927     2573049.235 6  -1085232.063 5
  22652130.816    10184620.933 7    717927.090 7
  21159662.241   -32394131.049 9 -18886696.825 9
  22554272.412   -20094584.710 7 -10197058.004 7
  22933967.385    11970436.823 6    132292.675 5
 94  1 21 19 19 30.0010000  0  6 22 25 14 18 29 15
  22831274.228     2509743.817 6  -1134560.939 5
  22668610.078    10271236.566 7    785419.725 7
  21152163.442   -32433532.616 9 -18917399.353 9
  25150809.757    13208164.76615  -1718751.480 1
  22546665.628   -20134570.002 7 -10228215.378 7
  22952289.261    12066745.103 6    207338.014 5
 94  1 21 19 20  0.0010000  0  6 22 25 14 18 29 15
  22819293.082     2446779.334 6  -1183624.112 5
  22685137.366    10358095.970 7    853102.343 7
  21144728.589   -32472569.552 9 -18947817.723 9
  25137378.275    13137671.541 5  -1773681.251 1
  22539075.962   -20174462.778 8 -10259300.655 7
  22970675.322    12163330.446 6    282599.230 5
 94  1 21 19 20 30.0010000  0  6 22 25 14 18 29 15
  22807373.964     2384163.434 6  -1232415.682 6
  22701716.009    10445209.084 7    920982.650 7
  21137376.958   -32511207.988 9 -18977925.611 9
  25123982.169    13067214.340 5  -1828582.921 1
  22531503.265   -20214265.394 8 -10290315.687 7
  22989104.254    12260200.314 6    358082.156 5
 94  1 21 19 21  0.0010000  0  6 22 25 14 18 29 15
  22795530.423     2321907.689 6  -1280926.602 6
  22718340.730    10532569.721 7    989055.835 7
  21130102.944   -32549428.218 8 -19007707.591 9
  25110578.898    12996797.698 4  -1883453.002 1
  22523950.474   -20253970.444 8 -10321254.684 7
  23007592.335    12357352.238 6    433784.898 5
 94  1 21 19 21 30.0010000  0  6 22 25 14 18 29 15
  22783755.414     2260039.746 6  -1329135.350 6
  22735012.668    10620173.840 7   1057318.744 7
  21122912.032   -32587221.267 9 -19037156.724 9
  25097179.044    12926423.648 4  -1938289.813 2
  22516412.252   -20293561.023 8 -10352104.499 7
  23026134.619    12454789.334 6    509709.829 5
 94  1 21 19 22  0.0010000  0  6 22 25 14 18 29 15
  22772054.245     2198561.794 6  -1377040.221 5
  22751726.368    10708014.162 7   1125765.715 7
  21115807.341   -32624579.723 9 -19066267.221 9
  25083814.746    12856093.511 4  -1993092.439 2
  22508898.254   -20333044.556 8 -10382870.889 7
  23044730.295    12552506.227 6    585852.775 5
 94  1 21 19 22 30.0010000  0  6 22 25 14 18 29 15
  22760430.212     2137476.333 7  -1424639.183 5
  22768486.175    10796086.173 7   1194393.225 7
  21108778.107   -32661514.984 9 -19095047.927 9
  25070431.921    12785812.906 4  -2047856.525 2
  22501410.368   -20372412.296 8 -10413547.036 7
  23063375.737    12650498.701 6    662210.454 5
 94  1 21 19 23  0.0010000  0  6 22 25 14 18 29 15
  22748887.183     2076791.955 7  -1471925.660 5
  22785289.992    10884387.746 7   1263199.611 6
  21101827.689   -32698045.716 9 -19123513.438 9
  25057057.070    12715568.344 4  -2102592.470 2
  22493945.356   -20411653.181 8 -10444124.356 7
  23082075.682    12748762.596 6    738779.639 5
 94  1 21 19 23 30.0010000  0  6 22 25 14 18 29 15
  22737409.449     2016485.620 6  -1518917.523 5
  22802139.198    10972928.933 7   1332192.705 6
  21094954.467   -32734177.041 9 -19151667.712 9
  25043702.545    12645350.256 4  -2157307.802 2
  22486495.663   -20450782.442 8 -10474614.674 7
  23100826.501    12847286.068 6    815551.123 5
 94  1 21 19 24  0.0010000  0  6 22 25 14 18 29 15
  22726003.635     1956550.899 7  -1565619.822 5
  22819036.820    11061723.621 7   1401383.325 6
  21088153.555   -32769904.997 9 -19179507.689 9
  25030320.080    12575156.915 3  -2212003.924 2
  22479069.594   -20489800.003 7 -10505017.974 7
  23119622.528    12946064.466 6    892521.226 4
 94  1 21 19 24 30.0010000  0  6 22 25 14 18 29 15
  22714673.519     1896995.850 7  -1612026.288 5
  22835981.179    11150771.244 7   1470771.053 6
  21081427.711   -32805220.058 9 -19207025.912 9
  25016986.121    12504990.284 3  -2266679.157 2
  22471667.328   -20528686.227 8 -10535318.920 7
  23138467.123    13045092.722 6    969686.027 4
 94  1 21 19 25  0.0010000  0  6 22 25 14 18 29 15
  22703409.057     1837814.959 7  -1658141.191 5
  22852972.786    11240061.818 7   1540348.077 6
  21074790.636   -32840110.459 9 -19234213.236 9
  25003640.920    12434852.230 4  -2321332.184 2
  22464292.734   -20567441.870 7 -10565518.126 7
  23157359.624    13144366.792 6   1047042.380 4
 94  1 21 19 25 30.0010000  0  6 22 25 14 18 29 15
  22692217.715     1779009.116 7  -1703963.849 5
  22870001.328    11329579.918 7   1610102.421 6
  21068231.297   -32874577.816 9 -19261070.918 9
  24990294.939    12364744.422 4  -2375961.660 2
  22456942.632   -20606065.272 8 -10595614.273 7
  23176295.774    13243880.144 6   1124585.161 4
 94  1 21 19 26  0.0010000  0  6 22 25 14 18 29 15
  22681098.712     1720589.606 7  -1749485.454 6
  22887082.333    11419296.851 7   1680011.660 6
  21061749.005   -32908624.401 9 -19287600.716 9
  24976972.881    12294662.730 5  -2430570.828 2
  22449621.580   -20644541.459 8 -10625595.714 7
  23195275.665    13343626.571 6   1202309.574 4
 94  1 21 19 26 30.0010000  0  6 22 25 14 18 29 15
  22670058.465     1662550.621 7  -1794710.568 6
  22904189.869    11509200.408 7   1750066.350 6
  21055352.093   -32942247.658 8 -19313800.672 9
  24963635.894    12224613.042 5  -2485155.050 2
  22442331.347   -20682868.769 8 -10655461.126 7
  23214303.252    13443605.634 6   1280215.248 4
 94  1 21 19 27  0.0010000  0  6 22 25 14 18 29 15
  22659086.871     1604886.396 7  -1839643.656 6
  22921331.822    11599295.410 7   1820270.201 6
  21049033.218   -32975461.986 8 -19339681.967 9
  24950325.769    12154599.561 5  -2539711.021 2
  22435059.611   -20721070.207 8 -10685228.461 7
  23233366.575    13543816.435 6   1358301.518 4
 94  1 21 19 27 30.0010000  0  6 22 25 14 18 29 15
  22648184.228     1547619.561 7  -1884267.073 6
  22938515.686    11689599.734 7   1890637.148 6
  21042787.401   -33008251.166 9 -19365231.971 9
  24936999.874    12084625.556 5  -2594236.275 2
  22427816.686   -20759148.258 8 -10714899.661 7
  23252484.490    13644262.496 6   1436571.104 4
 94  1 21 19 28  0.0010000  0  6 22 25 14 18 29 15
  22637366.577     1490750.066 7  -1928580.914 6
  22955745.268    11780122.592 7   1961174.409 6
  21036635.690   -33040609.423 9 -19390446.206 9
  24923685.761    12014692.232 5  -2648729.831 2
  22420585.692   -20797110.922 8 -10744480.940 7
  23271644.316    13744939.249 6   1515020.470 4
 94  1 21 19 28 30.0010000  0  6 22 25 14 18 29 15
  22626620.097     1434283.728 7  -1972580.616 6
  22973015.382    11870885.051 7   2031898.347 6
  21030560.096   -33072547.496 9 -19415333.014 9
  24910390.685    11944805.294 5  -2703187.207 2
  22413381.619   -20834986.762 8 -10773994.568 7
  23290840.447    13845842.112 6   1593645.995 4
 94  1 21 19 29  0.0010000  0  6 22 25 14 18 29 15
  22615954.231     1378242.687 7  -2016248.894 6
  22990334.513    11961892.154 7   2102812.924 6
  21024564.247   -33104050.413 9 -19439880.737 9
  24897099.956    11874970.417 5  -2757604.038 2
  22406193.855   -20872782.872 8 -10803446.062 7
  23310084.904    13946974.523 6   1672450.413 4
 94  1 21 19 29 30.0010000  0  6 22 25 14 18 29 15
  22605371.767     1322623.123 7  -2059588.771 6
  23007694.535    12053131.538 7   2173908.497 6
  21018652.130   -33135104.970 8 -19464079.102 9
  24883828.984    11805172.759 5  -2811991.829 2
  22399016.703   -20910492.907 8 -10832830.481 7
  23329376.129    14048329.781 6   1751428.436 4
 94  1 21 19 30  0.0010000  0  6 22 25 14 18 29 15
  22594864.311     1267410.884 7  -2102611.247 6
  23025096.527    12144591.951 7   2245176.308 6
  21012829.351   -33165725.391 9 -19487939.181 9
  24870551.895    11735402.855 5  -2866357.999 2
  22391852.053   -20948129.705 8 -10862157.830 7
  23348705.158    14149903.095 6   1830576.380 4
 94  1 21 19 30 30.0010000  0  6 22 25 14 18 29 15
  22584443.555     1212617.850 7  -2145307.117 6
  23042543.639    12236271.364 7   2316614.775 6
  21007090.694   -33195884.453 9 -19511439.740 9
  24857278.404    11665682.278 5  -2920685.684 2
  22384702.993   -20985676.298 8 -10891414.899 8
  23368081.704    14251713.311 6   1909908.957 4
 94  1 21 19 31  0.0010000  0  6 22 25 14 18 29 15
  22574086.175     1158210.400 7  -2187702.495 6
  23060021.779    12328115.375 7   2388181.490 6
  21001436.158   -33225592.527 9 -19534588.882 9
  24844006.053    11595981.006 5  -2974998.351 2
  22377577.106   -21023134.025 8 -10920602.715 8
  23387495.094    14353732.385 6   1989404.302 4
 94  1 21 19 31 30.0010000  0  6 22 25 14 18 29 15
  22563804.163     1104187.404 7  -2229798.300 6
  23077536.044    12420127.938 7   2459879.548 6
  20995865.775   -33254860.900 9 -19557395.420 9
  24830736.039    11526290.352 5  -3029302.692 2
  22370473.044   -21060483.413 8 -10949706.110 8
  23406944.969    14455953.045 6   2069056.679 4
 94  1 21 19 32  0.0010000  0  6 22 25 14 18 29 15
  22553602.646     1050570.735 7  -2271577.465 6
  23095074.413    12512311.069 7   2531710.516 6
  20990378.823   -33283688.799 9 -19579858.698 9
  24817491.418    11456618.522 5  -3083592.425 2
  22363389.308   -21097715.751 8 -10978718.305 8
  23426431.209    14558378.422 6   2148868.601 4
 94  1 21 19 32 30.0020000  0  6 22 25 14 18 29 15
  22543474.997      997374.590 7  -2313028.991 6
  23112653.673    12604676.724 7   2603683.703 6
  20984982.709   -33312059.398 9 -19601965.651 9
  24804237.024    11386974.834 5  -3137860.151 2
  22356327.846   -21134803.306 8 -11007617.663 8
  23445964.247    14661013.550 6   2228843.925 4
 94  1 21 19 33  0.0020000  0  6 22 25 14 18 29 15
  22533437.226      944618.785 7  -2354137.379 6
  23130264.111    12697228.837 7   2675802.202 6
  20979671.286   -33339985.347 9 -19623726.127 9
  24791005.984    11317346.347 5  -3192116.055 2
  22349296.274   -21171747.445 8 -11036405.282 8
  23465531.970    14763837.067 6   2308966.068 4
 94  1 21 19 33 30.0020000  0  6 22 25 14 18 29 15
  22523485.645      892319.522 7  -2394890.030 6
  23147919.819    12789996.634 7   2748088.767 6
  20974440.117   -33367465.778 9 -19645139.445 9
  24777749.251    11247733.091 5  -3246360.165 2
  22342298.609   -21208550.376 8 -11065082.869 8
  23485138.607    14866855.485 6   2389240.092 4
 94  1 21 19 34  0.0020000  0  6 22 25 14 18 29 15
  22513622.234      840482.738 7  -2435282.308 6
  23165608.473    12882974.843 7   2820539.288 6
  20969297.208   -33394472.194 8 -19666183.396 9
  24764505.649    11178148.258 5  -3300582.058 2
  22335317.312   -21245217.282 8 -11093654.469 8
  23504780.259    14970066.023 6   2469663.784 4
 94  1 21 19 34 30.0020000  0  6 22 25 14 18 29 15
  22503842.644      789095.572 7  -2475324.216 6
  23183340.028    12976156.764 7   2893148.537 6
  20964250.681   -33421007.462 9 -19686860.214 9
  24751272.481    11108593.804 5  -3354780.344 2
  22328367.133   -21281761.012 8 -11122130.073 8
  23524454.049    15073451.307 6   2550223.707 4
 94  1 21 19 35  0.0020000  0  6 22 25 14 18 29 15
  22494152.482      738173.498 7  -2515003.728 6
  23201116.251    13069547.583 7   2965920.575 6
  20959290.315   -33447065.319 9 -19707165.021 9
  24738049.535    11039080.407 5  -3408946.630 2
  22321435.602   -21318178.852 8 -11150507.599 8
  23544157.939    15177017.277 6   2630924.427 4
 94  1 21 19 35 30.0020000  0  6 22 25 14 18 29 15
  22484554.207      687711.404 7  -2554324.809 6
  23218922.814    13163150.512 7   3038857.879 6
  20954425.343   -33472622.936 9 -19727080.042 9
  24724829.737    10969632.034 5  -3463062.268 2
  22314529.013   -21354461.455 8 -11178779.744 8
  23563904.548    15280777.239 6   2711776.245 4
 94  1 21 19 36  0.0020000  0  6 22 25 14 18 29 15
  22475036.456      637704.146 7  -2593291.460 6
  23236770.748    13256948.421 7   3111947.153 6
  20949657.444   -33497685.595 9 -19746609.370 9
  24711621.420    10900260.754 5  -3517117.837 2
  22307646.108   -21390617.481 8 -11206953.228 8
  23583683.745    15384724.670 6   2792774.192 4
 94  1 21 19 36 30.0020000  0  6 22 25 14 18 29 15
  22465603.516      588142.637 7  -2631910.796 6
  23254659.154    13350928.841 7   3185178.626 6
  20944974.356   -33522291.718 8 -19765782.960 9
  24698437.478    10830946.274 5  -3571129.099 2
  22300789.255   -21426667.033 8 -11235043.774 8
  23603495.890    15488851.392 6   2873911.859 4
 94  1 21 19 37  0.0020000  0  6 22 25 14 18 29 15
  22456254.309      539024.157 7  -2670184.901 6
  23272574.602    13445084.218 7   3258546.426 6
  20940377.968   -33546442.242 8 -19784601.541 9
  24685250.507    10761671.571 4  -3625109.407 2
  22293949.910   -21462609.672 8 -11263050.993 8
  23623348.746    15593154.793 6   2955187.123 4
 94  1 21 19 37 30.0020000  0  6 22 25 14 18 29 15
  22446994.019      490348.192 7  -2708114.183 6
  23290524.495    13539406.031 7   3332043.908 6
  20935869.989   -33570128.504 8 -19803058.359 9
  24672075.707    10692431.774 4  -3679062.498 2
  22287129.901   -21498458.526 8 -11290985.139 8
  23643234.579    15697628.864 6   3036595.459 3
 94  1 21 19 38  0.0020000  0  6 22 25 14 18 29 15
  22437817.402      442123.644 7  -2745691.724 6
  23308501.730    13633894.464 7   3405671.232 6
  20931451.198   -33593354.558 8 -19821156.573 9
  24658904.416    10623220.092 4  -3732993.680 2
  22280324.582   -21534208.567 8 -11318842.292 8
  23663136.362    15802269.079 6   3118133.223 3
 94  1 21 19 38 30.0020000  0  6 22 25 14 18 29 15
  22428725.057      394344.090 7  -2782922.526 6
  23326513.501    13728537.512 6   3479419.035 6
  20927119.107   -33616114.400 8 -19838891.498 9
  24645734.803    10554019.007 4  -3786916.598 2
  22273538.870   -21569854.885 8 -11346618.603 8
  23683081.944    15907065.814 6   3199792.968 3
 94  1 21 19 39  0.0020000  0  6 22 25 14 18 29 15
  22419717.163      347018.393 7  -2819799.669 6
  23344554.381    13823342.129 7   3553292.729 6
  20922882.830   -33638386.198 8 -19856246.143 9
  24632574.543    10484851.152 4  -3840813.655 2
  22266781.608   -21605377.524 8 -11374298.560 8
  23703056.935    16012023.587 6   3281578.173 3
 94  1 21 19 39 30.0020000  0  6 22 25 14 18 29 15
  22410798.907      300145.671 7  -2856323.851 6
  23362626.380    13918292.704 7   3627280.153 5
  20918733.612   -33660189.377 8 -19873235.630 9
  24619411.136    10415718.964 4  -3894682.909 2
  22260044.612   -21640783.003 8 -11401887.229 8
  23723055.161    16117130.840 6   3363479.878 3
 94  1 21 19 40  0.0020000  0  6 22 25 14 18 29 15
  22401972.567      253732.285 7  -2892490.073 6
  23380719.575    14013402.028 6   3701391.265 5
  20914673.703   -33681526.840 8 -19889862.220 9
  24606261.909    10346627.281 4  -3948520.538 2
  22253331.449   -21676050.233 8 -11429368.167 8
  23743089.241    16222388.700 6   3445498.913 3
 94  1 21 19 40 30.0020000  0  6 22 25 14 18 29 15
  22393225.852      207795.034 7  -2928285.307 6
  23398850.933    14108672.745 6   3775628.164 5
  20910707.089   -33702393.420 9 -19906121.873 9
  24593120.717    10277583.943 4  -4002320.533 2
  22246648.056   -21711179.310 8 -11456741.432 8
  23763145.507    16327794.625 5   3527633.371 3
 94  1 21 19 41  0.0020000  0  6 22 25 14 18 29 15
  22384575.131      162342.043 7  -2963703.169 6
  23417013.859    14204117.967 6   3850001.046 5
  20906823.008   -33722785.575 9 -19922011.861 9
  24580004.347    10208596.523 5  -4056076.929 2
  22239990.145   -21746178.278 8 -11484013.327 8
  23783226.175    16433351.037 5   3609885.009 3
 94  1 21 19 41 30.0020000  0  6 22 25 14 18 29 15
  22376021.093      117378.859 7  -2998739.390 6
  23435208.173    14299739.889 6   3924511.609 5
  20903035.220   -33742698.659 9 -19937528.545 9
  24566893.763    10139657.943 5  -4109795.303 2
  22233348.183   -21781057.294 8 -11511191.748 8
  23803346.566    16539052.112 6   3692249.465 3
 94  1 21 19 42  0.0020000  0  6 22 25 14 18 29 15
  22367555.883       72897.951 7  -3033399.803 6
  23453442.390    14395536.580 7   3999158.348 5
  20899338.629   -33762119.815 8 -19952661.902 9
  24553777.484    10070764.420 5  -4163478.544 2
  22226732.783   -21815827.321 8 -11538285.250 8
  23823484.645    16644891.312 5   3774721.437 4
 94  1 21 19 42 30.0020000  0  6 22 25 14 18 29 15
  22359175.665       28883.444 7  -3067696.795 6
  23471700.440    14491485.224 7   4073923.475 5
  20895738.331   -33781041.832 8 -19967406.329 9
  24540675.654    10001909.667 5  -4217131.559 2
  22220136.480   -21850508.632 8 -11565309.624 8
  23843654.981    16750862.948 6   3857296.658 4
 94  1 21 19 43  0.0020000  0  6 22 25 14 18 29 15
  22350892.549      -14672.253 7  -3101636.241 6
  23489988.559    14587584.286 6   4148805.803 5
  20892233.608   -33799454.550 8 -19981753.893 9
  24527575.833     9933090.287 5  -4270757.005 2
  22213551.598   -21885093.003 8 -11592258.443 8
  23863846.453    16856968.630 6   3939976.344 4
 94  1 21 19 43 30.0020000  0  6 22 25 14 18 29 15
  22342694.425      -57764.210 7  -3135214.396 6
  23508299.913    14683829.912 6   4223802.364 5
  20888824.158   -33817361.792 8 -19995707.589 9
  24514490.252     9864303.732 5  -4324356.879 2
  22206988.782   -21919573.024 8 -11619125.967 8
  23884058.400    16963204.808 5   4022757.744 4
 94  1 21 19 44  0.0020000  0  6 22 25 14 18 29 15
  22334576.524     -100395.739 7  -3168433.744 6
  23526639.986    14780223.630 6   4298914.315 5
  20885515.229   -33834762.028 8 -20009266.220 9
  24501400.144     9795545.955 5  -4377934.333 2
  22200454.115   -21953930.266 8 -11645897.807 8
  23904294.661    17069568.363 5   4105638.389 4
 94  1 21 19 44 30.0020000  0  6 22 25 14 18 29 15
  22326555.487     -142552.611 7  -3201283.228 6
  23545012.107    14876768.172 6   4374143.802 5
  20882296.147   -33851673.344 8 -20022443.843 9
  24488329.133     9726811.918 5  -4431493.231 2
  22193939.685   -21988168.795 8 -11672577.151 8
  23924564.289    17176050.528 6   4188611.371 4
 94  1 21 19 45  0.0020000  0  6 22 25 14 18 29 15
  22318626.906     -184211.627 7  -3233744.743 6
  23563413.788    14973464.666 6   4449491.671 5
  20879166.344   -33868113.030 8 -20035253.992 9
  24475260.490     9658105.600 5  -4485030.526 3
  22187445.101   -22022282.473 8 -11699159.204 8
  23944849.775    17282645.394 6   4271672.249 4
 94  1 21 19 45 30.0020000  0  6 22 25 14 18 29 15
  22310801.543     -225349.168 7  -3265799.964 6
  23581846.677    15070322.492 6   4524965.245 5
  20876132.055   -33884067.694 8 -20047686.191 9
  24462180.365     9589433.241 5  -4538541.419 3
  22180977.619   -22056263.604 8 -11725637.991 8
  23965160.175    17389359.216 6   4354825.859 4
 94  1 21 19 46  0.0020000  0  6 22 25 14 18 29 15
  22303080.269     -265935.342 7  -3297425.534 6
  23600309.875    15167350.040 6   4600571.057 5
  20873193.279   -33899517.910 8 -20059725.321 9
  24449116.789     9520808.146 5  -4592015.410 3
  22174540.685   -22090106.071 8 -11752008.705 8
  23985487.602    17496204.587 6   4438081.885 4
 94  1 21 19 46 30.0020000  0  6 22 25 14 18 29 15
  22295456.667     -305966.221 7  -3328618.402 6
  23618799.875    15264518.684 6   4676286.826 5
  20870347.799   -33914460.283 9 -20071368.721 9
  24436082.292     9452235.766 5  -4645448.338 3
  22168125.816   -22123822.730 8 -11778281.409 8
  24005842.731    17603178.440 5   4521438.094 4
 94  1 21 19 47  0.0020000  0  6 22 25 14 18 29 15
  22287942.069     -345460.124 7  -3359392.852 6
  23637309.061    15361819.322 6   4752105.430 5
  20867605.208   -33928876.648 8 -20082602.263 9
  24423038.622     9383708.613 5  -4698846.021 3
  22161735.320   -22157405.777 8 -11804450.003 8
  24026223.582    17710278.503 5   4604892.600 3
 94  1 21 19 47 30.0020000  0  6 22 25 14 18 29 15
  22280530.060     -384434.494 7  -3389762.438 6
  23655858.150    15459254.030 6   4828028.551 5
  20864959.119   -33942769.000 8 -20093427.459 9
  24410003.406     9315215.799 5  -4752216.920 2
  22155365.719   -22190863.159 8 -11830520.656 8
  24046626.977    17817494.395 5   4688437.402 3
 94  1 21 19 48  0.0020000  0  6 22 25 14 18 29 15
  22273205.411     -422901.361 7  -3419736.579 6
  23674426.096    15556810.649 6   4904046.645 5
  20862413.282   -33956140.889 8 -20103847.100 9
  24396969.659     9246773.825 5  -4805548.222 2
  22149024.659   -22224184.999 8 -11856485.695 8
  24067049.199    17924826.361 6   4772072.627 3
 94  1 21 19 48 30.0020000  0  6 22 25 14 18 29 15
  22265983.770     -460874.779 7  -3449326.207 6
  23693012.359    15654491.278 6   4980161.351 5
  20859971.862   -33968988.280 8 -20113858.043 9
  24383967.810     9178386.963 5  -4858836.589 2
  22142712.679   -22257354.409 8 -11882331.977 8
  24087501.070    18032271.639 5   4855796.151 3
 94  1 21 19 49  0.0020000  0  6 22 25 14 18 29 15
  22258846.491     -498359.653 7  -3478535.164 6
  23711631.449    15752320.096 6   5056391.529 5
  20857627.725   -33981315.663 8 -20123463.784 9
  24370956.458     9110039.789 5  -4912093.995 2
  22136431.427   -22290369.335 8 -11908057.859 9
  24107958.997    18139822.653 5   4939602.101 3
 94  1 21 19 49 30.0020000  0  6 22 25 14 18 29 15
  22251812.701     -535341.430 8  -3507352.111 6
  23730267.718    15850289.534 6   5132731.287 5
  20855379.131   -33993124.106 8 -20132665.166 9
  24357961.624     9041736.942 5  -4965316.892 2
  22130177.937   -22323218.049 8 -11933654.240 9
  24128453.589    18247476.286 6   5023487.997 3
 94  1 21 19 50  0.0020000  0  6 22 25 14 18 29 15
  22244869.747     -571818.819 7  -3535776.010 6
  23748935.374    15948388.428 6   5209171.942 5
  20853232.767   -34004406.492 8 -20141456.618 9
  24344965.081     8973483.282 5  -5018501.502 2
  22123958.652   -22355902.877 8 -11959122.925 9
  24148959.573    18355223.606 6   5107446.900 3
 94  1 21 19 50 30.0020000  0  6 22 25 14 18 29 15
  22238025.006     -607792.197 7  -3563807.143 6
  23767632.291    16046627.898 6   5285722.127 5
  20851185.065   -34015163.519 8 -20149838.702 9
  24331987.815     8905272.206 5  -5071652.857 2
  22117770.576   -22388445.633 8 -11984480.893 9
  24169478.388    18463053.440 5   5191470.086 3
 94  1 21 19 51  0.0020000  0  6 22 25 14 18 29 15
  22231274.999     -643247.765 7  -3591434.826 6
  23786351.601    16144998.882 6   5362374.795 5
  20849236.684   -34025407.101 8 -20157820.700 9
  24319015.196     8837103.680 5  -5124771.076 2
  22111600.188   -22420863.146 8 -12009741.261 9
  24190001.970    18570954.258 4   5275548.546 3
 94  1 21 19 51 30.0020000  0  6 22 25 14 18 29 15
  22224628.090     -678179.718 7  -3618654.507 6
  23805091.898    16243480.009 6   5439113.313 5
  20847383.097   -34035148.562 8 -20165411.439 9
  24306043.087     8768998.435 5  -5177840.006 2
  22105450.455   -22453177.286 8 -12034921.095 9
  24210549.146    18678919.970 5   5359677.572 3
 94  1 21 19 52  0.0020000  0  6 22 25 14 18 29 15
  22218084.040     -712594.041 7  -3645470.824 6
  23823863.223    16342078.133 6   5515942.995 5
  20845623.825   -34044381.752 8 -20172606.113 9
  24293109.530     8700964.901 5  -5230853.006 2
  22099315.083   -22485413.141 8 -12060039.918 9
  24231110.052    18786951.738 5   5443858.123 3
 94  1 21 19 52 30.0020000  0  6 22 25 14 18 29 15
  22211631.787     -746485.027 7  -3671879.360 6
  23842641.503    16440782.919 6   5592855.766 5
  20843964.923   -34053116.794 8 -20179412.633 9
  24280178.342     8632989.345 5  -5283820.864 2
  22093194.070   -22517572.556 8 -12085099.180 9
  24251677.133    18895048.762 5   5528089.526 3
 94  1 21 19 53  0.0020000  0  6 22 25 14 18 29 15
  22205280.025     -779853.876 7  -3697880.999 6
  23861439.989    16539576.917 6   5669838.052 5
  20842392.902   -34061358.861 8 -20185835.001 9
  24267242.148     8565059.673 5  -5336752.974 2
  22087091.974   -22549651.850 8 -12110096.011 9
  24272260.404    19003205.814 5   5612367.693 3
 94  1 21 19 53 30.0020000  0  6 22 25 14 18 29 15
  22199025.514     -812713.804 7  -3723486.098 7
  23880258.921    16638464.578 6   5746893.350 5
  20840925.118   -34069083.026 8 -20191853.826 9
  24254327.568     8497166.168 5  -5389656.882 2
  22081005.318   -22581640.353 8 -12135022.097 9
  24292855.666    19111428.716 5   5696697.170 3
 94  1 21 19 54  0.0020000  0  6 22 25 14 18 29 15
  22192874.763     -845056.866 7  -3748688.445 7
  23899093.772    16737458.943 6   5824031.768 5
  20839554.916   -34076275.179 8 -20197458.082 9
  24241414.098     8429289.134 5  -5442547.969 2
  22074937.699   -22613506.994 8 -12159853.239 9
  24313465.558    19219718.343 5   5781078.610 3
 94  1 21 19 54 30.0020000  0  6 22 25 14 18 29 15
  22186819.165     -876868.944 7  -3773477.054 7
  23917953.865    16836561.405 6   5901254.428 5
  20838289.223   -34082941.781 8 -20202652.828 9
  24228500.898     8361423.634 6  -5495430.054 2
  22068901.348   -22645239.053 8 -12184579.479 9
  24334075.360    19328070.782 5   5865508.979 3
 94  1 21 19 55  0.0020000  0  6 22 25 14 18 29 15
  22180871.342     -908147.961 7  -3797850.280 7
  23936829.008    16935774.730 6   5978563.486 5
  20837124.619   -34089066.560 8 -20207425.358 9
  24215588.387     8293575.358 5  -5548298.663 2
  22062887.061   -22676836.117 8 -12209200.531 9
  24354709.805    19436478.400 5   5949982.398 3
 94  1 21 19 55 30.0020000  0  6 22 25 14 18 29 15
  22175020.143     -938871.944 7  -3821791.011 7
  23955736.109    17035110.874 6   6055968.232 4
  20836061.375   -34094639.068 8 -20211767.563 9
  24202692.874     8225752.760 6  -5601147.319 2
  22056901.255   -22708284.845 8 -12233706.006 9
  24375350.606    19544943.698 6   6034500.765 3
 94  1 21 19 56  0.0020000  0  6 22 25 14 18 29 15
  22169282.325     -969014.360 7  -3845278.562 7
  23974667.613    17134571.437 6   6133469.922 4
  20835108.724   -34099662.675 8 -20215682.058 9
  24189779.074     8157973.146 6  -5653962.483 2
  22050951.214   -22739570.975 8 -12258084.784 9
  24396003.968    19653471.973 5   6119068.213 3
 94  1 21 19 56 30.0020000  0  6 22 25 14 18 29 15
  22163657.619     -998575.881 7  -3868313.462 7
  23993611.708    17234133.959 6   6211051.066 4
  20834252.877   -34104134.482 8 -20219166.567 9
  24176899.391     8090251.323 6  -5706732.622 2
  22045028.215   -22770702.751 8 -12282343.280 9
  24416664.525    19762061.021 5   6203682.980 3
 94  1 21 19 57  0.0020000  0  6 22 25 14 18 29 15
  22158142.457    -1027569.100 7  -3890905.558 7
  24012574.361    17333784.913 6   6288701.104 4
  20833506.004   -34108054.237 8 -20222220.914 9
  24164011.433     8022581.490 6  -5759462.204 3
  22039132.616   -22801678.730 8 -12306480.393 9
  24437335.125    19870702.957 5   6288338.949 3
 94  1 21 19 57 30.0020000  0  6 22 25 14 18 29 15
  22152727.456    -1056009.885 7  -3913067.171 7
  24031545.767    17433522.599 6   6366418.753 4
  20832864.658   -34111430.181 8 -20224851.490 9
  24151147.069     7954966.680 6  -5812148.944 3
  22033269.935   -22832492.876 9 -12330491.377 9
  24458028.479    19979399.791 5   6373037.731 3
 94  1 21 19 58  0.0020000  0  6 22 25 14 18 29 15
  22147418.761    -1083908.531 7  -3934806.326 7
  24050537.289    17533337.880 6   6444196.831 4
  20832326.051   -34114259.808 8 -20227056.389 9
  24138296.825     7887422.770 6  -5864780.443 3
  22027436.513   -22863142.562 8 -12354374.234 9
  24478713.229    20088152.936 5   6457780.324 3
 94  1 21 19 58 30.0020000  0  6 22 25 14 18 29 15
  22142211.636    -1111285.027 7  -3956138.615 7
  24069553.365    17633237.172 6   6522040.382 4
  20831894.530   -34116540.010 8 -20228833.151 9
  24125460.521     7819951.416 6  -5917355.423 3
  22021630.792   -22893644.161 8 -12378141.701 9
  24499421.274    20196955.034 5   6542561.130 3
 94  1 21 19 59  0.0020000  0  6 22 25 14 18 29 15
  22137102.303    -1138142.485 7  -3977066.461 7
  24088584.220    17733250.368 6   6599972.684 4
  20831562.240   -34118272.361 8 -20230183.029 9
  24112638.698     7752547.054 6  -5969878.216 3
  22015857.479   -22924002.166 8 -12401797.264 9
  24520139.301    20305803.224 5   6627377.826 3
 94  1 21 19 59 30.0020000  0  6 22 25 14 18 29 15
  22132089.503    -1164478.251 7  -3997587.786 7
  24107640.828    17833375.135 6   6677991.939 4
  20831336.975   -34119465.801 8 -20231112.949 9
  24099815.075     7685208.075 6  -6022350.046 3
  22010101.164   -22954229.073 9 -12425350.673 9
  24540861.165    20414686.342 5   6712221.709 3
 94  1 21 20  0  0.0020000  0  6 22 25 14 18 29 15
  22127181.421    -1190275.353 7  -4017689.396 7
  24126716.712    17933611.497 6   6756098.135 4
  20831210.103   -34120122.456 8 -20231624.628 9
  24087008.121     7617920.122 6  -6074782.134 3
  22004373.239   -22984335.352 9 -12448810.093 9
  24561578.533    20523591.795 5   6797083.027 3
 94  1 21 20  0 30.0020000  0  6 22 25 14 18 29 15
  22122375.598    -1215521.087 7  -4037361.356 7
  24145815.410    18033973.545 6   6834302.256 4
  20831191.246   -34120246.094 8 -20231720.952 9
  24074229.648     7550672.876 6  -6127182.470 3
  21998664.681   -23014331.549 8 -12472183.718 9
  24582310.800    20632514.690 5   6881957.962 3
 94  1 21 20  1  0.0020000  0  6 22 25 14 18 29 15
  22117679.109    -1240202.927 7  -4056593.918 7
  24164933.625    18134447.551 6   6912593.645 4
  20831262.897   -34119840.886 8 -20231405.192 9
  24061425.991     7483452.053 6  -6179562.254 3
  21992978.878   -23044218.945 8 -12495472.574 9
  24603039.590    20741447.104 5   6966840.270 3
 94  1 21 20  1 30.0020000  0  6 22 25 14 18 29 15
  22113096.122    -1264314.529 7  -4075382.140 7
  24184071.746    18235006.828 6   6990951.471 4
  20831443.102   -34118903.844 8 -20230675.004 9
  24048639.633     7416259.583 5  -6231919.924 3
  21987315.738   -23073988.733 9 -12518669.792 9
  24623777.014    20850386.266 5   7051727.856 3
 94  1 21 20  2  0.0020000  0  6 22 25 14 18 29 15
  22108614.375    -1287851.370 7  -4093722.507 7
  24203212.984    18335644.049 6   7069370.047 4
  20831722.329   -34117435.472 8 -20229530.818 9
  24035854.564     7349094.145 5  -6284256.540 3
  21981669.207   -23103649.939 9 -12541782.383 9
  24644491.923    20959328.431 5   7136617.791 3
 94  1 21 20  2 30.0020000  0  6 22 25 14 18 29 15
  22104241.752    -1310816.198 7  -4111617.127 7
  24222377.547    18436352.271 6   7147843.942 4
  20832105.314   -34115430.511 8 -20227968.520 9
  24023081.577     7281963.632 5  -6336565.978 3
  21976046.120   -23133198.282 9 -12564807.052 9
  24665228.208    21068272.940 4   7221509.557 3
 94  1 21 20  3  0.0020000  0  6 22 25 14 18 29 15
  22099977.174    -1333210.606 8  -4129067.274 7
  24241554.551    18537116.639 6   7226361.554 4
  20832592.806   -34112889.342 8 -20225988.360 9
  24010315.814     7214875.304 5  -6388842.536 3
  21970447.346   -23162611.192 9 -12587726.184 9
  24685964.462    21177219.161 4   7306402.597 2
 94  1 21 20  3 30.0020000  0  6 22 25 14 18 29 15
  22095826.128    -1355030.565 7  -4146069.794 7
  24260749.303    18637934.580 6   7304920.940 4
  20833175.633   -34109810.384 8 -20223589.176 9
  23997554.099     7147849.168 5  -6441070.626 3
  21964878.131   -23191877.966 9 -12610531.449 9
  24706687.586    21286167.195 4   7391297.072 2
 94  1 21 20  4  0.0020000  0  6 22 25 14 18 29 15
  22091785.825    -1376274.274 8  -4162623.277 7
  24279944.414    18738812.345 6   7383526.935 4
  20833863.237   -34106194.443 8 -20220771.543 9
  23984823.232     7080882.410 5  -6493252.460 3
  21959337.547   -23221007.170 9 -12633229.502 9
  24727427.378    21395113.045 4   7476189.899 2
 94  1 21 20  4 30.0020000  0  6 22 25 14 18 29 15
  22087854.137    -1396962.198 8  -4178743.680 7
  24299145.671    18839734.766 6   7462167.704 4
  20834652.440   -34102038.123 8 -20217532.850 9
  23972071.800     7013978.818 5  -6545385.051 3
  21953820.496   -23249992.861 8 -12655815.745 9
  24748154.969    21504051.103 4   7561076.630 2
 94  1 21 20  5  0.0020000  0  6 22 25 14 18 29 15
  22084017.423    -1417102.040 8  -4194437.004 7
  24318357.481    18940693.453 6   7540836.770 4
  20835549.719   -34097341.188 8 -20213872.886 9
  23959375.559     6947134.796 6  -6597471.225 3
  21948328.149   -23278844.773 8 -12678297.730 9
  24768878.212    21612977.794 4   7645954.450 2
 94  1 21 20  5 30.0020000  0  6 22 25 14 18 29 15
  22080286.506    -1436693.113 7  -4209702.724 7
  24337578.555    19041699.355 6   7619542.601 4
  20836543.591   -34092090.843 8 -20209781.691 9
  23946653.477     6880337.845 5  -6649520.707 3
  21942862.692   -23307585.109 9 -12700692.774 9
  24789609.880    21721891.652 4   7730822.287 2
 94  1 21 20  6  0.0020000  0  6 22 25 14 18 29 15
  22076663.004    -1455739.575 7  -4224544.067 7
  24356804.425    19142750.562 6   7698283.725 4
  20837652.044   -34086285.668 8 -20205258.185 9
  23933956.517     6813578.412 6  -6701540.973 3
  21937413.665   -23336210.531 9 -12722998.278 9
  24810332.254    21830791.817 4   7815679.525 2
 94  1 21 20  6 30.0020000  0  7 22 25 19 14 18 29 15
  22073141.612    -1474253.201 8  -4238970.208 7
  24376046.424    19243839.573 6   7777054.315 4
  25394634.590    -4693763.92915   -266538.688
  20838859.428   -34079925.930 8 -20200302.537 9
  23921250.653     6746857.829 5  -6753530.980 3
  21931991.168   -23364707.071 8 -12745203.341 9
  24831049.142    21939671.337 5   7900520.601 2
 94  1 21 20  7  0.0020000  0  7 22 25 19 14 18 29 15
  22069722.689    -1492213.089 7  -4252964.868 7
  24395291.061    19344981.453 6   7855866.109 4
  25378196.670    -4780178.149 5   -333874.246 1
  20840173.838   -34073018.963 8 -20194920.487 9
  23908566.194     6680162.376 5  -6805501.389 3
  21926594.784   -23393064.848 9 -12767300.293 9
  24851769.598    22048527.479 5   7985343.509 2
 94  1 21 20  7 30.0020000  0  7 22 25 19 14 18 29 15
  22066412.530    -1509604.564 7  -4266516.620 7
  24414546.221    19446183.323 6   7934724.626 4
  25361781.744    -4866430.484 5   -401084.095 1
  20841595.154   -34065555.552 8 -20189104.836 9
  23895876.429     6613501.541 6  -6857444.831 3
  21921227.480   -23421271.481 8 -12789279.449 9
  24872474.254    22157358.558 5   8070146.832 2
 94  1 21 20  8  0.0020000  0  7 22 25 19 14 18 29 15
  22063211.077    -1526420.760 8  -4279620.095 7
  24433818.200    19547434.592 6   8013621.672 4
  25345391.491    -4952519.228 4   -468166.248 1
  20843125.774   -34057532.258 8 -20182852.912 9
  23883199.435     6546891.049 6  -6909349.022 3
  21915892.913   -23449315.314 9 -12811131.777 9
  24893182.089    22266162.770 5   8154929.240 2
 94  1 21 20  8 30.0020000  0  7 22 25 19 14 18 29 15
  22060126.902    -1542657.484 8  -4292272.044 7
  24453093.895    19648749.155 6   8092568.025 3
  25329044.168    -5038436.681 5   -535115.012 1
  20844754.007   -34048951.944 8 -20176166.955 9
  23870528.857     6480321.043 6  -6961221.691 3
  21910582.210   -23477206.788 8 -12832865.349 9
  24913882.728    22374936.460 5   8239687.905 2
 94  1 21 20  9  0.0020000  0  7 22 25 19 14 18 29 15
  22057147.984    -1558305.738 7  -4304465.464 7
  24472388.178    19750133.539 6   8171568.734 3
  25312732.670    -5124190.616 4   -601936.312 1
  20846491.095   -34039818.270 8 -20169049.817 9
  23857869.760     6413783.548 6  -7013069.054 3
  21905300.016   -23504977.815 9 -12854505.109 9
  24934571.465    22483677.435 5   8324420.990 2
 94  1 21 20  9 30.0020000  0  7 22 25 19 14 18 29 15
  22054282.478    -1573368.964 8  -4316202.961 7
  24491690.406    19851579.093 6   8250617.184 3
  25296421.052    -5209785.220 4   -668633.408 1
  20848337.276   -34030126.530 8 -20161497.788 9
  23845213.842     6347293.069 6  -7064879.696 3
  21900033.472   -23532643.839 9 -12876062.995 9
  24955264.430    22592384.688 5   8409127.880 2
 94  1 21 20 10  0.0020000  0  7 22 25 19 14 18 29 15
  22051525.197    -1587842.623 7  -4327481.116 7
  24511011.520    19953095.438 6   8329720.754 3
  25280180.485    -5295213.044 3   -735200.509 1
  20850288.686   -34019883.122 8 -20153515.916 9
  23832577.950     6280847.394 6  -7116655.450 3
  21894793.610   -23560193.329 9 -12897530.114 9
  24975940.336    22701062.766 5   8493811.998 2
 94  1 21 20 10 30.0020000  0  7 22 25 19 14 18 29 15
  22048884.595    -1601722.043 8  -4338296.201 7
  24530344.656    20054693.453 6   8408887.964 3
  25263953.679    -5380471.425 3   -801635.696 1
  20852339.656   -34009086.597 8 -20145103.051 9
  23819947.483     6214449.079 6  -7168394.333 3
  21889572.754   -23587620.864 8 -12918902.191 9
  24996617.172    22809712.352 5   8578473.890 2
 94  1 21 20 11  0.0020000  0  7 22 25 19 14 18 29 15
  22046357.584    -1614992.138 8  -4348636.505 7
  24549692.571    20156355.013 5   8488104.711 3
  25247766.805    -5465567.498 3   -867944.262 1
  20854503.857   -33997718.220 8 -20136244.561 9
  23807314.649     6148120.195 6  -7220079.112 3
  21884381.338   -23614910.361 8 -12940166.704 9
  25017290.650    22918334.619 5   8663114.522 3
 94  1 21 20 11 30.0020000  0  7 22 25 19 14 18 29 15
  22043950.910    -1627654.828 8  -4358503.496 7
  24569047.442    20258061.109 5   8567356.146 3
  25231598.728    -5550508.311 3   -934131.884 2
  20856776.284   -33985781.759 8 -20126943.435 9
  23794716.561     6081862.240 6  -7271708.615 3
  21879216.454   -23642028.455 9 -12961297.657 9
  25037950.248    23026923.834 5   8747729.351 3
 94  1 21 20 12  0.0020000  0  7 22 25 19 14 18 29 15
  22041653.451    -1639720.982 8  -4367905.673 7
  24588407.410    20359803.235 5   8646635.643 3
  25215440.514    -5635312.368 2  -1000212.930 2
  20859152.589   -33973282.996 8 -20117204.134 9
  23782110.138     6015667.709 6  -7323288.705 3
  21874092.971   -23668964.920 9 -12982287.091 9
  25058606.608    23135473.141 4   8832313.113 3
 94  1 21 20 12 30.0020000  0  7 22 25 19 14 18 29 15
  22039466.315    -1651208.035 8  -4376856.590 7
  24607774.512    20461553.694 5   8725921.634 3
  25199356.828    -5719995.379 3  -1066199.672 2
  20861636.819   -33960232.532 8 -20107034.951 9
  23769534.714     5949544.101 6  -7374813.525 3
  21868998.118   -23695742.979 9 -13003153.085 9
  25079260.359    23243966.959 5   8916853.654 3
 94  1 21 20 13  0.0020000  0  7 22 25 19 14 18 29 15
  22037389.473    -1662134.033 8  -4385370.339 7
  24627131.002    20563304.137 5   8805207.593 3
  25183259.023    -5804558.780 3  -1132093.304 2
  20864221.780   -33946639.933 8 -20096443.313 9
  23756958.390     5883487.866 6  -7426285.849 3
  21863931.595   -23722363.256 9 -13023896.129 9
  25099888.539    23352399.227 4   9001346.205 3
 94  1 21 20 13 30.0020000  0  7 22 25 19 14 18 29 15
  22035416.179    -1672516.508 8  -4393460.552 7
  24646493.757    20665070.288 5   8884505.810 3
  25167180.883    -5888989.868 3  -1197883.761 2
  20866913.436   -33932517.586 8 -20085438.881 9
  23744398.405     5817489.957 6  -7477712.714 4
  21858891.454   -23748833.370 8 -13044522.186 9
  25120510.992    23460766.284 4   9085787.878 3
 94  1 21 20 14  0.0020000  0  7 22 25 19 14 18 29 15
  22033541.936    -1682346.785 8  -4401120.503 7
  24665862.569    20766868.085 5   8963828.695 3
  25151159.045    -5973258.825 4  -1263547.913 2
  20869704.144   -33917848.870 8 -20074008.730 9
  23731849.752     5751553.774 6  -7529091.479 4
  21853885.040   -23775167.725 9 -13065042.432 9
  25141123.163    23569068.993 4   9170179.552 3
 94  1 21 20 14 30.0020000  0  7 22 25 19 14 18 29 15
  22031777.778    -1691617.174 7  -4408344.164 7
  24685244.511    20868702.139 5   9043179.799 3
  25135151.417    -6057346.531 4  -1329070.870 2
  20872601.489   -33902627.689 8 -20062148.080 9
  23719308.295     5685667.378 6  -7580431.490 4
  21848893.706   -23801369.376 8 -13085459.291 9
  25161700.167    23677300.975 3   9254516.000 3
 94  1 21 20 15  0.0020000  0  7 22 25 19 14 18 29 15
  22030124.482    -1700310.400 7  -4415118.094 7
  24704632.569    20970579.672 5   9122564.785 3
  25119194.513    -6141247.433 5  -1394448.245 3
  20875604.989   -33886841.333 8 -20049847.022 9
  23706782.576     5619805.781 6  -7631752.166 4
  21843937.837   -23827431.824 9 -13105767.673 9
  25182298.128    23785461.751 3   9338796.897 3
 94  1 21 20 15 30.0020000  0  7 22 25 19 14 18 29 15
  22028583.099    -1708398.238 8  -4421420.296 7
  24724026.503    21072501.836 5   9201984.569 3
  25103259.075    -6224934.801 4  -1459659.248 3
  20878719.953   -33870472.606 8 -20037092.185 9
  23694252.181     5553975.226 6  -7683048.647 4
  21839003.552   -23853347.077 9 -13125961.373 9
  25202869.796    23893556.991 3   9423026.817 3
 94  1 21 20 16  0.0020000  0  7 22 25 19 14 18 29 15
  22027162.683    -1715868.015 7  -4427240.895 7
  24743429.130    21174455.693 5   9281429.023 2
  25087373.463    -6308399.431 4  -1524696.673 3
  20881946.769   -33853505.514 8 -20023871.087 9
  23681735.006     5488191.663 6  -7734308.504 4
  21834103.355   -23879109.799 9 -13146036.203 9
  25223435.559    24001591.571 3   9507209.374 3
 94  1 21 20 16 30.0020000  0  7 22 25 19 14 18 29 15
  22025858.435    -1722721.862 7  -4432581.544 7
  24762837.215    21276433.556 5   9360892.205 2
  25071537.556    -6391665.130 5  -1589579.103 3
  20885284.688   -33835950.737 8 -20010192.043 9
  23669232.581     5422459.334 6  -7785528.452 4
  21829230.588   -23904717.551 9 -13165990.285 9
  25243962.349    24109558.332 4   9591339.185 2
 94  1 21 20 17  0.0020000  0  7 22 25 19 14 18 29 15
  22024669.429    -1728962.653 7  -4437444.501 7
  24782247.007    21378439.357 5   9440377.143 2
  25055718.317    -6474745.576 5  -1654317.161 3
  20888739.347   -33817815.210 8 -19996060.478 9
  23656728.298     5356796.468 6  -7836694.270 4
  21824389.659   -23930161.561 9 -13185816.789 9
  25264492.646    24217458.635 4   9675417.254 2
 94  1 21 20 17 30.0020000  0  7 22 25 19 14 18 29 15
  22023600.908    -1734601.735 8  -4441838.564 7
  24801664.835    21480480.948 5   9519889.943 2
  25039953.881    -6557653.052 5  -1718920.399 3
  20892299.712   -33799103.524 8 -19981479.944 9
  23644256.482     5291228.498 6  -7887786.124 4
  21819578.530   -23955435.966 8 -13205511.104 9
  25285022.163    24325290.160 5   9759441.663 2
 94  1 21 20 18  0.0020000  0  7 22 25 19 14 18 29 15
  22022637.975    -1739636.583 7  -4445761.812 7
  24821091.416    21582579.770 5   9599447.419 2
  25024194.451    -6640418.902 5  -1783413.279 2
  20895969.381   -33779819.819 8 -19966453.698 9
  23631802.054     5225757.984 6  -7938802.056 4
  21814804.215   -23980546.280 9 -13225077.576 9
  25305529.796    24433050.525 5   9843410.599 2
 94  1 21 20 18 30.0020000  0  7 22 25 19 14 18 29 15
  22021796.368    -1744059.454 7  -4449208.192 7
  24840535.025    21684742.369 5   9679054.555 2
  25008481.099    -6723060.907 5  -1847809.637 2
  20899746.646   -33759974.557 8 -19950989.870 9
  23619354.311     5160376.227 6  -7989748.829 4
  21810057.631   -24005484.660 9 -13244510.078 9
  25326021.750    24540733.708 5   9927319.470 2
 94  1 21 20 19  0.0020000  0  7 22 25 19 14 18 29 15
  22021073.028    -1747872.379 7  -4452179.292 7
  24859983.192    21786963.109 5   9758706.993 2
  24992773.293    -6805563.321 5  -1912097.160 2
  20903628.449   -33739563.602 8 -19935085.242 9
  23606927.164     5095076.333 6  -8040631.804 4
  21805338.508   -24030254.126 9 -13263810.940 9
  25346499.344    24648339.795 5  10011168.205 2
 94  1 21 20 19 30.0020000  0  7 22 25 19 14 18 29 15
  22020467.957    -1751064.523 7  -4454666.659 7
  24879449.765    21889233.679 5   9838398.241 2
  24977098.794    -6887897.573 5  -1976253.718 2
  20907623.873   -33718570.667 8 -19918727.120 9
  23594519.054     5029853.154 6  -8091455.012 4
  21800658.868   -24054862.812 9 -13282986.546 9
  25366960.209    24755870.189 5  10094958.010 1
 94  1 21 20 20  0.0020000  0  7 22 25 19 14 18 29 15
  22019977.527    -1753626.789 7  -4456663.210 7
  24898914.960    21991536.622 5   9918114.728 2
  24961480.986    -6970041.677 5  -2040262.010 2
  20911729.591   -33697004.168 8 -19901922.063 9
  23582114.092     4964684.986 6  -8142235.328 4
  21796005.040   -24079310.659 9 -13302036.808 9
  25387404.855    24863319.667 5  10178684.787 1
 94  1 21 20 20 30.0020000  0  7 22 25 19 14 18 29 15
  22019606.384    -1755566.757 7  -4458174.869 7
  24918381.533    22093839.778 5   9997831.344 3
  24945881.675    -7051973.357 5  -2104104.793 2
  20915939.576   -33674869.689 8 -19884674.437 9
  23569727.297     4899562.971 6  -8192979.698 4
  21791386.827   -24103586.394 8 -13320952.966 9
  25407836.731    24970681.041 5  10262342.859 1
 94  1 21 20 21  0.0020000  0  8 22 25 19 14 18 29  4 15
  22019355.367    -1756897.544 8  -4459211.820 7
  24937844.899    22196131.538 5  10077539.121 3
  24930336.477    -7133682.769 5  -2167774.327 2
  20920262.913   -33652170.739 8 -19866986.951 9
  23557348.027     4834479.338 6  -8243694.167 4
  21786799.283   -24127701.389 9 -13339743.869 9
  25522087.666    -4677695.55314  -3453502.593 2
  25428247.021    25077947.035 5  10345926.600 1
 94  1 21 20 21 30.0020000  0  8 22 25 19 14 18 29  4 15
  22019215.484    -1757618.140 7  -4459773.322 7
  24957311.893    22298403.796 5  10157231.693 3
  24914827.404    -7215182.794 5  -2231280.723 2
  20924684.552   -33628920.119 8 -19848869.605 9
  23544955.536     4769448.383 6  -8294367.595 4
  21782241.718   -24151655.718 9 -13358409.578 9
  25518104.474    -4698567.798 4  -3469766.684 2
  25448645.499    25185113.659 5  10429432.866 1
 94  1 21 20 22  0.0020000  0  8 22 25 19 14 18 29  4 15
  22019198.816    -1757729.877 7  -4459860.379 7
  24976773.699    22400662.055 5  10236913.353 3
  24899347.111    -7296487.791 4  -2294635.121 2
  20929213.577   -33605110.521 8 -19830316.651 9
  23532601.479     4704486.863 6  -8344986.898 4
  21777711.914   -24175439.924 8 -13376942.710 9
  25514249.233    -4718923.402 5  -3485628.171 2
  25469020.324    25292184.707 5  10512864.663 2
 94  1 21 20 22 30.0020000  0  8 22 25 19 14 18 29  4 15
  22019284.856    -1757254.055 8  -4459489.578 7
  24996216.290    22502909.165 5  10316586.324 3
  24883913.585    -7377623.154 4  -2357857.328 2
  20933855.533   -33580733.157 8 -19811321.329 9
  23520251.858     4639601.535 6  -8395546.836 4
  21773219.434   -24199068.097 9 -13395354.260 9
  25510472.088    -4738784.919 4  -3501104.656 2
  25489376.982    25399153.099 5  10596216.527 2
 94  1 21 20 23  0.0020000  0  7 22 25 19 14 18 29  4
  22019489.525    -1756201.225 8  -4458669.180 7
  25015682.024    22605155.110 5  10396258.393 3
  24868492.561    -7458606.259 4  -2420960.882 2
  20938601.818   -33555787.505 8 -19791883.152 9
  23507932.127     4574785.379 6  -8446052.856 4
  21768747.070   -24222563.133 9 -13413662.052 9
  25506786.739    -4758163.170 4  -3516204.579 2
 94  1 21 20 23 30.0020000  0  7 22 25 19 14 18 29  4
  22019797.651    -1754568.260 7  -4457396.734 7
  25035146.289    22707416.328 5  10475942.346 3
  24853121.992    -7539437.468 4  -2483946.021 2
  20943458.725   -33530262.756 8 -19771993.745 9
  23495598.486     4510037.577 6  -8496505.616 4
  21764303.037   -24245919.975 9 -13431862.184 9
  25503197.983    -4777066.656 5  -3530934.532 2
 94  1 21 20 24  0.0020000  0  7 22 25 19 14 18 29  4
  22020219.549    -1752344.851 7  -4455664.200 7
  25054602.939    22809714.751 5  10555655.323 3
  24837769.140    -7620108.519 4  -2546806.455 2
  20948431.683   -33504138.525 8 -19751637.221 9
  23483282.562     4445343.775 6  -8546916.307 4
  21759883.016   -24269125.155 9 -13449944.121 9
  25499687.534    -4795495.530 4  -3545294.699 2
 94  1 21 20 24 30.0020000  0  7 22 25 19 14 18 29  4
  22020761.454    -1749504.952 8  -4453451.279 7
  25074085.852    22912068.444 5  10635411.334 3
  24822450.075    -7700601.096 4  -2609527.750 2
  20953517.572   -33477419.104 8 -19730816.891 9
  23470993.709     4380712.452 6  -8597278.303 4
  21755499.631   -24292159.174 9 -13467892.691 9
  25496259.107    -4813435.681 4  -3559273.982 2
 94  1 21 20 25  0.0020000  0  7 22 25 19 14 18 29  4
  22021422.137    -1746041.999 8  -4450752.886 7
  25093570.563    23014458.858 5  10715195.953 2
  24807176.339    -7780906.351 4  -2672103.089 2
  20958706.829   -33450124.791 8 -19709548.620 9
  23458699.220     4316144.462 6  -8647590.935 4
  21751157.407   -24315015.389 9 -13485702.705 9
  25492946.610    -4830875.464 4  -3572863.427 2
 94  1 21 20 25 30.0020000  0  7 22 25 19 14 18 29  4
  22022197.580    -1741945.952 8  -4447561.136 7
  25113065.676    23116882.457 5  10795006.507 2
  24791933.901    -7861009.862 5  -2734521.246 2
  20964012.856   -33422247.053 8 -19687825.709 9
  23446427.786     4251666.501 6  -8697833.419 4
  21746840.875   -24337669.273 9 -13503355.065 9
  25489735.114    -4847807.137 5  -3586056.934 2
 94  1 21 20 26  0.0020000  0  7 22 25 19 14 18 29  4
  22023103.733    -1737212.508 8  -4443872.734 7
  25132549.998    23219325.614 5  10874832.194 2
  24776723.571    -7940909.767 4  -2796780.702 2
  20969429.956   -33393794.830 8 -19665655.145 9
  23434187.140     4187295.311 6  -8747992.718 4
  21742569.852   -24360113.290 9 -13520843.876 9
  25486586.693    -4864223.770 4  -3598849.103 2
 94  1 21 20 26 30.0020000  0  7 22 25 19 14 18 29  4
  22024124.976    -1731856.197 8  -4439698.971 7
  25152046.311    23321772.339 5  10954660.715 2
  24761565.315    -8020596.707 5  -2858874.202 2
  20974949.555   -33364774.394 8 -19643041.827 9
  23421958.725     4123043.796 6  -8798058.737 4
  21738338.581   -24382352.457 9 -13538173.075 9
  25483572.670    -4880123.486 4  -3611238.459 2
 94  1 21 20 27  0.0020000  0  7 22 25 19 14 18 29  4
  22025251.206    -1725913.518 8  -4435068.307 7
  25171551.048    23424196.131 5  11034471.334 2
  24746429.513    -8100076.249 5  -2920806.158 2
  20980581.845   -33335185.573 8 -19619985.617 9
  23409746.020     4058894.467 6  -8848045.160 4
  21734140.288   -24404413.013 9 -13555363.090 9
  25480650.023    -4895514.774 4  -3623231.662 2
 94  1 21 20 27 30.0020000  0  7 22 25 19 14 18 29  4
  22026491.777    -1719391.911 8  -4429986.506 8
  25191034.320    23526597.626 5  11114264.604 2
  24731353.190    -8179353.435 5  -2982580.450 2
  20986320.982   -33305021.214 8 -19596480.915 9
  23397562.155     3994842.797 6  -8897955.487 4
  21729975.181   -24426307.874 9 -13572423.977 9
  25477816.744    -4910407.261 4  -3634836.171 2
 94  1 21 20 28  0.0020000  0  7 22 25 19 14 18 29  4
  22027841.683    -1712296.066 8  -4424457.267 8
  25210509.437    23628965.933 5  11194032.011 2
  24716297.823    -8258430.952 5  -3044199.061 2
  20992167.565   -33274298.580 8 -19572541.214 9
  23385389.382     3930868.732 6  -8947805.308 4
  21725836.966   -24448068.309 9 -13589380.152 9
  25475062.251    -4924804.436 4  -3646054.757 2
 94  1 21 20 28 30.0020000  0  7 22 25 19 14 18 29  4
  22029302.691    -1704619.536 7  -4418475.562 8
  25229981.347    23731298.835 5  11273771.822 2
  24701294.739    -8337297.577 5  -3105653.431 2
  20998122.432   -33243006.977 8 -19548158.178 9
  23373229.200     3866956.087 6  -8997607.311 4
  21721719.706   -24469706.564 9 -13606241.110 9
  25472424.228    -4938698.776 4  -3656881.535 2
 94  1 21 20 29  0.0020000  0  7 22 25 19 14 18 29  4
  22030883.557    -1696334.776 8  -4412019.877 8
  25249461.861    23833619.293 5  11353501.952 2
  24686327.991    -8415953.278 5  -3166943.374 2
  21004187.414   -33211132.247 8 -19523320.703 9
  23361072.616     3803107.968 6  -9047358.996 4
  21717623.732   -24491212.896 9 -13622999.251 9
  25469898.956    -4952078.560 4  -3667307.322 2
 94  1 21 20 29 30.0020000  0  7 22 25 19 14 18 29  4
  22032575.615    -1687411.796 7  -4405066.890 8
  25268925.647    23935941.670 5  11433233.588 2
  24671394.189    -8494401.769 5  -3228071.928 2
  21010364.697   -33178675.186 8 -19498029.503 9
  23348928.323     3739321.891 6  -9097062.375 4
  21713558.906   -24512573.760 9 -13639644.050 9
  25467440.957    -4964947.337 4  -3677334.959 2
 94  1 21 20 30  0.0020000  0  7 22 25 19 14 18 29  4
  22034393.737    -1677849.908 8  -4397616.048 8
  25288392.400    24038274.144 5  11512973.080 2
  24656512.971    -8572643.689 5  -3289039.466 2
  21016651.675   -33145633.113 8 -19472282.441 9
  23336809.753     3675580.873 6  -9146730.640 5
  21709522.141   -24533778.240 8 -13656166.997 9
  25465076.914    -4977297.812 4  -3686958.697 2
 94  1 21 20 30 30.0020000  0  7 22 25 19 14 18 29  4
  22036336.961    -1667652.219 8  -4389669.788 8
  25307877.111    24140619.345 5  11592722.495 2
  24641653.998    -8650696.259 5  -3349859.512 2
  21023052.364   -33112000.859 8 -19446075.494 9
  23324683.568     3611880.345 6  -9196367.333 5
  21705521.140   -24554801.948 9 -13672549.085 9
  25462829.730    -4989140.723 4  -3696186.921 2
 94  1 21 20 31  0.0020000  0  7 22 25 19 14 18 29  4
  22038399.084    -1656832.769 8  -4381239.024 8
  25327351.509    24242975.262 5  11672480.243 2
  24626827.942    -8728581.796 5  -3410549.404 2
  21029560.498   -33077800.927 8 -19419426.207 9
  23312574.950     3548239.646 6  -9245957.427 5
  21701558.304   -24575636.988 9 -13688784.165 9
  25460672.993    -5000498.095 5  -3705036.856 2
 94  1 21 20 31 30.0020000  0  7 22 25 19 14 18 29  4
  22040575.637    -1645398.104 8  -4372328.892 8
  25346835.861    24345330.929 5  11752237.846 2
  24612044.666    -8806287.363 5  -3471099.038 3
  21036173.920   -33043042.581 8 -19392341.787 9
  23300483.601     3484670.027 6  -9295492.098 5
  21697631.982   -24596265.142 9 -13704858.017 9
  25458595.011    -5011374.412 5  -3713511.887 2
 94  1 21 20 32  0.0020000  0  6 22 19 14 18 29  4
  22042860.955    -1633359.931 7  -4362948.476 8
  24597292.329    -8883812.919 5  -3531508.436 3
  21042892.089   -33007735.000 8 -19364829.389 9
  23288400.406     3421180.302 7  -9344964.565 5
  21693749.879   -24616683.702 9 -13720768.559 9
  25456617.191    -5021773.028 4  -3721614.683 2
 94  1 21 20 32 30.0020000  0  6 22 19 14 18 29  4
  22045272.425    -1620706.181 7  -4353088.427 8
  24582569.911    -8961153.605 5  -3591773.765 3
  21049712.487   -32971894.448 8 -19336901.699 9
  23276330.462     3357795.914 6  -9394354.947 5
  21689906.210   -24636897.291 9 -13736519.393 9
  25454733.235    -5031696.524 4  -3729347.289 2
 94  1 21 20 33  0.0020000  0  6 22 19 14 18 29  4
  22047797.517    -1607439.573 7  -4342750.805 8
  24567899.807    -9038296.789 5  -3651885.217 3
  21056637.303   -32935517.653 8 -19308556.151 9
  23264294.964     3294523.764 6  -9443657.851 5
  21686090.872   -24656918.908 9 -13752120.622 9
  25452944.403    -5041133.498 5  -3736700.801 2
 94  1 21 20 33 30.0020000  0  6 22 19 14 18 29  4
  22050440.967    -1593546.587 8  -4331925.093 8
  24553258.663    -9115227.410 5  -3711831.093 3
  21063663.269   -32898584.172 8 -19279776.831 9
  23252272.447     3231351.391 7  -9492883.021 5
  21682315.705   -24676754.019 9 -13767576.532 9
  25451249.617    -5050059.287 5  -3743655.958 2
 94  1 21 20 34  0.0020000  0  6 22 19 14 18 29  4
  22053204.334    -1579034.825 8  -4320617.213 8
  24538659.250    -9191947.200 5  -3771612.617 2
  21070799.739   -32861086.152 8 -19250557.591 9
  23240271.335     3168276.367 7  -9542032.320 5
  21678569.529   -24696423.438 9 -13782903.333 9
  25449638.652    -5058469.886 4  -3750209.656 2
 94  1 21 20 34 30.0020000  0  6 22 19 14 18 29  4
  22056077.215    -1563925.114 8  -4308843.426 8
  24524093.983    -9268458.505 5  -3831231.720 2
  21078043.204   -32823014.395 8 -19220891.306 9
  23228286.982     3105306.052 7  -9591100.047 5
  21674864.034   -24715926.779 9 -13798100.729 9
  25448123.771    -5066358.941 4  -3756356.983 2
 94  1 21 20 35  0.0020000  0  6 22 19 14 18 29  4
  22059062.279    -1548238.164 8  -4296619.833 8
  24509575.454    -9344761.053 5  -3890688.133 2
  21085401.250   -32784348.754 8 -19190762.239 9
  23216315.969     3042424.108 6  -9640098.922 5
  21671181.323   -24735257.951 8 -13813163.958 9
  25446728.986    -5073725.491 4  -3762097.178 2
 94  1 21 20 35 30.0020000  0  6 22 19 14 18 29  4
  22062158.176    -1531965.779 8  -4283940.041 8
  24495094.039    -9420840.345 5  -3949970.578 2
  21092872.168   -32745086.815 8 -19160168.527 9
  23204374.906     2979635.708 7  -9689024.906 5
  21667540.854   -24754397.861 9 -13828078.169 9
  25445423.810    -5080579.247 5  -3767437.777 2
 94  1 21 20 36  0.0020000  0  6 22 19 14 18 29  4
  22065361.578    -1515113.722 8  -4270808.569 8
  24480660.651    -9496707.327 5  -4009087.615 2
  21100457.008   -32705237.790 8 -19129117.337 9
  23192444.785     2916941.663 7  -9737877.337 5
  21663937.318   -24773338.332 9 -13842836.968 9
  25444219.124    -5086938.296 5  -3772392.883 2
 94  1 21 20 36 30.0020000  0  6 22 19 14 18 29  4
  22068686.276    -1497662.719 7  -4257210.402 8
  24466264.468    -9572372.773 5  -4068047.617 2
  21108151.901   -32664802.806 8 -19097609.565 9
  23180526.745     2854332.964 7  -9786663.295 5
  21660371.227   -24792075.988 9 -13857437.729 9
  25443098.290    -5092803.248 5  -3776962.951 2
 94  1 21 20 37  0.0020000  0  6 22 19 14 18 29  4
  22072124.146    -1479580.788 7  -4243120.574 8
  24451897.753    -9647831.414 5  -4126846.429 2
  21115958.376   -32623776.598 8 -19065641.102 9
  23168630.861     2791802.044 7  -9835388.669 5
  21656844.858   -24810607.423 9 -13871877.802 9
  25442085.771    -5098180.145 5  -3781152.750 2
 94  1 21 20 37 30.0020000  0  6 22 19 14 18 29  4
  22075684.662    -1460860.562 8  -4228533.384 8
  24437574.479    -9723101.369 5  -4185498.218 2
  21123875.685   -32582178.183 8 -19033226.774 9
  23156743.550     2729355.621 7  -9884048.171 5
  21653355.004   -24828946.462 9 -13886167.955 9
  25441157.373    -5103075.519 5  -3784967.350 2
 94  1 21 20 38  0.0020000  0  6 22 19 14 18 29  4
  22079369.830    -1441499.481 7  -4213446.816 8
  24423291.407    -9798189.723 5  -4244008.493 2
  21131900.350   -32539999.954 8 -19000360.600 9
  23144885.229     2667003.856 7  -9932633.917 5
  21649901.305   -24847102.563 9 -13900315.562 9
  25440309.260    -5107474.804 5  -3788395.346 2
 94  1 21 20 38 30.0020000  0  6 22 19 14 18 29  4
  22083182.981    -1421494.703 8  -4197858.718 8
  24409038.884    -9873078.820 5  -4302363.592 2
  21140036.837   -32497235.392 8 -18967037.619 9
  23133035.303     2604761.081 7  -9981134.784 5
  21646479.714   -24865070.334 9 -13914316.451 9
  25439564.246    -5111364.752 5  -3791426.559 2
 94  1 21 20 39  0.0020000  0  6 22 19 14 18 29  4
  22087109.452    -1400851.729 7  -4181773.257 7
  24394828.482    -9947752.995 5  -4360551.093 2
  21148287.755   -32453880.601 8 -18933254.655 9
  23121215.356     2542644.036 7 -10029537.628 5
  21643099.254   -24882840.604 9 -13928163.370 9
  25438925.988    -5114743.637 5  -3794059.459 2
 94  1 21 20 39 30.0020000  0  6 22 19 14 18 29  4
  22091157.880    -1379567.663 8  -4165188.267 7
  24380659.900   -10022192.002 5  -4418555.366 2
  21156649.117   -32409946.155 8 -18899020.031 9
  23109421.490     2480661.950 7 -10077835.310 5
  21639756.478   -24900412.069 9 -13941855.430 9
  25438386.661    -5117598.642 4  -3796284.194 2
 94  1 21 20 40  0.0020000  0  6 22 19 14 18 29  4
  22095328.862    -1357648.262 8  -4148108.188 7
  24366546.931   -10096383.109 5  -4476366.506 2
  21165117.294   -32365428.576 8 -18864331.002 9
  23097643.814     2418795.171 7 -10126043.109 5
  21636453.065   -24917777.545 9 -13955386.940 9
  25437938.951    -5119932.428 5  -3798102.704 2
 94  1 21 20 40 30.0020000  0  6 22 19 14 18 29  4
  22099619.372    -1335099.016 8  -4130537.356 8
  24352472.094   -10170319.851 5  -4533979.385 2
  21173699.423   -32320337.030 8 -18829194.740 9
  23085896.536     2357034.538 7 -10174168.267 5
  21633190.514   -24934927.512 9 -13968750.555 9
  25437597.548    -5121736.266 5  -3799508.290 2
 94  1 21 20 41  0.0020000  0  6 22 19 14 18 29  4
  22104029.499    -1311921.448 8  -4112476.908 8
  24338458.806   -10243988.709 5  -4591383.603 3
  21182391.216   -32274660.943 8 -18793603.008 9
  23074160.801     2295376.629 7 -10222213.321 5
  21629970.863   -24951849.041 9 -13981936.160 9
  25437355.046    -5123000.161 5  -3800493.166 2
 94  1 21 20 41 30.0020000  0  6 22 19 14 18 29  4
  22108559.783    -1288125.724 8  -4093934.788 8
  24324489.766   -10317389.041 6  -4648578.542 3
  21191193.302   -32228407.420 8 -18757561.307 9
  23062445.571     2233822.122 7 -10270177.855 5
  21626796.151   -24968537.846 9 -13994940.421 9
  25437225.985    -5123725.847 5  -3801058.675 2
 94  1 21 20 42  0.0020000  0  6 22 19 14 18 29  4
  22113201.739    -1263733.512 8  -4074927.858 8
  24310571.721   -10390552.233 6  -4705588.697 3
  21200107.451   -32181575.389 8 -18721068.828 9
  23050752.586     2172369.436 7 -10318063.012 5
  21623664.489   -24984994.608 9 -14007763.865 9
  25437186.262    -5123922.998 4  -3801212.268 2
 94  1 21 20 42 30.0020000  0  6 22 19 14 18 29  4
  22117958.336    -1238743.623 8  -4055455.213 8
  24296694.538   -10463483.008 6  -4762417.764 3
  21209125.508   -32134172.972 8 -18684131.898 9
  23039079.777     2111028.606 7 -10365861.020 5
  21620575.247   -25001222.477 9 -14020408.945 9
  25437242.174    -5123602.644 5  -3800962.734 2
 94  1 21 20 43  0.0020000  0  6 22 19 14 18 29  4
  22122828.554    -1213140.144 8  -4035504.446 8
  24282854.949   -10536185.694 6  -4819069.122 3
  21218252.989   -32086207.475 8 -18646756.195 9
  23027431.701     2049806.745 7 -10413566.322 5
  21617527.977   -25017224.146 9 -14032877.771 9
  25437397.016    -5122785.527 4  -3800326.043 2
 94  1 21 20 43 30.0020000  0  6 22 19 14 18 29  4
  22127821.328    -1186902.049 8  -4015059.196 8
  24269060.839   -10608673.183 5  -4875552.747 3
  21227489.265   -32037687.321 8 -18608948.300 9
  23015802.242     1988713.904 7 -10461171.105 5
  21614525.765   -25033005.648 9 -14045175.048 9
  25437645.934    -5121471.692 4  -3799302.314 2
 94  1 21 20 44  0.0020000  0  6 22 19 14 18 29  4
  22132935.398    -1160019.938 8  -3994112.080 8
  24255305.252   -10680941.364 5  -4931865.503 3
  21236826.661   -31988610.137 8 -18570706.359 9
  23004201.653     1927748.439 7 -10508676.617 5
  21611558.090   -25048565.052 9 -14057299.248 9
  25437976.305    -5119659.832 4  -3797890.453 2
 94  1 21 20 44 30.0020000  0  6 22 19 14 18 29  4
  22138173.371    -1132495.659 8  -3972664.593 8
  24241597.721   -10752975.150 5  -4987995.617 3
  21246272.342   -31938978.059 8 -18532032.038 9
  22992625.227     1866906.786 7 -10556085.650 5
  21608644.137   -25063907.341 9 -14069254.281 9
  25438428.902    -5117347.742 5  -3796088.840 2
 94  1 21 20 45  0.0020000  0  6 22 19 14 18 29  4
  22143532.282    -1104346.810 8  -3950730.423 8
  24227928.624   -10824794.765 5  -5043958.900 3
  21255818.363   -31888798.492 8 -18492931.081 9
  22981074.463     1806185.155 7 -10603401.168 5
  21605759.894   -25079038.779 9 -14081044.977 9
  25438974.584    -5114531.282 5  -3793894.244 2
 94  1 21 20 45 30.0020000  0  6 22 19 14 18 29  4
  22149000.346    -1075614.124 8  -3928341.331 8
  24214302.727   -10896409.810 5  -5099762.709 3
  21265470.391   -31838074.653 8 -18453406.050 9
  22969544.895     1745569.012 7 -10650634.482 5
  21602918.431   -25093974.172 9 -14092682.952 9
  25439598.962    -5111211.053 5  -3791307.095 2
 94  1 21 20 46  0.0020000  0  6 22 19 14 18 29  4
  22154573.578    -1046312.514 8  -3905508.913 8
  24200722.788   -10967821.194 5  -5155407.857 3
  21275230.285   -31786797.440 8 -18413449.789 9
  22958018.475     1685046.315 7 -10697794.984 5
  21600118.159   -25108716.040 9 -14104170.123 9
  25440327.398    -5107395.654 5  -3788334.059 2
 94  1 21 20 46 30.0020000  0  6 22 19 14 18 29  4
  22160256.414    -1016452.118 7  -3882241.073 8
  24187160.657   -11039038.083 5  -5210901.441 3
  21285091.957   -31734968.405 8 -18373063.553 9
  22946519.965     1624616.099 7 -10744883.452 5
  21597348.287   -25123274.150 9 -14115514.092 9
  25441132.401    -5103081.473 4  -3784972.375 2
 94  1 21 20 47  0.0020000  0  6 22 19 14 18 29  4
  22166046.935     -986035.169 7  -3858539.543 8
  24173643.345   -11110061.065 5  -5266243.914 3
  21295059.727   -31682590.892 8 -18332249.920 9
  22935037.224     1564272.386 7 -10791904.474 5
  21594608.364   -25137654.425 9 -14126719.493 9
  25442060.738    -5098280.011 5  -3781231.015 2
 94  1 21 20 47 30.0020000  0  6 22 19 14 18 29  4
  22171940.165     -955041.536 7  -3834388.687 8
  24160174.929   -11180865.770 5  -5321416.372 3
  21305132.843   -31629663.288 8 -18291007.642 9
  22923573.011     1504011.103 7 -10838861.313 5
  21591903.127   -25151863.104 9 -14137791.166 9
  25443064.353    -5092990.940 5  -3777109.671 2
 94  1 21 20 48  0.0020000  0  6 22 19 14 18 29  4
  22177954.841     -923445.560 8  -3809768.444 8
  24146741.589   -11251456.914 5  -5376422.379 3
  21315306.271   -31576189.288 8 -18249339.622 9
  22912119.530     1443836.190 7 -10885750.822 5
  21589239.171   -25165889.152 9 -14148720.557 9
  25444181.020    -5087222.860 5  -3772615.108 2
 94  1 21 20 48 30.0020000  0  6 22 19 14 18 29  4
  22184085.117     -891237.718 7  -3784671.420 8
  24133353.907   -11321813.697 5  -5431245.760 3
  21325583.366   -31522174.951 8 -18207250.523 9
  22900687.994     1383768.374 7 -10932556.887 6
  21586607.982   -25179716.418 9 -14159495.027 9
  25445360.164    -5080970.648 5  -3767743.248 2
 94  1 21 20 49  0.0020000  0  6 22 19 14 18 29  4
  22190332.582     -858403.101 7  -3759086.035 8
  24120013.502   -11391929.807 5  -5485881.613 3
  21335969.676   -31467611.645 8 -18164733.699 9
  22889287.576     1323819.769 7 -10979270.059 6
  21584017.805   -25193322.688 9 -14170097.321 9
  25446613.806    -5074235.617 5  -3762495.227 2
 94  1 21 20 49 30.0020000  0  6 22 19 14 18 29  4
  22196700.714     -824945.412 8  -3733015.125 7
  24106709.342   -11461817.259 5  -5540339.283 3
  21346451.679   -31412506.867 8 -18121794.936 9
  22877893.334     1263989.354 7 -11025891.152 6
  21581468.850   -25206704.374 9 -14180524.603 9
  25448004.843    -5067025.582 4  -3756877.052 2
 94  1 21 20 50  0.0020000  0  6 22 19 14 18 29  4
  22203185.195     -790879.561 7  -3706470.308 7
  24093451.740   -11531482.068 5  -5594623.472 3
  21357042.987   -31356844.394 8 -18078421.590 9
  22866528.262     1204293.206 7 -11072407.603 6
  21578967.082   -25219845.032 9 -14190764.073 9
  25449458.506    -5059336.896 4  -3750885.891 2
 94  1 21 20 50 30.0020000  0  6 22 19 14 18 29  4
  22209777.301     -756232.485 7  -3679472.588 7
  24080246.302   -11600921.108 6  -5648731.707 3
  21367744.648   -31300624.852 8 -18034614.178 9
  22855203.752     1144723.258 7 -11118825.705 6
  21576514.360   -25232751.852 9 -14200821.326 9
  25451024.293    -5051170.305 4  -3744522.325 2
 94  1 21 20 51  0.0020000  0  6 22 19 14 18 29  4
  22216477.243     -721010.428 7  -3652026.848 7
  24067062.899   -11670150.830 5  -5702676.866 3
  21378547.849   -31243851.402 8 -17990375.133 9
  22843886.377     1085269.129 7 -11165153.591 6
  21574102.110   -25245437.823 9 -14210706.493 9
  25452678.667    -5042519.793 5  -3737781.688 2
 94  1 21 20 51 30.0020000  0  6 22 19 14 18 29  4
  22223290.716     -685217.272 7  -3624136.071 7
  24053930.700   -11739168.266 5  -5756456.556 3
  21389456.457   -31186532.437 8 -17945711.018 9
  22832591.096     1025917.635 7 -11211401.460 6
  21571722.657   -25257920.247 9 -14220433.047 9
  25454412.397    -5033378.478 5  -3730658.587 2
 94  1 21 20 52  0.0020000  0  6 22 19 14 18 29  4
  22230207.258     -648851.921 7  -3595799.454 7
  24040836.155   -11807971.940 6  -5810069.716 3
  21400464.687   -31128675.166 8 -17900627.443 9
  22821319.050      966672.214 7 -11257566.700 6
  21569386.494   -25270193.991 9 -14229996.998 9
  25456245.178    -5023740.815 5  -3723148.744 2
 94  1 21 20 52 30.0020000  0  6 22 19 14 18 29  4
  22237233.584     -611915.292 7  -3567017.663 7
  24027787.839   -11876570.867 6  -5863523.317 3
  21411576.374   -31070301.764 8 -17855141.690 9
  22810062.652      907525.171 7 -11303655.273 6
  21567087.566   -25282259.796 9 -14239398.925 9
  25458167.537    -5013607.722 4  -3715252.830 2
 94  1 21 20 53  0.0020000  0  6 22 19 14 18 29  4
  22244377.938     -574396.449 7  -3537782.225 7
  24014770.790   -11944972.816 6  -5916823.454 3
  21422781.177   -31011420.111 8 -17809259.899 9
  22798828.559      848491.154 7 -11349655.777 6
  21564840.052   -25294112.058 9 -14248634.464 9
  25460195.693    -5002983.380 4  -3706974.126 2
 94  1 21 20 53 30.0020000  0  6 22 19 14 18 29  4
  22251626.080     -536307.686 7  -3508102.677 7
  24001788.787   -12013169.127 6  -5969963.384 3
  21434082.513   -30952024.098 8 -17762977.319 9
  22787623.906      789581.093 7 -11395559.677 6
  21562626.175   -25305734.607 9 -14257690.983 9
  25462293.161    -4991893.254 4  -3698332.513 2
 94  1 21 20 54  0.0020000  0  6 22 19 14 18 29  4
  22258978.700     -497654.821 7  -3477983.566 7
  23988849.385   -12081162.268 6  -6022944.944 3
  21445483.501   -30892109.168 8 -17716290.372 9
  22776434.572      730806.228 7 -11441358.241 6
  21560454.538   -25317123.139 9 -14266565.163 9
  25464502.002    -4980354.854 4  -3689341.556 2
 94  1 21 20 54 30.0020000  0  6 22 19 14 18 29  4
  22266448.059     -458427.024 7  -3447416.487 7
  23975951.954   -12148938.710 6  -6075757.661 3
  21456988.006   -30831657.180 8 -17669184.936 9
  22765279.535      672168.324 7 -11487050.075 6
  21558335.665   -25328267.184 9 -14275248.840 9
  25466792.686    -4968351.441 5  -3679988.243 2
 94  1 21 20 55  0.0020000  0  6 22 19 14 18 29  4
  22274025.073     -418614.535 7  -3416393.760 7
  23963098.832   -12216474.060 6  -6128382.519 3
  21468594.112   -30770651.093 8 -17621647.749 9
  22754144.314      613662.943 7 -11532638.636 6
  21556263.289   -25339185.979 9 -14283756.985 9
  25469173.848    -4955889.289 5  -3670277.485 2
 94  1 21 20 55 30.0020000  0  6 22 19 14 18 29  4
  22281710.433     -378211.830 7  -3384911.149 7
  23950297.574   -12283773.125 6  -6180823.258 3
  21480311.350   -30709096.817 8 -17573683.385 9
  22743032.896      555272.619 7 -11578137.553 6
  21554223.172   -25349904.626 9 -14292109.180 9
  25471612.390    -4942957.958 5  -3660201.128 2
 94  1 21 20 56  0.0020000  0  6 22 19 14 18 29  4
  22289514.300     -337200.096 7  -3352953.967 7
  23937533.281   -12350846.047 6  -6233087.817 3
  21492124.612   -30647005.999 8 -17525300.958 9
  22731937.907      496982.372 7 -11623558.492 6
  21552214.682   -25360436.242 9 -14300315.639 9
  25474176.515    -4929526.755 4  -3649735.274 2
 94  1 21 20 56 30.0020000  0  6 22 19 14 18 29  4
  22297431.070     -295601.401 7  -3320539.410 7
  23924809.909   -12417704.628 6  -6285185.307 3
  21504040.103   -30584403.001 8 -17476519.403 9
  22720862.974      438787.201 7 -11668905.336 6
  21550246.215   -25370786.099 9 -14308380.451 9
  25476820.084    -4915606.613 4  -3638888.394 2
 94  1 21 20 57  0.0020000  0  6 22 19 14 18 29  4
  22305456.484     -253417.773 7  -3287669.048 7
  23912131.476   -12484344.868 6  -6337112.682 3
  21516046.281   -30521297.385 8 -17427346.226 9
  22709818.830      380702.641 7 -11714165.977 6
  21548314.173   -25380958.797 9 -14316307.230 9
  25479562.226    -4901212.988 5  -3627672.586 2
 94  1 21 20 57 30.0020000  0  6 22 19 14 18 29  4
  22313596.808     -210657.830 7  -3254349.655 7
  23899490.277   -12550772.819 6  -6388874.689 3
  21528145.965   -30457710.255 8 -17377797.826 9
  22698779.602      322741.047 7 -11759330.836 6
  21546412.169   -25390915.064 9 -14324065.372 9
  25482391.188    -4886342.091 4  -3616084.927 2
 94  1 21 20 58  0.0020000  0  6 22 19 14 18 29  4
  22321837.443     -167342.155 7  -3220597.171 7
  23886890.780   -12616971.726 6  -6440458.181 3
  21540337.864   -30393644.981 8 -17327876.850 9
  22687774.401      264902.474 7 -11804399.806 6
  21544566.887   -25400630.348 9 -14331635.724 9
  25485316.652    -4871017.814 4  -3604143.922 2
 94  1 21 20 58 30.0020000  0  6 22 19 14 18 29  4
  22330187.683     -123467.855 7  -3186409.439 7
  23874341.198   -12682912.753 6  -6491840.749 3
  21552622.070   -30329086.359 8 -17277571.466 9
  22676798.009      207213.161 7 -11849352.495 6
  21542764.984   -25410088.652 9 -14339005.835 9
  25488303.365    -4855247.565 4  -3591855.436 2
 94  1 21 20 59  0.0020000  0  6 22 19 14 18 29  4
  22338645.518      -79008.913 7  -3151766.107 7
  23861844.469   -12748588.421 6  -6543016.495 3
  21565006.377   -30264009.687 8 -17226862.374 9
  22665851.238      149662.696 7 -11894196.968 6
  21541020.432   -25419274.655 9 -14346163.755 9
  25491412.692    -4839004.454 4  -3579198.520 2
 94  1 21 20 59 30.0020000  0  6 22 19 14 18 29  4
  22347217.963      -33967.691 7  -3116669.076 7
  23849391.420   -12814011.223 5  -6593995.270 3
  21577495.131   -30198398.124 8 -17175736.516 9
  22654913.100       92241.417 7 -11938940.800 6
  21539325.405   -25428178.852 9 -14353102.107 9
  25494585.606    -4822277.530 4  -3566164.543 2
 94  1 21 21  0  0.0020000  0  6 22 19 14 18 29  4
  22355896.955       11639.470 7  -3081131.062 7
  23836987.087   -12879209.745 6  -6644799.219 3
  21590080.568   -30132241.424 8 -17124185.863 9
  22644016.963       34932.651 7 -11983596.971 6
  21537678.316   -25436835.392 9 -14359847.463 9
  25497852.504    -4805076.013 4  -3552760.796 2
 94  1 21 21  0 30.0020000  0  6 22 19 14 18 29  4
  22364680.544       57805.076 7  -3045157.860 7
  23824623.916   -12944208.057 6  -6695447.217 3
  21602777.288   -30065532.926 8 -17072205.238 9
  22633125.893      -22262.522 7 -12028164.606 6
  21536081.051   -25445246.470 9 -14366401.548 9
  25501216.505    -4787395.654 4  -3538983.876 2
 94  1 21 21  1  0.0020000  0  6 22 19 14 18 29  4
  22373572.298      104515.870 7  -3008759.863 7
  23812286.227   -13009024.836 6  -6745953.763 4
  21615575.099   -29998279.944 8 -17019800.321 9
  22622266.301      -79357.258 8 -12072653.992 6
  21534521.201   -25453429.912 9 -14372778.265 9
  25504660.821    -4769248.821 4  -3524843.542 2
 94  1 21 21  1 30.0020000  0  6 22 19 14 18 29  4
  22382562.954      151763.684 7  -2971943.408 7
  23799989.310   -13073652.469 6  -6796312.891 4
  21628468.363   -29930503.707 8 -16966987.709 9
  22611420.919     -136337.347 7 -12117054.034 6
  21533000.054   -25461399.404 9 -14378988.252 9
  25508212.612    -4750661.824 4  -3510360.206 2
 94  1 21 21  2  0.0020000  0  6 22 19 14 18 29  4
  22391657.728      199555.038 7  -2934703.406 7
  23787729.687   -13138070.056 6  -6846508.337 4
  21641465.175   -29862222.076 8 -16913781.254 9
  22600602.608     -193185.448 7 -12161351.256 6
  21531527.744   -25469160.253 9 -14385035.662 9
  25511836.653    -4731641.540 4  -3495539.176 2
 94  1 21 21  2 30.0020000  0  6 22 19 14 18 29  4
  22400851.973      247897.628 7  -2897033.892 7
  23775515.903   -13202275.245 6  -6896538.342 4
  21654551.956   -29793457.433 8 -16860198.451 9
  22589815.446     -249892.792 7 -12205538.779 6
  21530080.376   -25476727.423 9 -14390932.178 9
  25515516.036    -4712201.899 4  -3480391.430 2
 94  1 21 21  3  0.0020000  0  6 22 19 14 18 29  4
  22410161.758      296799.683 7  -2858928.409 7
  23763334.946   -13266261.416 6  -6946397.604 4
  21667724.986   -29724230.766 8 -16806255.608 9
  22579049.060     -306455.907 7 -12249613.924 6
  21528681.304   -25484115.014 9 -14396688.738 9
  25519309.070    -4692353.548 4  -3464925.215 2
 94  1 21 21  3 30.0020000  0  6 22 19 14 18 29  4
  22419575.601      346272.331 7  -2820378.309 7
  23751204.323   -13330017.562 6  -6996077.673 4
  21680987.804   -29654531.152 8 -16751944.238 9
  22568317.959     -362855.213 8 -12293561.418 7
  21527316.709   -25491289.641 9 -14402279.353 9
  25523165.780    -4672071.013 4  -3449120.713 2
 94  1 21 21  4  0.0020000  0  6 22 19 14 18 29  4
  22429097.519      396305.306 7  -2781391.602 7
  23739113.993   -13393547.524 6  -7045581.473 4
  21694341.640   -29584335.935 8 -16697246.715 9
  22557616.567     -419084.772 8 -12337376.667 7
  21525989.528   -25498239.108 8 -14407694.527 9
  25527110.839    -4651337.679 5  -3432964.880 2
 94  1 21 21  4 30.0020000  0  6 22 19 14 18 29  4
  22438720.197      446874.743 7  -2741986.856 7
  23727065.544   -13456859.810 6  -7094915.661 4
  21707795.396   -29513650.621 8 -16642167.263 9
  22546945.874     -475161.949 8 -12381073.137 7
  21524719.127   -25504961.185 9 -14412932.520 9
  25531139.480    -4630147.672 4  -3416453.216 2
 94  1 21 21  5  0.0020000  0  6 22 19 14 18 29  4
  22448441.327      497958.930 7  -2702181.021 7
  23715058.527   -13519951.681 6  -7144078.107 4
  21721340.619   -29442475.152 8 -16586705.879 9
  22536300.814     -531110.637 8 -12424669.512 7
  21523479.455   -25511438.700 8 -14417979.926 9
  25535284.261    -4608481.807 5  -3399570.727 2
 94  1 21 21  5 30.0020000  0  6 22 19 14 18 29  4
  22458255.993      549542.220 7  -2661986.264 7
  23703097.077   -13582825.076 6  -7193070.287 4
  21734976.079   -29370817.051 8 -16530868.420 9
  22525676.349     -586928.418 8 -12468163.877 7
  21522297.673   -25517669.181 9 -14422834.848 9
  25539489.689    -4586335.440 4  -3382313.840 2
 94  1 21 21  6  0.0020000  0  6 22 19 14 18 29  4
  22468167.251      601624.177 7  -2621402.937 7
  23691172.982   -13645479.079 6  -7241891.533 4
  21748699.589   -29298697.029 8 -16474671.030 9
  22515079.585     -642623.052 8 -12511562.271 7
  21521157.353   -25523665.065 9 -14427506.966 9
  25543798.336    -4563714.611 4  -3364687.234 2
 94  1 21 21  6 30.0020000  0  6 22 19 14 18 29  4
  22478180.050      654241.245 7  -2580402.638 7
  23679295.115   -13707909.273 6  -7290538.363 4
  21762510.517   -29226122.758 8 -16418119.685 9
  22504506.534     -698192.117 8 -12554862.830 7
  21520058.344   -25529410.355 9 -14431983.810 9
  25548176.835    -4540609.354 4  -3346683.171 2
 94  1 21 21  7  0.0020000  0  6 22 19 14 18 29  4
  22488301.043      707427.362 7  -2538958.931 7
  23667458.529   -13770118.243 6  -7339012.845 4
  21776407.097   -29153084.556 8 -16361206.830 9
  22493956.598     -753618.537 8 -12598052.253 7
  21519020.042   -25534894.080 9 -14436256.871 9
  25552678.159    -4517040.846 4  -3328318.161 2
 94  1 21 21  7 30.0020000  0  6 22 19 14 18 29  4
  22498532.450      761195.095 7  -2497061.995 7
  23655662.805   -13832100.679 6  -7387310.761 4
  21790396.432   -29079584.547 8 -16303934.104 9
  22483440.778     -808885.297 8 -12641117.224 7
  21518022.993   -25540110.894 8 -14440321.902 9
  25557240.341    -4493038.446 4  -3309614.932 2
 94  1 21 21  8  0.0020000  0  6 22 19 14 18 29  4
  22508875.230      815544.794 7  -2454711.597 7
  23643901.947   -13893866.256 6  -7435439.718 4
  21804473.007   -29005609.478 8 -16246291.205 9
  22472945.823     -864016.217 8 -12684076.364 7
  21517083.083   -25545064.519 9 -14444181.874 9
  25561885.865    -4468614.946 4  -3290583.682 2
 94  1 21 21  8 30.0030000  0  6 22 19 14 18 29  4
  22519327.494      870466.621 7  -2411915.391 7
  23632190.075   -13955413.809 6  -7483398.778 4
  21818644.227   -28931138.440 8 -16188261.860 9
  22462488.343     -919005.912 8 -12726925.457 7
  21516188.653   -25549748.488 9 -14447831.721 9
  25566629.930    -4443785.924 5  -3271236.396 2
 94  1 21 21  9  0.0030000  0  6 22 19 14 18 29  4
  22529879.649      925912.439 7  -2368710.853 7
  23620524.491   -14016730.824 6  -7531178.218 4
  21832910.511   -28856171.021 8 -16129845.706 9
  22452045.612     -973847.057 8 -12769658.805 7
  21515348.124   -25554183.829 9 -14451287.838 9
  25571415.338    -4418566.112 4  -3251584.612 2
 94  1 21 21  9 30.0030000  0  6 22 19 14 18 29  4
  22540519.583      981850.586 7  -2325122.733 7
  23608898.989   -14077811.462 6  -7578773.440 4
  21847273.237   -28780692.214 8 -16071031.078 9
  22441643.204    -1028543.243 8 -12812279.188 7
  21514546.150   -25558391.363 8 -14454566.442 9
  25576272.965    -4392930.862 4  -3231609.115 2
 94  1 21 21 10  0.0030000  0  6 22 19 14 18 29  4
  22551259.678     1038287.686 7  -2281145.773 7
  23597319.865   -14138657.162 6  -7626185.629 4
  21861737.714   -28704683.299 8 -16011803.377 9
  22431262.380    -1083079.857 8 -12854775.221 7
  21513792.112   -25562370.540 9 -14457667.100 9
  25581242.744    -4366853.704 4  -3211289.266 2
 94  1 21 21 10 30.0030000  0  6 22 19 14 18 29  4
  22562096.995     1095234.528 7  -2236771.638 7
  23585788.319   -14199251.073 6  -7673401.577 4
  21876302.741   -28628145.902 8 -15952163.858 9
  22420916.572    -1137437.057 8 -12897131.451 7
  21513078.636   -25566112.495 8 -14460582.909 9
  25586302.282    -4340324.946 4  -3190617.507 2
 94  1 21 21 11  0.0030000  0  6 22 19 14 18 29  4
  22573031.595     1152694.646 7  -2191997.524 7
  23574308.966   -14259595.483 6  -7720423.116 4
  21890963.491   -28551094.251 8 -15892123.649 9
  22410608.628    -1191617.288 8 -12939349.783 7
  21512409.919   -25569621.135 9 -14463316.917 9
  25591428.043    -4313340.814 4  -3169590.959 2
 94  1 21 21 11 30.0030000  0  6 22 19 14 18 29  4
  22584069.414     1210691.710 7  -2146805.032 7
  23562870.414   -14319691.814 6  -7767251.371 4
  21905717.687   -28473560.799 8 -15831707.989 9
  22400331.353    -1245624.783 8 -12981433.523 7
  21511790.577   -25572862.210 8 -14465842.422 9
  25596635.528    -4285900.906 4  -3148209.219 2
 94  1 21 21 12  0.0030000  0  6 22 19 14 18 29  4
  22595213.809     1269247.575 7  -2101177.089 7
  23551484.836   -14379537.559 6  -7813884.344 4
  21920558.043   -28395575.799 8 -15770940.477 8
  22390086.456    -1299470.586 8 -13023391.237 7
  21511230.535   -25575812.192 9 -14468141.108 9
  25601962.480    -4258018.447 4  -3126482.617 2
 94  1 21 21 12 30.0030000  0  6 22 19 14 18 29  4
  22606456.836     1328351.813 7  -2055121.883 7
  23540145.666   -14439123.729 6  -7860315.065 4
  21935483.301   -28317160.166 8 -15709837.414 8
  22379867.670    -1353160.330 8 -13065227.394 7
  21510726.554   -25578469.648 9 -14470211.865 9
  25607344.534    -4229700.004 4  -3104416.323 2
 94  1 21 21 13  0.0030000  0  6 22 19 14 18 29  4
  22617810.456     1387992.877 7  -2008648.342 7
  23528856.741   -14498452.546 6  -7906545.245 4
  21950480.748   -28238324.101 8 -15648406.754 8
  22369684.799    -1406683.455 8 -13106933.685 7
  21510273.567   -25580835.909 8 -14472055.702 9
  25612819.764    -4200943.973 4  -3082009.054 2
 94  1 21 21 13 30.0030000  0  6 22 19 14 18 29  4
  22629257.761     1448169.280 7  -1961757.669 7
  23517611.706   -14557534.002 6  -7952582.703 4
  21965566.455   -28159064.304 8 -15586645.889 8
  22359528.191    -1460041.470 8 -13148511.342 7
  21509877.482   -25582921.095 9 -14473680.529 9
  25618382.083    -4171748.326 4  -3059259.226 2
 94  1 21 21 14  0.0030000  0  6 22 19 14 18 29  4
  22640814.131     1508884.731 7  -1914446.982 7
  23506413.648   -14616375.558 6  -7998433.213 4
  21980736.823   -28079341.284 8 -15524524.112 8
  22349408.427    -1513220.833 8 -13189949.811 7
  21509528.134   -25584749.304 8 -14475105.122 9
  25624029.124    -4142111.734 4  -3036165.776 2
 94  1 21 21 14 30.0030000  0  6 22 19 14 18 29  4
  22652468.382     1570119.921 7  -1866731.235 6
  23495256.123   -14674986.244 6  -8044103.781 4
  21995997.937   -27999138.280 8 -15462028.266 8
  22339328.205    -1566207.917 8 -13231238.380 7
  21509232.808   -25586325.107 8 -14476332.994 9
  25629729.467    -4112041.676 4  -3012734.566 2
 94  1 21 21 15  0.0030000  0  6 22 19 14 18 29  4
  22664219.527     1631883.254 7  -1818604.015 6
  23484148.572   -14733378.438 6  -8089604.172 4
  22011351.838   -27918453.436 8 -15399157.016 8
  22329279.372    -1619006.705 8 -13272380.292 7
  21508974.207   -25587645.839 9 -14477362.159 9
  25635534.469    -4081546.203 4  -2988971.907 2
 94  1 21 21 15 30.0030000  0  6 22 19 14 18 29  4
  22676075.210     1694172.779 7  -1770066.720 6
  23473078.436   -14791563.904 6  -8134943.423 4
  22026797.445   -27837285.940 8 -15335909.628 8
  22319259.498    -1671641.045 8 -13313394.009 7
  21508777.393   -25588703.878 8 -14478186.584 9
  25641421.104    -4050639.734 4  -2964888.885 2
 94  1 21 21 16  0.0030000  0  6 22 19 14 18 29  4
  22688024.128     1756983.928 7  -1721123.016 6
  23462049.611   -14849527.425 6  -8180109.761 4
  22042333.680   -27755646.168 8 -15272294.255 8
  22309285.703    -1724099.320 8 -13354270.567 7
  21508630.915   -25589478.788 8 -14478790.433 9
  25647389.012    -4019317.899 4  -2940482.322 2
 94  1 21 21 16 30.0030000  0  6 22 19 14 18 29  4
  22700076.744     1820312.630 7  -1671776.014 6
  23451058.530   -14907253.195 6  -8225090.851 4
  22057954.306   -27673546.422 7 -15208320.463 7
  22299335.441    -1776377.106 8 -13395006.507 7
  21508541.816   -25589950.188 8 -14479157.768 9
  25653415.500    -3987574.342 4  -2915747.101 2
 94  1 21 21 17  0.0030000  0  6 22 19 14 18 29  4
  22712226.912     1884164.011 7  -1622021.689 6
  23440119.673   -14964736.909 6  -8269883.266 4
  22073666.609   -27590983.626 7 -15143985.832 8
  22289415.249    -1828475.461 8 -13435602.596 7
  21508513.936   -25590111.683 8 -14479283.583 9
  25659543.198    -3955396.576 4  -2890673.552 2
 94  1 21 21 17 30.0030000  0  6 22 19 14 18 29  4
  22724468.338     1948513.930 7  -1571878.948 6
  23429233.789   -15021977.023 6  -8314485.951 4
  22089465.881   -27507965.225 7 -15079296.228 7
  22279537.237    -1880397.846 8 -13476061.611 7
  21508535.820   -25589971.591 8 -14479174.476 9
  25665761.703    -3922797.400 4  -2865271.587 2
 94  1 21 21 18  0.0030000  0  6 22 19 14 18 29  4
  22736811.573     2013352.693 7  -1521355.214 6
  23418384.840   -15078973.216 6  -8358898.513 4
  22105349.575   -27424496.971 8 -15014256.026 8
  22269694.182    -1932135.542 8 -13516376.640 7
  21508615.835   -25589551.487 8 -14478847.082 9
  25672018.431    -3889783.118 4  -2839546.169 2
 94  1 21 21 18 30.0030000  0  6 22 19 14 18 29  4
  22749244.656     2078699.433 7  -1470435.686 7
  23407590.542   -15135713.525 6  -8403111.696 4
  22121323.986   -27340548.679 8 -14948841.804 8
  22259879.846    -1983687.468 8 -13556546.953 7
  21508752.690   -25588837.943 9 -14478291.091 9
  25678402.302    -3856347.161 5  -2813492.193 2
 94  1 21 21 19  0.0030000  0  6 22 19 14 18 29  4
  22761779.878     2144571.532 7  -1419106.829 6
  23396842.203   -15192189.405 6  -8447118.849 4
  22137392.142   -27256109.298 8 -14883044.938 8
  22250107.571    -2035039.248 8 -13596561.311 7
  21508941.260   -25587830.185 8 -14477505.830 9
  25684837.167    -3822478.008 4  -2787100.667 2
 94  1 21 21 19 30.0030000  0  6 22 19 14 18 29  4
  22774421.526     2210984.859 7  -1367356.220 6
  23386147.677   -15248385.346 6  -8490907.852 4
  22153553.714   -27171190.760 7 -14816874.684 7
  22240380.595    -2086172.732 8 -13636405.583 7
  21509193.205   -25586528.490 8 -14476491.548 9
  25691370.694    -3788173.842 4  -2760370.164 2
 94  1 21 21 20  0.0030000  0  5 22 19 14 18 29
  22787161.087     2277940.443 7  -1315183.023 6
  23375507.593   -15304312.298 6  -8534487.233 4
  22169798.268   -27085813.352 7 -14750346.848 7
  22230695.290    -2137091.771 8 -13676082.722 7
  21509490.689   -25584955.348 8 -14475265.700 9
 94  1 21 21 20 30.0030000  0  5 22 19 14 18 29
  22800005.754     2345441.774 7  -1262584.613 6
  23364914.696   -15359970.680 6  -8577857.378 4
  22186132.550   -26999979.100 7 -14683463.034 7
  22221043.322    -2187793.524 8 -13715590.551 7
  21509845.044   -25583096.668 8 -14473817.377 9
 94  1 21 21 21  0.0030000  0  5 22 19 14 18 29
  22812955.350     2413481.053 7  -1209567.020 6
  23354379.689   -15415360.853 7  -8621018.519 4
  22202550.414   -26913701.685 7 -14616233.930 7
  22211439.111    -2238260.017 8 -13754915.088 7
  21510253.901   -25580952.398 8 -14472146.524 9
 94  1 21 21 21 30.0030000  0  5 22 19 14 18 29
  22825996.412     2482032.376 7  -1156150.394 6
  23343881.827   -15470482.956 6  -8663970.758 4
  22219053.120   -26826990.291 8 -14548666.644 7
  22201880.438    -2288496.379 8 -13794060.261 7
  21510716.691   -25578518.415 8 -14470249.900 9
 94  1 21 21 22  0.0030000  0  5 22 19 14 18 29
  22839137.814     2551084.393 7  -1102343.661 6
  23333443.653   -15525344.586 7  -8706720.011 4
  22235635.180   -26739826.663 8 -14480746.963 8
  22192363.077    -2338513.508 8 -13833034.634 7
  21511233.983   -25575784.713 8 -14468119.746 9
 94  1 21 21 22 30.0030000  0  5 22 19 14 18 29
  22852367.445     2620613.216 7  -1048165.403 6
  23323046.161   -15579965.406 6  -8749281.661 4
  22252310.596   -26652220.117 8 -14412482.162 7
  22182885.228    -2388323.730 8 -13871847.784 7
  21511815.970   -25572736.894 9 -14465744.833 9
 94  1 21 21 23  0.0030000  0  6 28 22 19 14 18 29
  25770794.410     -355428.61814   -302277.268 1
  22865689.263     2690621.857 7   -993613.240 6
  23312701.463   -15634345.364 6  -8791655.617 4
  22269061.619   -26564180.420 7 -14343879.846 7
  22173440.806    -2437923.745 8 -13910497.136 7
  21512457.825   -25569365.733 8 -14463117.957 9
 94  1 21 21 23 30.0030000  0  6 28 22 19 14 18 29
  25759343.717     -415596.280 4   -349160.970 1
  22879103.926     2761113.821 7   -938684.441 6
  23302398.075   -15688493.573 7  -8833848.985 4
  22285898.504   -26475709.968 7 -14274941.847 7
  22164046.750    -2487326.547 8 -13948992.784 7
  21513162.098   -25565662.161 8 -14460232.030 9
 94  1 21 21 24  0.0030000  0  6 28 22 19 14 18 29
  25747920.156     -475630.474 4   -395940.812 1
  22892609.906     2832090.444 7   -883378.026 6
  23292133.601   -15742425.779 7  -8875874.040 4
  22302811.415   -26386816.007 7 -14205673.868 7
  22154676.766    -2536536.954 8 -13987338.557 8
  21513928.097   -25561635.359 8 -14457094.277 9
 94  1 21 21 24 30.0030000  0  7 28 22 19 27 14 18 29
  25736506.367     -535554.025 4   -442634.531 1
  22906211.220     2903551.575 7   -827694.054 6
  23281914.516   -15796133.440 7  -8917724.115 4
  25848507.301      600984.70615   -530563.255 1
  22319808.298   -26297512.992 7 -14136087.143 7
  22145351.062    -2585545.848 8 -14025527.294 7
  21514757.144   -25557280.536 8 -14453700.918 9
 94  1 21 21 25  0.0030000  0  7 28 22 19 27 14 18 29
  25725142.554     -595367.694 4   -489242.555 1
  22919895.786     2975489.654 7   -771638.431 6
  23271737.072   -15849609.705 6  -8959393.871 5
  25834101.704      525284.050 5   -589550.665 1
  22336880.070   -26207796.751 7 -14066178.423 7
  22136062.683    -2634358.862 8 -14063563.375 8
  21515644.829   -25552619.747 8 -14450069.110 9
 94  1 21 21 25 30.0030000  0  7 28 22 19 27 14 18 29
  25713768.399     -655054.914 4   -535752.064 1
  22933677.246     3047882.986 7   -715228.051 6
  23261607.684   -15902839.695 6  -9000871.737 4
  25819723.298      449701.927 5   -648445.718 1
  22354035.363   -26117646.237 7 -13995931.296 7
  22126816.933    -2682968.864 8 -14101441.291 8
  21516586.207   -25547673.539 8 -14446214.926 9
 94  1 21 21 26  0.0030000  0  7 28 22 19 27 14 18 29
  25702431.177     -714629.576 4   -582173.899 1
  22947534.642     3120730.396 7   -658463.876 6
  23251529.681   -15955803.381 7  -9042142.103 5
  25805359.881      374264.055 5   -707228.390 1
  22371272.620   -26027059.841 7 -13925344.537 7
  22117602.692    -2731368.427 8 -14139155.238 8
  21517577.561   -25542459.740 8 -14442152.230 9
 94  1 21 21 26 30.0030000  0  7 28 22 19 27 14 18 29
  25691113.832     -774101.025 4   -628515.272 2
  22961486.474     3194021.330 7   -601354.068 6
  23241499.765   -16008514.396 6  -9083215.561 5
  25791031.391      298952.759 4   -765912.347 1
  22388593.939   -25936051.852 7 -13854429.251 7
  22108431.471    -2779571.371 8 -14176715.926 8
  21518620.569   -25536985.460 8 -14437886.540 9
 94  1 21 21 27  0.0030000  0  7 28 22 19 27 14 18 29
  25679824.487     -833446.561 4   -674758.578 2
  22975513.853     3267751.842 7   -543901.747 6
  23231511.909   -16060990.536 6  -9124106.011 5
  25776719.508      223749.367 4   -824512.276 1
  22405990.086   -25844627.277 8 -13783189.368 7
  22099294.187    -2827583.716 8 -14214128.145 8
  21519706.237   -25531267.124 8 -14433430.709 9
 94  1 21 21 27 30.0030000  0  7 28 22 19 27 14 18 29
  25668561.585     -892670.162 3   -720906.833 2
  22989632.908     3341946.541 7   -486087.710 6
  23221570.191   -16113234.245 7  -9164815.353 5
  25762423.515      148640.862 4   -883038.274 1
  22423463.399   -25752795.677 7 -13711632.306 7
  22090192.758    -2875401.577 8 -14251388.785 8
  21520844.729   -25525289.190 8 -14428772.565 9
 94  1 21 21 28  0.0030000  0  7 28 22 19 27 14 18 29
  25657302.189     -951778.853 4   -766965.556 2
  23003843.401     3416624.164 7   -427897.386 6
  23211670.655   -16165265.992 6  -9205359.515 5
  25748151.985       73618.414 3   -941497.213 1
  22441011.211   -25660586.281 7 -13639780.864 7
  22081128.053    -2923030.904 8 -14288502.526 8
  21522037.783   -25519031.326 8 -14423896.287 9
 94  1 21 21 28 30.0030000  0  7 28 22 19 27 14 18 29
  25646084.615    -1010758.356 4   -812923.640 2
  23018145.599     3491776.493 7   -369337.157 6
  23201807.693   -16217103.114 7  -9245752.036 5
  25733898.623       -1339.008 3   -999905.435 1
  22458627.316   -25568007.732 7 -13567641.795 7
  22072108.617    -2970462.714 9 -14325462.376 8
  21523286.869   -25512476.405 8 -14418788.586 9
 94  1 21 21 29  0.0030000  0  7 28 22 19 27 14 18 29
  25634890.485    -1069603.597 5   -858777.163 2
  23032535.038     3567399.603 7   -310410.080 6
  23191979.477   -16268724.284 6  -9285976.283 5
  25719643.162      -76219.895 4  -1058253.992 2
  22476315.970   -25475052.576 7 -13495209.240 7
  22063116.372    -3017688.198 8 -14362261.428 8
  21524586.619   -25505623.900 8 -14413448.945 9
 94  1 21 21 29 30.0030000  0  7 28 22 19 27 14 18 29
  25623720.158    -1128321.918 4   -904531.684 1
  23047015.433     3643490.283 7   -251118.666 6
  23182205.883   -16320109.832 7  -9326016.907 5
  25705419.269     -151005.282 3  -1116528.175 2
  22494077.264   -25381729.106 7 -13422489.700 7
  22054170.446    -3064696.291 8 -14398891.081 9
  21525949.925   -25498456.773 8 -14407864.171 9
 94  1 21 21 30  0.0030000  0  7 28 22 19 27 14 18 29
  25612555.857    -1186901.769 3   -950178.377 2
  23061581.479     3720028.876 7   -191478.245 6
  23172477.138   -16371256.004 7  -9365871.030 5
  25691192.767     -225675.742 3  -1174712.873 2
  22511906.641   -25288034.944 7 -13349481.293 7
  22045274.554    -3111480.141 8 -14435346.016 9
  21527376.008   -25490972.552 8 -14402032.298 9
 94  1 21 21 30 30.0030000  0  7 28 22 19 27 14 18 29
  25601451.094    -1245330.194 3   -995706.930 2
  23076228.529     3797006.594 7   -131495.649 6
  23162786.587   -16422148.439 7  -9405527.444 5
  25677005.599     -300228.992 3  -1232806.133 2
  22529811.026   -25193946.283 7 -13276165.512 7
  22036408.672    -3158043.525 8 -14471629.156 9
  21528858.781   -25483170.317 8 -14395952.644 9
 94  1 21 21 31  0.0030000  0  7 28 22 19 27 14 18 29
  25590363.060    -1303599.734 4  -1041111.620 2
  23090963.509     3874435.470 7    -71161.488 6
  23153156.713   -16472766.774 7  -9444970.263 5
  25662819.330     -374644.477 3  -1290792.091 2
  22547792.548   -25099448.850 7 -13202531.199 7
  22027592.345    -3204385.501 8 -14507739.773 9
  21530404.361   -25475039.659 8 -14389617.067 9
 94  1 21 21 31 30.0030000  0  7 28 22 19 27 14 18 29
  25579298.050    -1361724.981 5  -1086403.958 2
  23105779.672     3952297.766 7    -10489.611 6
  23143568.691   -16523138.954 7  -9484221.284 5
  25648701.503     -448937.046 3  -1348682.217 2
  22565843.472   -25004567.016 7 -13128597.341 7
  22018809.985    -3250526.343 8 -14543693.658 9
  21532014.307   -25466584.602 8 -14383028.702 9
 94  1 21 21 32  0.0030000  0  7 28 22 19 27 14 18 29
  25568266.587    -1419717.575 5  -1131592.854 2
  23120677.528     4030580.754 7     50510.084 6
  23134027.136   -16573277.033 7  -9523289.879 5
  25634589.583     -523111.106 3  -1406480.040 2
  22583977.258   -24909291.025 7 -13054356.354 7
  22010066.208    -3296476.260 8 -14579498.772 9
  21533685.230   -25457818.782 8 -14376198.200 9
 94  1 21 21 32 30.0030000  0  7 28 22 19 27 14 18 29
  25557260.547    -1477587.881 5  -1176686.529 2
  23135651.232     4109276.555 7    111831.426 6
  23124531.030   -16623176.923 7  -9562172.877 6
  25620505.753     -597179.535 4  -1464195.551 2
  22602182.754   -24813626.827 7 -12979812.844 7
  22001355.349    -3342231.979 8 -14615152.573 9
  21535410.536   -25448744.168 8 -14369127.071 9
 94  1 21 21 33  0.0030000  0  7 28 22 19 27 14 18 29
  25546266.827    -1535337.641 4  -1221686.200 2
  23150707.439     4188376.782 7    173467.908 6
  23115076.925   -16672853.569 7  -9600881.951 5
  25606430.797     -671148.280 4  -1521833.423 2
  22620455.554   -24717598.942 7 -12904985.981 7
  21992696.563    -3387768.785 9 -14650635.803 9
  21537192.472   -25439374.537 8 -14361826.086 9
 94  1 21 21 33 30.0030000  0  7 28 22 19 27 14 18 29
  25535300.809    -1592947.184 4  -1266576.586 2
  23165835.206     4267891.419 7    235427.324 6
  23105669.408   -16722309.564 7  -9639419.038 5
  25592362.286     -745016.304 4  -1579392.733 2
  22638801.474   -24621206.122 7 -12829874.709 7
  21984077.350    -3433062.882 9 -14685929.885 9
  21539033.377   -25429715.355 8 -14354299.445 9
 94  1 21 21 34  0.0030000  0  7 28 22 19 27 14 18 29
  25524359.943    -1650395.066 4  -1311341.036 2
  23181046.076     4347827.038 7    297714.779 6
  23096297.686   -16771539.072 7  -9677779.662 6
  25578329.481     -818785.458 5  -1636875.087 2
  22657211.039   -24524449.501 7 -12754479.954 7
  21975507.273    -3478085.617 9 -14721012.523 9
  21540925.697   -25419771.117 8 -14346550.696 9
 94  1 21 21 34 30.0030000  0  7 28 22 19 27 14 18 29
  25513469.533    -1707650.528 4  -1355955.528 2
  23196341.097     4428185.081 7    360331.395 6
  23086973.901   -16820546.276 7  -9715967.042 6
  25564311.156     -892470.321 5  -1694291.717 2
  22675689.017   -24427344.975 7 -12678814.137 7
  21966992.717    -3522836.258 9 -14755883.128 9
  21542866.734   -25409540.909 8 -14338579.119 9
 94  1 21 21 35  0.0030000  0  7 28 22 19 27 14 18 29
  25502618.964    -1764690.600 5  -1400402.250 2
  23211708.908     4508978.583 7    423287.336 6
  23077693.225   -16869325.813 7  -9753977.035 6
  25550308.150     -966059.877 5  -1751634.061 2
  22694234.838   -24329895.505 7 -12602879.520 7
  21958529.007    -3567321.425 9 -14790546.882 9
  21544873.005   -25399026.288 8 -14330385.907 9
 94  1 21 21 35 30.0030000  0  7 28 22 19 27 14 18 29
  25491801.973    -1821521.514 5  -1444685.968 2
  23227174.572     4590207.155 7    486582.289 6
  23068461.956   -16917865.622 7  -9791800.230 6
  25536316.566    -1039549.002 5  -1808898.191 2
  22712842.177   -24232095.453 7 -12526671.744 7
  21950102.980    -3611575.505 8 -14825030.568 9
  21546931.170   -25388208.894 8 -14321956.781 9
 94  1 21 21 36  0.0030000  0  7 28 22 19 27 14 18 29
  25481029.350    -1878149.262 4  -1488811.426 2
  23242703.791     4671851.698 7    550201.380 6
  23059267.921   -16966159.968 7  -9829432.147 6
  25522358.679    -1112930.521 5  -1866078.480 2
  22731520.806   -24133944.014 7 -12450190.139 7
  21941723.001    -3655625.477 9 -14859355.200 9
  21549047.075   -25377077.981 8 -14313283.351 9
 94  1 21 21 36 30.0030000  0  7 28 22 19 27 14 18 29
  25470294.892    -1934580.072 5  -1532783.360 2
  23258325.376     4753923.213 7    614153.169 6
  23050122.602   -17014205.362 7  -9866870.072 6
  25508417.460    -1186194.536 5  -1923167.191 2
  22750271.745   -24035422.235 7 -12373419.968 7
  21933375.430    -3699483.684 8 -14893530.412 9
  21551223.538   -25365622.437 8 -14304356.973 9
 94  1 21 21 37  0.0030000  0  7 28 22 19 27 14 18 29
  25459581.299    -1990817.960 5  -1576605.086 2
  23274026.677     4836432.304 7    678445.929 6
  23041025.640   -17062004.696 7  -9904116.269 6
  25494503.133    -1259326.158 5  -1980152.761 2
  22769092.175   -23936519.475 7 -12296352.950 7
  21925068.211    -3743131.954 8 -14927542.040 9
  21553473.601   -25353820.211 8 -14295160.441 9
 94  1 21 21 37 30.0030000  0  7 28 22 19 27 14 18 29
  25448920.469    -2046883.552 5  -1620292.532 2
  23289807.782     4919355.520 7    743061.389 6
  23031973.197   -17109588.247 7  -9941194.325 6
  25480601.067    -1332348.008 5  -2037052.814 2
  22787981.978   -23837245.842 7 -12218996.901 7
  21916803.952    -3786570.202 9 -14961390.015 9
  21555788.208   -25341672.263 8 -14285694.511 9
 94  1 21 21 38  0.0030000  0  7 28 22 19 27 14 18 29
  25438279.605    -2102770.557 4  -1663840.852 2
  23305662.306     5002684.964 7    807993.359 6
  23022953.761   -17156965.116 7  -9978111.342 6
  25466728.980    -1405272.660 5  -2093877.098 2
  22806937.646   -23737617.307 7 -12141364.349 7
  21908585.082    -3829768.979 9 -14995051.385 9
  21558158.637   -25329195.739 8 -14275972.559 9
 94  1 21 21 38 30.0030000  0  7 28 22 19 27 14 18 29
  25427685.240    -2158473.193 4  -1707245.517 2
  23321596.844     5086428.380 7    873247.953 6
  23013978.814   -17204135.205 7 -10014867.204 6
  25452868.706    -1478109.073 5  -2150632.682 2
  22825962.625   -23637647.260 7 -12063465.641 7
  21900415.258    -3872695.638 9 -15028500.721 9
  21560597.149   -25316390.867 8 -14265994.750 9
 94  1 21 21 39  0.0030000  0  7 28 22 19 27 14 18 29
  25417121.213    -2213992.548 4  -1750507.277 2
  23337604.832     5170557.743 7    938803.240 6
  23005038.913   -17251100.902 7 -10051463.833 6
  25439015.926    -1550863.486 5  -2207324.339 2
  22845047.443   -23537373.031 7 -11985329.933 7
  21892293.581    -3915362.521 8 -15061747.631 9
  21563093.101   -25303267.293 8 -14255768.591 9
 94  1 21 21 39 30.0030000  0  7 28 22 19 27 14 18 29
  25406599.547    -2269314.994 5  -1793615.648 2
  23353690.437     5255065.983 6   1004653.775 6
  22996152.525   -17297825.442 7 -10087872.537 6
  25425195.523    -1623521.452 5  -2263940.833 2
  22864188.981   -23436786.315 7 -11906950.696 7
  21884228.534    -3957760.158 9 -15094784.734 9
  21565650.601   -25289825.326 8 -14245294.342 9
 94  1 21 21 40  0.0030000  0  7 28 22 19 27 14 18 29
  25396102.224    -2324419.873 5  -1836554.485 2
  23369846.192     5339967.052 7   1070810.417 6
  22987311.975   -17344287.098 7 -10124076.363 6
  25411388.012    -1696061.672 5  -2320465.557 2
  22883387.211   -23335879.806 7 -11828322.295 7
  21876212.533    -3999876.649 8 -15127602.772 9
  21568271.027   -25276062.739 8 -14234570.261 9
 94  1 21 21 40 30.0030000  0  7 28 22 19 27 14 18 29
  25385659.883    -2379286.569 4  -1879307.735 2
  23386079.714     5425277.946 6   1137286.360 6
  22978522.420   -17390465.170 7 -10160059.278 6
  25397619.594    -1768459.332 5  -2376879.282 2
  22902658.829   -23234630.000 7 -11749426.421 7
  21868251.485    -4041712.908 8 -15160202.452 9
  21570956.358   -25261956.209 8 -14223578.166 9
 94  1 21 21 41  0.0030000  0  7 28 22 19 27 14 18 29
  25375270.576    -2433903.950 5  -1921866.715 2
  23402391.931     5510995.594 6   1204079.333 6
  22969783.530   -17436355.122 7 -10195817.636 6
  25383870.542    -1840703.505 4  -2433173.315 2
  22921988.697   -23133023.841 7 -11670252.821 7
  21860344.578    -4083281.354 9 -15192593.427 9
  21573706.264   -25247504.028 8 -14212316.726 9
 94  1 21 21 41 30.0030000  0  7 28 22 19 27 14 18 29
  25364922.160    -2488280.267 4  -1964237.907 2
  23418780.536     5597126.406 7   1271194.180 6
  22961108.345   -17481974.087 7 -10231364.842 6
  25370146.013    -1912803.460 4  -2489355.003 2
  22941394.413   -23031054.569 7 -11590796.297 7
  21852485.519    -4124574.067 9 -15224769.557 9
  21576521.285   -25232714.185 8 -14200792.170 9
 94  1 21 21 42  0.0030000  0  7 28 22 19 27 14 18 29
  25354608.730    -2542439.394 4  -2006439.788 2
  23435247.746     5683670.166 6   1338630.813 6
  22952474.592   -17527360.880 7 -10266731.138 6
  25356444.119    -1984786.471 4  -2545445.525 2
  22960864.284   -22928750.652 7 -11511079.011 7
  21844677.874    -4165620.092 9 -15256753.464 9
  21579393.087   -25217605.598 8 -14189019.260 9
 94  1 21 21 42 30.0030000  0  7 28 22 19 27 14 18 29
  25344344.555    -2596395.821 3  -2048483.715 2
  23451792.812     5770603.986 6   1406371.406 6
  22943879.783   -17572526.614 7 -10301925.210 6
  25342771.844    -2056662.962 4  -2601453.092 2
  22980394.234   -22826121.547 7 -11431108.309 7
  21836902.397    -4206440.176 8 -15288561.301 9
  21582330.184   -25202185.740 8 -14177003.778 9
 94  1 21 21 43  0.0030000  0  7 28 22 19 27 14 18 29
  25334111.979    -2650164.245 3  -2090381.147 2
  23468408.779     5857918.050 6   1474408.288 6
  22935318.429   -17617492.163 7 -10336963.258 6
  25329094.233    -2128435.028 3  -2657379.295 2
  22999982.493   -22723172.898 7 -11350888.611 7
  21829181.662    -4247037.759 9 -15320195.783 9
  21585321.573   -25186455.752 8 -14164746.644 9
 94  1 21 21 43 30.0030000  0  7 28 22 19 27 14 18 29
  25323913.160    -2703752.493 4  -2132138.148 2
  23485096.876     5945616.124 6   1542744.386 6
  22926799.257   -17662262.877 7 -10371849.504 6
  25315480.597    -2200097.092 4  -2713219.710 2
  23019631.461   -22619911.420 7 -11270425.166 6
  21821501.189    -4287401.149 9 -15351647.762 9
  21588375.679   -25170405.823 8 -14152240.226 9
 94  1 21 21 44  0.0030000  0  7 28 22 19 27 14 18 29
  25313748.547    -2757151.637 4  -2173747.848 2
  23501855.724     6033687.861 7   1611371.654 6
  22918318.968   -17706825.364 7 -10406573.516 6
  25301873.887    -2271638.014 5  -2768965.794 2
  23039343.354   -22516330.356 7 -11189712.693 6
  21813864.786    -4327532.762 9 -15382919.127 9
  21591495.019   -25154034.933 8 -14139483.684 9
 94  1 21 21 44 30.0030000  0  7 28 22 19 27 14 18 29
  25303637.446    -2810343.155 5  -2215195.749 2
  23518686.522     6122118.763 6   1680278.813 6
  22909881.099   -17751171.991 7 -10441129.300 6
  25288279.468    -2343034.144 4  -2824599.041 2
  23059118.534   -22412421.225 7 -11108744.584 6
  21806271.432    -4367422.482 9 -15414002.039 9
  21594669.731   -25137335.126 8 -14126470.860 9
 94  1 21 21 45  0.0030000  0  7 28 22 19 27 14 18 29
  25293566.548    -2863311.396 4  -2256469.662 2
  23535579.467     6210923.015 6   1749476.867 6
  22901482.504   -17795306.394 7 -10475519.716 6
  25274720.395    -2414287.368 4  -2880120.953 2
  23078952.234   -22308183.387 7 -11027520.339 6
  21798734.380    -4407053.723 9 -15444883.501 9
  21597911.027   -25120295.637 8 -14113193.330 9
 94  1 21 21 45 30.0030000  0  7 28 22 19 27 14 18 29
  25283521.732    -2916030.931 4  -2297549.772 2
  23552556.295     6300102.903 6   1818967.617 5
  22893129.566   -17839209.609 7 -10509729.980 6
  25261169.806    -2485400.853 4  -2935533.933 2
  23098847.720   -22203628.617 7 -10946049.143 6
  21791243.226    -4446417.602 9 -15475556.652 9
  21601219.207   -25102920.832 8 -14099654.530 9
 94  1 21 21 46  0.0030000  0  7 28 22 19 27 14 18 29
  25273550.215    -2968480.541 5  -2338419.550 2
  23569596.858     6389640.194 7   1888736.886 5
  22884819.919   -17882877.751 7 -10543757.099 6
  25247677.377    -2556381.859 5  -2990843.746 2
  23118799.538   -22098769.876 6 -10864341.061 6
  21783795.632    -4485518.932 9 -15506025.219 9
  21604585.007   -25085216.144 8 -14085858.681 9
 94  1 21 21 46 30.0030000  0  7 28 22 19 27 14 18 29
  25263614.494    -3020651.232 5  -2379071.999 2
  23586698.398     6479545.205 7   1958792.681 5
  22876554.221   -17926304.350 7 -10577595.990 6
  25234187.076    -2627234.905 4  -3046053.781 2
  23138813.023   -21993611.867 7 -10782399.811 6
  21776412.823    -4524337.058 9 -15536273.096 9
  21608029.203   -25067156.624 8 -14071786.325 9
 94  1 21 21 47  0.0030000  0  7 28 22 19 27 14 18 29
  25253737.711    -3072554.002 4  -2419515.669 2
  23603882.232     6569824.188 7   2029139.875 5
  22868335.950   -17969484.444 7 -10611242.793 6
  25220731.011    -2697987.643 5  -3101185.703 2
  23158878.342   -21888163.893 7 -10700232.617 6
  21769083.647    -4562858.384 9 -15566289.706 9
  21611532.128   -25048735.534 8 -14057432.243 9
 94  1 21 21 47 30.0030000  0  7 28 22 19 27 14 18 29
  25243920.048    -3124191.629 4  -2459752.721 2
  23621122.397     6660467.558 6   2099771.035 5
  22860172.092   -18012395.088 7 -10644679.640 6
  25207273.478    -2768636.316 5  -3156236.525 2
  23179001.581   -21782439.877 7 -10617850.288 6
  21761806.305    -4601075.016 9 -15596068.892 9
  21615104.874   -25029961.873 8 -14042803.407 9
 94  1 21 21 48  0.0030000  0  7 28 22 19 27 14 18 29
  25234141.537    -3175579.004 5  -2499794.743 2
  23638439.309     6751466.754 6   2170679.437 5
  22852057.310   -18055038.179 7 -10677908.003 6
  25193855.787    -2839181.189 5  -3211206.484 2
  23199168.500   -21676426.328 7 -10535242.367 6
  21754597.046    -4638984.499 9 -15625608.749 9
  21618746.933   -25010825.155 8 -14027891.685 9
 94  1 21 21 48 30.0030000  0  7 28 22 19 27 14 18 29
  25224399.452    -3226726.413 5  -2539649.791 3
  23655835.816     6842839.534 6   2241878.946 5
  22843995.411   -18097414.521 7 -10710928.499 6
  25180456.233    -2909624.716 5  -3266097.396 3
  23219403.951   -21570110.153 6 -10452398.625 6
  21747441.480    -4676578.303 9 -15654902.622 9
  21622455.516   -24991326.976 8 -14012698.295 9
 94  1 21 21 49  0.0030000  0  7 28 22 19 27 14 18 29
  25214717.924    -3277620.059 5  -2579307.172 2
  23673295.159     6934578.096 7   2313363.507 5
  22835978.451   -18139531.227 7 -10743746.676 7
  25167067.412    -2979966.405 5  -3320909.044 3
  23239692.166   -21463496.497 6 -10369323.095 6
  21740344.043    -4713873.336 9 -15683963.667 9
  21626230.352   -24971483.195 8 -13997235.611 9
 94  1 21 21 49 30.0030000  0  7 28 22 19 27 14 18 29
  25205078.787    -3328251.744 4  -2618760.403 2
  23690815.180     7026668.957 7   2385122.557 5
  22828009.458   -18181399.318 7 -10776371.136 7
  25153706.321    -3050189.982 5  -3375628.624 3
  23260035.033   -21356594.189 7 -10286022.618 6
  21733301.678    -4750894.605 9 -15712811.401 9
  21630068.595   -24951316.530 8 -13981521.330 9
 94  1 21 21 50  0.0030000  0  7 28 22 19 27 14 18 29
  25195493.553    -3378627.569 4  -2658014.259 2
  23708405.562     7119107.663 7   2457152.667 5
  22820087.652   -18223060.481 7 -10808834.360 7
  25140359.501    -3120302.723 5  -3430261.874 3
  23280434.830   -21249399.291 7 -10202494.180 6
  21726302.933    -4787665.020 9 -15741463.673 9
  21633967.456   -24930821.135 8 -13965550.909 9
 94  1 21 21 50 30.0030000  0  7 28 22 19 27 14 18 29
  25185940.936    -3428737.808 4  -2697061.113 2
  23726063.308     7211901.281 6   2529459.322 5
  22812199.243   -18264517.653 7 -10841138.620 7
  25127045.868    -3190304.935 5  -3484808.919 3
  23300883.554   -21141932.996 6 -10118754.253 6
  21719352.395    -4824187.902 9 -15769923.054 9
  21637930.832   -24909999.771 8 -13949326.469 9
 94  1 21 21 51  0.0030000  0  7 28 22 19 27 14 18 29
  25176479.486    -3478567.636 5  -2735889.465 2
  23743788.327     7305048.763 6   2602041.749 5
  22804347.229   -18305762.984 7 -10873277.825 7
  25113753.250    -3260172.294 5  -3539250.975 3
  23321384.711   -21034196.238 6 -10034803.557 6
  21712451.143    -4860456.194 9 -15798184.052 9
  21641961.212   -24888833.229 8 -13932833.075 9
 94  1 21 21 51 30.0030000  0  7 28 22 19 27 14 18 29
  25167045.467    -3528135.602 5  -2774513.778 2
  23761579.990     7398541.207 6   2674892.942 5
  22796539.344   -18346797.164 7 -10905252.477 7
  25100476.582    -3329898.161 5  -3593582.733 3
  23341938.272   -20926193.056 6  -9950645.258 6
  21705604.753    -4896451.611 9 -15826232.420 9
  21646053.889   -24867310.680 8 -13916062.266 9
 94  1 21 21 52  0.0030000  0  7 28 22 19 27 14 18 29
  25157665.860    -3577436.358 5  -2812929.959 2
  23779439.347     7492380.910 6   2748014.719 5
  22788777.687   -18387605.411 7 -10937051.086 7
  25087236.518    -3399496.819 5  -3647815.377 3
  23362543.158   -20817914.788 6  -9866272.604 6
  21698806.119    -4932146.338 9 -15854046.489 9
  21650224.272   -24845405.628 8 -13898993.407 9
 94  1 21 21 52 30.0030000  0  7 28 22 19 27 14 18 29
  25148331.193    -3626469.317 4  -2851137.369 2
  23797366.036     7586557.827 7   2821399.281 5
  22781057.522   -18428165.395 7 -10968656.241 7
  25074006.856    -3468977.048 5  -3701955.753 3
  23383196.640   -20709369.351 6  -9781691.801 6
  21692076.798    -4967528.157 9 -15881616.735 9
  21654463.667   -24823124.725 8 -13881631.673 9
 94  1 21 21 53  0.0030000  0  7 28 22 19 27 14 18 29
  25139046.440    -3675234.001 4  -2889135.775 2
  23815340.393     7681048.519 6   2895028.363 5
  22773378.938   -18468486.370 7 -11000075.156 7
  25060810.172    -3538349.776 5  -3756012.289 3
  23403907.142   -20600547.447 6  -9696895.529 6
  21685402.578    -5002597.451 9 -15908943.449 9
  21658773.843   -24800477.098 8 -13863984.184 9
 94  1 21 21 53 30.0030000  0  7 28 22 19 27 14 18 29
  25129823.895    -3723732.993 5  -2926927.124 2
  23833372.789     7775836.131 6   2968888.751 5
  22765754.166   -18508568.187 7 -11031307.730 7
  25047633.184    -3607637.155 5  -3810002.411 2
  23424665.252   -20491451.628 6  -9611885.848 6
  21678786.578    -5037361.365 9 -15936032.203 9
  21663148.534   -24777477.606 8 -13846062.510 9
 94  1 21 21 54  0.0030000  0  7 28 22 19 27 14 18 29
  25120642.271    -3771949.027 4  -2964497.988 2
  23851468.622     7870919.450 6   3042979.636 5
  22758172.325   -18548420.027 7 -11062361.079 7
  25034451.580    -3676848.168 5  -3863932.983 3
  23445477.414   -20382081.863 6  -9526662.678 6
  21672230.177    -5071846.175 9 -15962903.476 9
  21667589.930   -24754147.946 8 -13827883.570 9
 94  1 21 21 54 30.0030000  0  7 28 22 19 27 14 18 29
  25111533.647    -3819876.973 5  -3001844.380 2
  23869615.389     7966296.093 6   3117299.030 5
  22750630.536   -18588049.304 7 -11093241.036 7
  25021306.940    -3745966.283 5  -3917791.211 3
  23466341.050   -20272438.898 6  -9441226.651 6
  21665712.210    -5106057.628 9 -15989561.746 9
  21672087.566   -24730502.763 8 -13809458.773 9
 94  1 21 21 55  0.0030000  0  7 28 22 19 27 14 18 29
  25102459.799    -3867507.462 5  -3038958.988 2
  23887829.040     8061980.519 6   3191858.237 5
  22743130.898   -18627452.517 7 -11123944.807 7
  25008177.859    -3814969.698 5  -3971560.052 3
  23487258.919   -20162522.475 6  -9355577.534 6
  21659258.817    -5139990.618 9 -16016003.022 9
  21676647.349   -24706541.384 8 -13790787.592 9
 94  1 21 21 55 30.0030000  0  7 28 22 19 27 14 18 29
  25093452.115    -3914846.846 5  -3075846.751 2
  23906098.722     8157984.801 6   3266666.722 5
  22735673.801   -18666639.385 7 -11154480.005 7
  24995056.303    -3883848.312 5  -4025231.627 3
  23508224.965   -20052349.453 6  -9269728.468 6
  21652849.704    -5173649.799 9 -16042230.955 9
  21681269.310   -24682261.834 8 -13771868.471 9
 94  1 21 21 56  0.0030000  0  7 28 22 19 27 14 18 29
  25084503.490    -3961884.286 5  -3112499.251 2
  23924435.618     8254333.637 6   3341743.687 5
  22728257.235   -18705611.138 7 -11184847.598 7
  24981986.790    -3952586.972 5  -4078794.151 3
  23529236.818   -19941927.934 6  -9183685.771 6
  21646504.177    -5207019.043 9 -16068232.944 9
  21685952.098   -24657647.874 8 -13752688.765 9
 94  1 21 21 56 30.0030000  0  7 28 22 19 27 14 18 29
  25075613.054    -4008627.708 5  -3148922.633 2
  23942832.322     8351029.075 6   3417090.701 5
  22720885.998   -18744357.396 7 -11215039.462 7
  24968930.709    -4021177.130 5  -4132241.018 2
  23550296.759   -19831272.983 6  -9097461.153 6
  21640208.326    -5240077.832 9 -16093993.043 9
  21690704.768   -24632679.923 8 -13733233.245 9
 94  1 21 21 57  0.0030000  0  7 28 22 19 27 14 18 29
  25066771.725    -4055074.620 5  -3185114.953 2
  23961300.257     8448066.191 6   3492704.007 5
  22713551.246   -18782885.875 7 -11245061.647 7
  24955899.480    -4089618.661 5  -4185572.076 2
  23571392.944   -19720402.148 6  -9011068.352 6
  21633983.045    -5272825.872 9 -16119510.984 9
  21695528.038   -24607340.999 8 -13713488.636 9
 94  1 21 21 57 30.0030000  0  7 28 22 19 27 14 18 29
  25057985.947    -4101213.062 5  -3221066.927 2
  23979830.129     8545431.172 6   3568572.750 5
  22706262.631   -18821199.271 7 -11274916.227 7
  24942916.188    -4157920.925 5  -4238794.567 2
  23592529.062   -19609317.155 6  -8924508.665 6
  21627807.261    -5305253.428 9 -16144779.215 9
  21700419.572   -24581622.108 8 -13693447.968 9
 94  1 21 21 58  0.0030000  0  7 28 22 19 27 14 18 29
  25049263.696    -4147037.550 5  -3256774.325 2
  23998410.906     8643095.764 6   3644675.004 5
  22699014.999   -18859287.999 7 -11304595.752 7
  24929936.584    -4226092.271 5  -4291915.055 2
  23613707.271   -19498020.762 6  -8837784.260 6
  21621703.636    -5337352.828 9 -16169791.727 9
  21705382.247   -24555530.775 8 -13673117.073 9
 94  1 21 21 58 30.0030000  0  7 28 22 19 27 14 18 29
  25040601.163    -4192550.514 4  -3292238.919 2
  24017051.161     8741038.238 6   3720993.751 5
  22691810.417   -18897147.898 7 -11334096.968 7
  24916988.788    -4294144.761 5  -4344942.950 2
  23634929.279   -19386499.923 6  -8750884.932 6
  21615650.407    -5369125.912 9 -16194549.971 9
  21710422.147   -24529061.856 8 -13652491.954 9
 94  1 21 21 59  0.0030000  0  7 28 22 19 27 14 18 29
  25032012.109    -4237746.786 5  -3327456.711 3
  24035739.294     8839252.086 6   3797523.933 5
  22684649.274   -18934778.259 7 -11363419.314 7
  24904064.045    -4362094.321 5  -4397890.624 2
  23656201.173   -19274738.750 6  -8663798.372 6
  21609670.926    -5400567.761 9 -16219050.111 9
  21715526.474   -24502219.735 8 -13631576.040 9
 94  1 21 21 59 30.0030000  0  7 28 22 19 27 14 18 29
  25023470.932    -4282621.451 5  -3362423.980 3
  24054475.243     8937730.720 6   3874260.497 5
  22677535.049   -18972169.962 8 -11392555.694 7
  24891139.033    -4429953.371 5  -4450767.805 2
  23677509.611   -19162732.005 6  -8576520.456 6
  21603748.826    -5431683.404 9 -16243296.048 9
  21720708.027   -24475013.595 8 -13610376.459 9
 94  1 21 22  0  0.0030000  0  7 28 22 19 27 14 18 29
  25014992.201    -4327192.075 5  -3397154.353 2
  24073272.710     9036462.987 6   3951194.663 5
  22670463.395   -19009334.422 8 -11421515.009 7
  24878235.156    -4497741.969 5  -4503590.047 2
  23698872.192   -19050493.611 6  -8489062.024 6
  21597887.074    -5462498.400 9 -16267307.738 9
  21725951.996   -24447449.881 8 -13588898.248 9
 94  1 21 22  0 30.0030000  0  7 28 22 19 27 14 18 29
  25006560.838    -4371460.433 4  -3431649.175 3
  24092107.921     9135466.011 6   4028339.788 5
  22663432.992   -19046277.916 8 -11450302.143 7
  24865356.552    -4565466.799 5  -4556362.615 2
  23720274.226   -18938026.150 6  -8401425.112 6
  21592078.295    -5493026.544 9 -16291095.902 9
  21731266.297   -24419524.888 8 -13567138.543 9
 94  1 21 22  1  0.0030000  0  7 28 22 19 27 14 18 29
  24998192.881    -4415420.342 5  -3465903.495 3
  24110997.424     9234742.039 6   4105697.684 5
  22656441.952   -19083003.643 8 -11478919.579 7
  24852479.896    -4633110.934 5  -4609072.347 3
  23741716.012   -18825342.825 6  -8313619.958 5
  21586322.820    -5523262.505 9 -16314656.381 9
  21736643.675   -24391255.650 8 -13545110.559 9
 94  1 21 22  1 30.0030000  0  7 28 22 19 27 14 18 29
  24989890.699    -4459065.793 5  -3499912.904 3
  24129941.939     9334298.621 6   4183274.184 5
  22649495.491   -19119524.635 8 -11507377.488 7
  24839629.412    -4700658.662 5  -4661706.874 3
  23763195.392   -18712460.650 6  -8225659.877 5
  21580627.482    -5553206.967 9 -16337989.721 9
  21742089.015   -24362647.304 8 -13522818.349 9
 94  1 21 22  2  0.0030000  0  7 28 22 19 27 14 18 29
  24981636.423    -4502416.377 5  -3533692.536 3
  24148941.496     9434138.860 6   4261071.708 5
  22642580.508   -19155850.058 8 -11535683.010 7
  24826800.394    -4768101.938 5  -4714260.057 3
  23784716.473   -18599393.376 6  -8137555.557 5
  21574979.662    -5582852.164 9 -16361089.882 9
  21747594.973   -24333711.949 8 -13500271.326 9
 94  1 21 22  2 30.0030000  0  7 28 22 19 27 14 18 29
  24973447.472    -4545457.928 5  -3567231.351 2
  24168000.501     9534268.722 6   4339094.919 4
  22635707.166   -19191972.144 8 -11563830.093 7
  24813989.692    -4835418.823 5  -4766714.741 3
  23806262.587   -18486148.591 6  -8049312.936 5
  21569408.709    -5612173.769 9 -16383937.879 9
  21753165.117   -24304455.422 8 -13477474.038 9
 94  1 21 22  3  0.0030000  0  7 28 22 19 27 14 18 29
  24965320.428    -4588183.030 5  -3600523.618 3
  24187105.615     9634686.990 6   4417342.825 4
  22628873.487   -19227884.684 8 -11591813.894 7
  24801208.401    -4902585.217 5  -4819052.190 3
  23827846.265   -18372723.399 6  -7960929.718 5
  21563883.414    -5641152.215 9 -16406518.502 9
  21758795.190   -24274865.538 8 -13454417.013 9
 94  1 21 22  3 30.0030000  0  8 28 22 19 27 14 18 29 31
  24957254.272    -4630593.861 5  -3633570.911 3
  24206267.720     9735387.578 6   4495810.785 4
  22622080.460   -19263584.286 8 -11619631.734 7
  24788455.050    -4969607.351 5  -4871277.167 3
  23849468.137   -18259119.977 6  -7872407.607 5
  21558438.314    -5669799.430 9 -16428840.987 9
  21764491.936   -24244932.626 8 -13431092.665 9
  25138459.746    -4633701.45215    -33118.693
 94  1 21 22  4  0.0030000  0  8 28 22 19 27 14 18 29 31
  24949242.889    -4672694.473 5  -3666376.546 3
  24225480.489     9836348.805 6   4574481.794 4
  22615327.455   -19299060.891 8 -11647275.831 7
  24775719.746    -5036493.480 5  -4923396.231 3
  23871117.409   -18145332.341 6  -7783741.982 5
  21553048.795    -5698123.995 9 -16450912.075 9
  21770251.009   -24214650.144 8 -13407495.925 9
  25124193.703    -4708661.842 5    -91528.915 1
 94  1 21 22  4 30.0030000  0  8 28 22 19 27 14 18 29 31
  24941297.639    -4714478.995 5  -3698935.853 2
  24244735.079     9937550.703 6   4653340.350 4
  22608618.609   -19334320.925 8 -11674751.169 7
  24763014.961    -5103258.323 5  -4975420.755 3
  23892809.612   -18031353.780 6  -7694927.576 5
  21547711.110    -5726147.221 9 -16472748.358 9
  21776084.550   -24184010.595 8 -13383620.959 9
  25109932.635    -4783581.914 5   -149908.065 1
 94  1 21 22  5  0.0030000  0  8 28 22 19 27 14 18 29 31
  24933394.180    -4755944.074 5  -3731246.287 2
  24264039.915    10038987.798 6   4732382.186 4
  22601950.865   -19369364.494 7 -11702057.842 7
  24750341.505    -5169896.602 6  -5027346.686 3
  23914537.550   -17917164.538 6  -7605949.000 5
  21542440.759    -5753881.246 9 -16494359.280 9
  21781983.746   -24152995.604 8 -13359453.477 9
  25095690.755    -4858456.416 4   -208251.675 1
 94  1 21 22  5 30.0030000  0  8 28 22 19 27 14 18 29 31
  24925570.047    -4797077.583 5  -3763298.299 3
  24283387.021    10140657.204 6   4811605.026 4
  22595324.972   -19404182.706 8 -11729188.897 7
  24737682.948    -5236421.674 6  -5079184.361 3
  23936306.740   -17802767.970 6  -7516808.884 5
  21537212.528    -5781323.645 9 -16515742.963 9
  21787954.413   -24121605.641 8 -13334993.759 9
  25081446.056    -4933293.173 4   -266565.969 1
 94  1 21 22  6  0.0030000  0  8 28 22 19 27 14 18 29 31
  24917811.748    -4837866.692 5  -3795081.925 3
  24302785.122    10242570.595 6   4891017.991 5
  22588738.442   -19438774.259 8 -11756143.343 7
  24725040.671    -5302835.592 6  -5130935.472 3
  23958115.742   -17688162.726 6  -7427506.153 4
  21532051.751    -5808458.407 9 -16536886.940 9
  21794004.015   -24089830.163 8 -13310233.658 9
  25067218.086    -5008080.933 5   -324842.114 1
 94  1 21 22  6 30.0030000  0  8 28 22 19 27 14 18 29 31
  24910112.838    -4878304.201 5  -3826591.714 2
  24322221.387    10344732.822 6   4970624.845 5
  22582200.388   -19473143.782 8 -11782924.764 7
  24712420.577    -5369140.832 5  -5182601.883 3
  23979961.348   -17573360.630 6  -7338050.003 4
  21526952.101    -5835280.059 9 -16557786.929 9
  21800125.147   -24057673.777 8 -13285176.742 9
  25052998.210    -5082806.214 5   -383069.465 1
 94  1 21 22  7  0.0030000  0  8 28 22 19 27 14 18 29 31
  24902491.304    -4918395.451 5  -3857831.651 2
  24341706.337    10447137.115 6   5050420.324 4
  22575699.958   -19507308.611 8 -11809546.690 7
  24699824.557    -5435356.029 5  -5234198.096 3
  24001839.842   -17458393.155 6  -7248465.038 4
  21521901.318    -5861781.663 9 -16578437.530 9
  21806312.564   -24025157.288 8 -13259839.229 9
  25038789.757    -5157470.253 5   -441249.158 1
 94  1 21 22  7 30.0030000  0  8 28 22 19 27 14 18 29 31
  24894924.273    -4958136.082 5  -3888798.275 3
  24361243.122    10549790.206 6   5130409.697 5
  22569239.251   -19541262.854 8 -11836004.535 7
  24687240.829    -5501495.754 5  -5285735.515 3
  24023748.255   -17343269.944 6  -7158758.718 4
  21516927.791    -5887944.681 9 -16598824.305 9
  21812565.035   -23992290.870 8 -13234229.068 9
  25024590.656    -5232064.632 4   -499374.615 1
 94  1 21 22  8  0.0030000  0  8 28 22 19 27 14 18 29 31
  24887429.731    -4997525.826 5  -3919491.596 3
  24380825.146    10652690.344 6   5210591.559 5
  22562811.581   -19575010.703 7 -11862301.560 7
  24674669.392    -5567549.013 5  -5337205.574 3
  24045687.397   -17227991.606 6  -7068931.472 4
  21512016.291    -5913759.689 9 -16618939.903 9
  21818887.838   -23959067.196 8 -13208340.507 9
  25010414.310    -5306557.071 4   -557420.650 1
 94  1 21 22  8 30.0030000  0  8 28 22 19 27 14 18 29 31
  24879998.176    -5036554.333 5  -3949903.424 3
  24400451.629    10755825.054 6   5290956.168 4
  22556432.687   -19608557.128 7 -11888441.621 7
  24662113.184    -5633501.833 5  -5388597.376 3
  24067646.775   -17112560.138 6  -6978984.942 4
  21507164.300    -5939227.144 9 -16638784.664 9
  21825278.664   -23925491.287 8 -13182177.472 9
  24996258.081    -5380940.817 4   -615381.922 1
 94  1 21 22  9  0.0030000  0  8 28 22 19 27 14 18 29 31
  24872650.562    -5075212.192 5  -3980026.389 2
  24420127.128    10859197.417 6   5371506.014 4
  22550088.389   -19641891.437 8 -11914416.396 7
  24649588.725    -5699343.163 5  -5439902.290 3
  24089646.445   -16996968.209 6  -6888913.406 4
  21502388.996    -5964341.294 9 -16658354.131 9
  21831731.787   -23891559.595 8 -13155737.212 9
  24982130.721    -5455206.727 3   -673251.422 1
 94  1 21 22  9 30.0030000  0  8 28 22 19 27 14 18 29 31
  24865362.818    -5113500.551 6  -4009861.460 3
  24439839.681    10962795.759 6   5452231.933 4
  22543787.351   -19675008.850 8 -11940222.175 7
  24637079.345    -5765064.355 5  -5491113.595 3
  24111669.499   -16881218.453 6  -6798718.840 4
  21497675.809    -5989111.550 9 -16677655.636 9
  21838260.157   -23857272.383 8 -13129019.921 9
  24968019.939    -5529351.884 3   -731026.764 1
 94  1 21 22 10  0.0030000  0  8 28 22 19 27 14 18 29 31
  24858142.856    -5151413.061 5  -4039403.682 3
  24459593.096    11066607.938 6   5533124.493 4
  22537526.305   -19707928.211 8 -11965873.615 7
  24624600.754    -5830653.291 5  -5542221.845 3
  24133728.168   -16765310.160 6  -6708400.728 4
  21493021.531    -6013552.047 9 -16696700.170 9
  21844852.263   -23822623.845 8 -13102021.075 9
  24953928.285    -5603379.281 3   -788710.414 1
 94  1 21 22 10 30.0030000  0  8 28 22 19 27 14 18 29 31
  24851004.318    -5188945.808 5  -4068649.964 2
  24479390.940    11170639.284 6   5614187.815 4
  22531295.119   -19740652.590 8 -11991373.126 8
  24612142.069    -5896120.008 5  -5593234.855 3
  24155817.056   -16649240.463 6  -6617956.879 4
  21488431.978    -6037677.011 9 -16715498.848 9
  21851510.714   -23787622.304 8 -13074747.172 9
  24939862.652    -5677297.844 3   -846309.182 1
 94  1 21 22 11  0.0030000  0  8 28 22 19 27 14 18 29 31
  24843925.258    -5226112.391 5  -4097610.911 2
  24499228.567    11274894.535 6   5695425.590 4
  22525107.403   -19773171.924 8 -12016712.857 8
  24599703.290    -5961478.633 5  -5644163.607 3
  24177936.613   -16533010.454 6  -6527388.118 4
  21483907.840    -6061469.594 9 -16734038.515 9
  21858245.282   -23752257.339 8 -13047190.056 9
  24925821.483    -5751105.702 3   -903821.784 2
 94  1 21 22 11 30.0030000  0  8 28 22 19 27 14 18 29 31
  24836927.113    -5262913.599 5  -4126287.197 2
  24519108.464    11379373.998 6   5776838.093 4
  22518959.169   -19805493.083 8 -12041898.163 8
  24587285.856    -6026738.700 5  -5695015.640 3
  24200084.260   -16416627.287 6  -6436700.005 4
  21479439.853    -6084928.846 9 -16752318.472 9
  21865041.097   -23716517.102 8 -13019340.562 9
  24911792.875    -5824809.253 4   -961253.107 2
 94  1 21 22 12  0.0030000  0  8 28 22 19 27 14 18 29 31
  24829991.624    -5299349.463 5  -4154678.768 2
  24539032.581    11484082.982 6   5858429.479 4
  22512844.842   -19837620.911 8 -12066932.821 8
  24574885.061    -6091905.834 5  -5745795.175 3
  24222254.782   -16300096.693 6  -6345897.016 4
  21475039.350    -6108054.256 9 -16770338.266 9
  21871916.327   -23680398.916 8 -12991196.537 9
  24897793.496    -5898414.355 5  -1018607.708 2
 94  1 21 22 12 30.0030000  0  8 28 22 19 27 14 18 29 31
  24823125.838    -5335420.559 6  -4182786.072 2
  24559008.232    11589026.416 6   5940203.529 4
  22506770.387   -19869523.140 8 -12091791.701 8
  24562498.866    -6156980.705 5  -5796502.840 3
  24244452.825   -16183430.495 6  -6254988.326 5
  21470711.276    -6130825.537 9 -16788082.124 9
  21878862.339   -23643896.233 8 -12962752.910 9
  24883803.411    -5971920.600 5  -1075885.257 2
 94  1 21 22 13  0.0030000  0  8 28 22 19 27 14 18 29 31
  24816331.551    -5371119.570 5  -4210603.512 3
  24579023.936    11694196.839 6   6022154.424 4
  22500749.295   -19901186.234 8 -12116464.240 8
  24550136.054    -6221945.152 5  -5847124.445 3
  24266684.894   -16066626.490 6  -6163972.297 5
  21466444.989    -6153223.444 9 -16805535.051 9
  21885884.977   -23607002.815 8 -12934004.816 9
  24869827.357    -6045327.347 5  -1133085.341 2
 94  1 21 22 13 30.0030000  0  8 28 22 19 27 14 18 29 31
  24809617.129    -5406428.785 5  -4238117.108 3
  24599071.507    11799588.832 6   6104277.957 4
  22494767.327   -19932620.536 8 -12140958.497 8
  24537805.351    -6286781.267 5  -5897646.126 3
  24288935.940   -15949693.533 6  -6072855.809 5
  21462250.713    -6175262.558 9 -16822708.397 9
  21892977.197   -23569729.870 8 -12904960.991 9
  24855880.082    -6118627.151 6  -1190202.040 2
 94  1 21 22 14  0.0030000  0  8 28 22 19 27 14 18 29 31
  24802968.662    -5441349.535 5  -4265328.046 3
  24619168.634    11905185.285 6   6186560.884 4
  22488830.027   -19963828.326 8 -12165276.249 8
  24525495.693    -6351476.167 5  -5948057.698 3
  24311211.389   -15832633.014 6  -5981639.889 5
  21458128.417    -6196929.870 9 -16839592.019 9
  21900139.869   -23532085.205 8 -12875627.504 9
  24841958.290    -6191814.072 6  -1247230.788 2
 94  1 21 22 14 30.0030000  0  8 28 22 19 27 14 18 29 31
  24796398.081    -5475887.412 5  -4292240.633 3
  24639299.128    12010967.593 6   6268988.597 4
  22482935.238   -19994809.784 8 -12189417.621 8
  24513208.609    -6416029.974 5  -5998359.347 3
  24333513.819   -15715437.322 6  -5890318.649 5
  21454076.872    -6218223.774 9 -16856184.666 9
  21907370.683   -23494079.098 8 -12846012.362 9
  24828054.186    -6264874.636 6  -1304161.097 2
 94  1 21 22 15  0.0030000  0  8 28 22 19 27 14 18 29 31
  24789903.197    -5510040.099 6  -4318853.127 3
  24659460.291    12116936.161 6   6351561.456 4
  22477074.445   -20025593.137 8 -12213404.644 8
  24500948.177    -6480447.937 5  -6048555.132 3
  24355842.241   -15598106.450 6  -5798892.070 4
  21450091.760    -6239157.140 9 -16872496.394 9
  21914672.398   -23455719.570 8 -12816121.858 9
  24814178.322    -6337794.483 6  -1360981.767 2
 94  1 21 22 15 30.0030000  0  8 28 22 19 27 14 18 29 31
  24783475.347    -5543801.622 5  -4345160.770 3
  24679665.373    12223095.315 6   6434282.768 4
  22471248.848   -20056185.091 8 -12237242.530 8
  24488720.392    -6544742.538 6  -6098654.804 3
  24378194.257   -15480647.254 6  -5707365.474 4
  21446177.850    -6259726.143 8 -16888524.170 9
  21922036.680   -23417003.367 8 -12785953.399 9
  24800335.165    -6410562.527 6  -1417684.122 2
 94  1 21 22 16  0.0030000  0  8 28 22 19 27 14 18 29 31
  24777122.325    -5577168.014 5  -4371160.476 3
  24699902.503    12329455.483 6   6517160.756 3
  22465468.130   -20086566.896 8 -12260916.656 8
  24476505.738    -6608919.877 6  -6148663.098 3
  24400571.486   -15363039.666 6  -5615723.230 4
  21442333.581    -6279922.850 9 -16904261.879 9
  21929479.537   -23377918.192 8 -12755497.433 9
  24786515.632    -6483167.250 6  -1474259.179 2
 94  1 21 22 16 30.0030000  0  8 28 22 19 27 14 18 29 31
  24770850.847    -5610134.938 6  -4396848.946 3
  24720190.328    12436031.743 6   6600207.152 4
  22459729.383   -20116738.934 8 -12284427.319 8
  24464314.378    -6672997.321 6  -6198593.546 3
  24422980.043   -15245288.266 6  -5523969.007 4
  21438557.935    -6299768.391 9 -16919725.932 9
  21936984.901   -23338460.615 8 -12724751.294 9
  24772728.507    -6555605.370 6  -1530704.434 3
 94  1 21 22 17  0.0030000  0  8 28 22 19 27 14 18 29 31
  24764648.351    -5642698.128 5  -4422222.818 3
  24740506.124    12542838.537 6   6683433.158 4
  22454028.440   -20146698.442 8 -12307772.411 8
  24452140.735    -6736978.746 6  -6248449.219 3
  24445410.454   -15127407.189 6  -5432113.662 4
  21434849.862    -6319259.266 8 -16934913.627 9
  21944568.541   -23298619.606 8 -12693706.380 9
  24758978.376    -6627883.060 5  -1587024.703 3
 94  1 21 22 17 30.0030000  0  8 28 22 19 27 14 18 29 31
  24758539.000    -5674853.993 5  -4447279.305 3
  24760877.981    12649871.984 6   6766835.778 3
  22448368.688   -20176426.495 8 -12330937.105 8
  24439977.436    -6800861.547 6  -6298227.981 3
  24467876.991   -15009385.601 6  -5340148.885 4
  21431210.592    -6338384.859 9 -16949816.687 9
  21952221.973   -23258376.060 8 -12662347.785 9
  24745246.592    -6700006.286 5  -1643224.541 3
 94  1 21 22 18  0.0030000  0  8 28 22 19 27 14 18 29 31
  24752487.030    -5706609.571 5  -4472023.827 3
  24781290.999    12757122.326 6   6850407.404 3
  22442759.781   -20205916.036 8 -12353915.966 8
  24427832.963    -6864637.013 6  -6347923.094 3
  24490353.961   -14891230.636 6  -5248080.160 4
  21427638.085    -6357151.795 9 -16964440.258 9
  21959960.726   -23217722.789 8 -12630669.949 9
  24731561.366    -6771979.188 6  -1699307.275 3
 94  1 21 22 18 30.0030000  0  8 28 22 19 27 14 18 29 31
  24746529.494    -5737966.147 5  -4496457.484 3
  24801731.838    12864576.869 5   6934138.170 3
  22437193.414   -20235173.071 8 -12376713.644 8
  24415726.774    -6928295.338 6  -6397526.969 3
  24512865.466   -14772957.242 6  -5155919.122 4
  21424139.927    -6375546.987 9 -16978774.173 9
  21967775.925   -23176657.756 8 -12598671.244 9
  24717888.192    -6843800.571 5  -1755271.960 3
 94  1 21 22 19  0.0030000  0  8 28 22 19 27 14 18 29 31
  24740628.589    -5768919.137 4  -4520576.663 3
  24822220.374    12972208.149 6   7018006.637 3
  22431664.642   -20264203.672 8 -12399334.893 8
  24403635.844    -6991824.777 6  -6447030.421 3
  24535391.992   -14654573.028 5  -5063671.737 4
  21420713.928    -6393557.461 9 -16992808.319 9
  21975664.064   -23135191.113 8 -12566359.595 9
  24704253.571    -6915480.337 5  -1811126.288 3
 94  1 21 22 19 30.0030000  0  8 28 22 19 27 14 18 29 31
  24734814.684    -5799457.463 5  -4544372.696 3
  24842725.249    13079994.121 5   7101995.624 3
  22426185.335   -20293013.937 8 -12421784.453 8
  24391576.243    -7055213.813 6  -6496424.474 3
  24557941.451   -14536084.425 5  -4971343.069 4
  21417353.735    -6411181.612 8 -17006541.413 9
  21983633.927   -23093325.712 8 -12533737.244 9
  24690633.940    -6987012.856 5  -1866865.876 2
 94  1 21 22 20  0.0030000  0  8 28 22 19 27 14 18 29 31
  24729082.922    -5829580.016 5  -4567844.778 3
  24863264.240    13187923.054 5   7186096.025 3
  22420741.674   -20321626.060 8 -12444079.605 8
  24379540.835    -7118466.310 6  -6545712.113 3
  24580496.666   -14417515.402 5  -4878951.677 4
  21414075.024    -6428427.077 8 -17019979.448 9
  21991670.134   -23051089.554 8 -12500825.981 9
  24677054.691    -7058387.094 5  -1922482.100 2
 94  1 21 22 20 30.0030000  0  8 28 22 19 27 14 18 29 31
  24723433.183    -5859280.938 5  -4590988.277 3
  24883820.530    13296000.648 5   7270312.273 3
  22415327.632   -20350056.122 8 -12466232.896 8
  24367528.361    -7181595.113 6  -6594903.346 3
  24603074.156   -14298870.220 5  -4786501.011 4
  21410866.526    -6445279.828 9 -17033111.460 9
  21999775.532   -23008495.726 8 -12467636.013 9
  24663502.033    -7129594.902 5  -1977968.651 2
 94  1 21 22 21  0.0030000  0  8 28 22 19 27 14 18 29 31
  24717870.564    -5888553.815 4  -4613798.260 3
  24904428.473    13404236.990 5   7354652.194 4
  22409951.064   -20378303.560 8 -12488243.872 8
  24355539.331    -7244606.623 6  -6644003.219 3
  24625667.295   -14180147.167 5  -4693989.638 4
  21407734.864    -6461747.891 9 -17045943.712 9
  22007948.864   -22965542.749 8 -12434166.167 9
  24649980.164    -7200633.272 5  -2033323.119 2
 94  1 21 22 21 30.0030000  0  8 28 22 19 27 14 18 29 31
  24712379.476    -5917406.470 5  -4636280.800 3
  24925057.192    13512652.369 5   7439131.607 3
  22404613.439   -20406373.028 8 -12510116.182 9
  24343567.959    -7307516.610 6  -6693023.985 3
  24648273.835   -14061341.831 5  -4601414.124 4
  21404675.631    -6477825.527 9 -17058471.756 9
  22016193.067   -22922231.989 8 -12400417.572 9
  24636504.403    -7271477.794 5  -2088526.617 2
 94  1 21 22 22  0.0030000  0  8 28 22 19 27 14 18 29 31
  24706966.333    -5945848.568 5  -4658443.455 3
  24945724.464    13621260.565 5   7523761.310 3
  22399307.292   -20434262.713 8 -12531848.399 9
  24331611.996    -7370338.961 6  -6741976.449 3
  24670912.063   -13942445.769 6  -4508767.910 4
  21401689.788    -6493508.406 8 -17070692.169 9
  22024500.615   -22878568.369 8 -12366393.990 9
  24623066.566    -7342123.998 5  -2143575.518 2
 94  1 21 22 22 30.0030000  0  8 28 22 19 27 14 18 29 31
  24701639.471    -5973880.763 5  -4680286.656 3
  24966430.560    13730073.919 5   7608550.878 3
  22394039.729   -20461946.288 8 -12553420.004 9
  24319679.326    -7433057.685 6  -6790848.146 4
  24693547.773   -13823442.941 6  -4416038.503 4
  21398782.221    -6508789.470 8 -17082599.496 9
  22032881.134   -22834526.944 8 -12332076.037 9
  24609659.817    -7412571.115 5  -2198469.388 2
 94  1 21 22 23  0.0030000  0  8 28 22 19 27 14 18 29 31
  24696377.574    -6001493.420 5  -4701802.978 3
  24987169.513    13839091.385 5   7693499.498 3
  22388812.548   -20489404.030 8 -12574815.636 9
  24307764.525    -7495652.809 6  -6839623.542 3
  24716221.886   -13704322.541 6  -4323217.491 4
  21395952.061    -6523676.252 9 -17094199.593 9
  22041339.868   -22790096.663 8 -12297455.060 9
  24596294.650    -7482804.702 5  -2253196.729 2
 94  1 21 22 23 30.0030000  0  8 28 22 19 27 14 18 29 31
  24691207.773    -6028683.955 5  -4722990.384 3
  25007964.946    13948297.146 6   7778594.790 3
  22383628.446   -20516639.433 8 -12596038.043 9
  24295875.775    -7558133.142 6  -6888309.518 4
  24738905.022   -13585097.185 6  -4230314.740 4
  21393195.499    -6538167.815 8 -17105491.725 9
  22049862.578   -22745285.042 8 -12262536.943 9
  24582964.918    -7552822.513 5  -2307755.962 2
 94  1 21 22 24  0.0030000  0  8 28 22 19 27 14 18 29 31
  24686114.569    -6055440.663 5  -4743839.711 3
  25028770.992    14057662.045 5   7863814.112 3
  22378492.432   -20543649.449 8 -12617084.795 9
  24284008.341    -7620485.216 6  -6936895.503 4
  24761609.115   -13465781.557 5  -4137341.619 4
  21390505.161    -6552289.197 9 -17116495.396 9
  22058466.951   -22700088.038 8 -12227318.519 9
  24569677.096    -7622643.571 5  -2362161.905 2
 94  1 21 22 24 30.0030000  0  8 28 22 19 27 14 18 29 31
  24681104.767    -6081737.251 5  -4764330.504 3
  25049613.793    14167172.637 5   7949146.999 3
  22373393.622   -20570433.253 8 -12637955.278 9
  24272170.826    -7682696.412 6  -6985371.768 4
  24784333.053   -13346380.446 6  -4044301.868 4
  21387890.551    -6566042.323 8 -17127212.128 9
  22067140.576   -22654497.567 8 -12191793.521 9
  24556430.857    -7692269.397 5  -2416415.732 2
 94  1 21 22 25  0.0030000  0  8 28 22 19 27 14 18 29 31
  24676191.048    -6107557.972 5  -4784450.547 3
  25070473.322    14276807.274 5   8034576.506 3
  22368337.352   -20597006.562 8 -12658661.757 9
  24260348.660    -7744780.345 6  -7033748.819 4
  24807069.343   -13226898.846 6  -3951199.431 4
  21385339.677    -6579420.493 8 -17137636.665 9
  22075889.839   -22608522.699 8 -12155968.965 9
  24543214.716    -7761698.431 6  -2470516.197 2
 94  1 21 22 25 30.0030000  0  8 28 22 19 27 14 18 29 31
  24671368.257    -6132917.903 5  -4804211.506 3
  25091356.415    14386548.014 5   8120088.726 3
  22363319.516   -20623380.413 8 -12679212.802 9
  24248563.549    -7806751.337 6  -7082037.861 4
  24829820.083   -13107346.416 6  -3858041.753 4
  21382866.240    -6592429.099 8 -17147773.261 9
  22084706.946   -22562174.391 8 -12119853.437 9
  24530036.139    -7830951.296 5  -2524479.427 2
 94  1 21 22 26  0.0030000  0  8 28 22 19 27 14 18 29 31
  24666625.930    -6157837.732 5  -4823629.526 3
  25112260.194    14496385.370 6   8205676.172 3
  22358335.406   -20649562.771 8 -12699614.628 9
  24236789.530    -7868608.499 6  -7130238.235 4
  24852579.907   -12987726.701 5  -3764831.640 4
  21380459.506    -6605075.384 8 -17157627.503 9
  22093602.447   -22515454.594 8 -12083448.428 9
  24516887.872    -7900041.367 6  -2578315.758 2
 94  1 21 22 26 30.0030000  0  8 28 22 19 27 14 18 29 31
  24661972.042    -6182331.555 5  -4842715.591 3
  25133184.448    14606340.207 6   8291355.176 3
  22353390.720   -20675548.834 8 -12719863.502 9
  24225038.085    -7930354.652 6  -7178352.095 4
  24875356.219   -12868039.838 5  -3671569.246 4
  21378129.819    -6617333.259 8 -17167179.087 9
  22102560.636   -22468358.927 8 -12046750.527 9
  24503775.399    -7968958.135 5  -2632017.071 2
 94  1 21 22 27  0.0030000  0  8 28 22 19 27 14 18 29 31
  24657371.037    -6206420.724 5  -4861486.351 3
  25154135.774    14716436.821 5   8377144.692 3
  22348485.366   -20701325.898 8 -12739949.512 9
  24213315.301    -7991990.400 6  -7226379.912 4
  24898147.761   -12748280.030 5  -3578250.014 4
  21375875.709    -6629189.846 8 -17176417.998 9
  22111597.460   -22420875.861 8 -12009750.751 9
  24490696.384    -8037690.762 5  -2685574.933 2
 94  1 21 22 27 30.0030000  0  8 28 22 19 27 14 18 29 31
  24652872.591    -6230098.929 5  -4879936.850 3
  25175122.805    14826712.168 5   8463073.428 3
  22343621.473   -20726882.380 9 -12759863.662 9
  24201609.664    -8053496.865 6  -7274307.026 4
  24920952.434   -12628449.867 5  -3484875.970 4
  21373696.698    -6640632.002 8 -17185333.967 9
  22120712.619   -22372984.562 8 -11972432.922 9
  24477657.990    -8106225.128 5  -2738978.294 2
 94  1 21 22 28  0.0030000  0  8 28 22 19 27 14 18 29 31
  24648446.875    -6253358.751 5  -4898061.391 3
  25196131.991    14937167.667 5   8549142.604 3
  22338801.619   -20752232.555 8 -12779617.034 9
  24189929.240    -8114874.821 6  -7322133.960 4
  24943756.926   -12508578.485 5  -3391469.826 4
  21371597.371    -6651658.102 9 -17193925.743 9
  22129901.588   -22324689.440 8 -11934800.380 9
  24464654.762    -8174561.065 6  -2792227.027 2
 94  1 21 22 28 30.0030000  0  8 28 22 19 27 14 18 29 31
  24644095.298    -6276185.196 5  -4915848.207 3
  25217190.432    15047805.059 5   8635353.521 3
  22334015.942   -20777368.668 8 -12799203.607 9
  24178267.644    -8176130.504 6  -7369865.624 4
  24966579.107   -12388674.073 5  -3298037.867 3
  21369578.479    -6662262.439 8 -17202188.851 9
  22139164.605   -22276003.234 8 -11896863.102 9
  24451691.017    -8242679.226 6  -2845306.109 2
 94  1 21 22 29  0.0030000  0  8 28 22 19 27 14 18 29 31
  24639845.800    -6298552.344 5  -4933277.128 3
  25238282.151    15158608.321 6   8721693.613 2
  22329270.588   -20802288.670 8 -12818621.780 9
  24166638.185    -8237268.853 6  -7417505.876 4
  24989399.579   -12268738.366 5  -3204581.576 3
  21367640.350    -6672451.586 8 -17210128.448 9
  22148505.059   -22226925.888 8 -11858621.047 9
  24438770.681    -8310561.324 6  -2898201.240 3
 94  1 21 22 29 30.0030000  0  8 28 22 19 27 14 18 29 31
  24635683.991    -6320437.082 6  -4950330.118 3
  25259385.981    15269556.094 5   8808146.337 2
  22324569.422   -20826999.519 8 -12837876.976 9
  24155028.152    -8298283.153 6  -7465049.456 4
  25012227.695   -12148778.525 5  -3111106.438 3
  21365779.629    -6682220.461 8 -17217740.561 9
  22157918.662   -22177459.027 8 -11820075.458 9
  24425902.869    -8378178.387 6  -2950889.802 3
 94  1 21 22 30  0.0030000  0  8 28 22 19 27 14 18 29 31
  24631606.184    -6341842.378 5  -4967009.578 3
  25280531.632    15380622.223 5   8894691.351 2
  22319910.318   -20851495.405 8 -12856964.680 9
  24143439.974    -8359182.742 6  -7512503.667 4
  25035064.595   -12028788.490 5  -3017607.839 3
  21363998.232    -6691574.207 8 -17225029.190 9
  22167402.357   -22127615.766 8 -11781236.581 9
  24413092.198    -8445516.178 6  -3003360.827 3
 94  1 21 22 30 30.0030000  0  8 28 22 19 27 14 18 29 31
  24627624.101    -6362777.377 5  -4983322.544 3
  25301666.401    15491791.548 5   8981316.691 2
  22315286.319   -20875782.668 8 -12875889.805 9
  24131862.469    -8419992.910 6  -7559888.173 4
  25057900.357   -11908757.031 5  -2924076.921 2
  21362296.130    -6700530.348 8 -17232007.987 9
  22176959.920   -22077394.387 8 -11742103.072 9
  24400329.943    -8512573.982 6  -3055613.647 3
 94  1 21 22 31  0.0030000  0  8 28 22 19 27 14 18 29 31
  24623729.257    -6383245.836 5  -4999271.924 3
  25322858.310    15603070.188 5   9068027.305 2
  22310701.413   -20899871.113 8 -12894660.015 9
  24120313.265    -8480711.201 6  -7607201.103 4
  25080750.897   -11788672.184 5  -2830504.412 2
  21360666.159    -6709087.510 8 -17238675.913 9
  22186590.453   -22026776.690 8 -11702660.750 9
  24387625.878    -8579356.370 6  -3107651.857 3
 94  1 21 22 31 30.0030000  0  8 28 22 19 27 14 18 29 31
  24619923.931    -6403256.271 5  -5014864.461 3
  25344050.969    15714467.348 5   9154830.186 2
  22306156.529   -20923763.393 8 -12913277.366 9
  24108773.923    -8541331.076 6  -7654437.338 4
  25103611.182   -11668530.908 5  -2736887.951 2
  21359113.593    -6717247.453 8 -17245034.308 9
  22196297.043   -21975776.574 8 -11662920.414 9
  24374962.465    -8645890.366 6  -3159496.547 3
 94  1 21 22 32  0.0030000  0  8 28 22 19 27 14 18 29 31
  24616207.974    -6422797.956 5  -5030091.699 3
  25365277.953    15826003.864 5   9241741.662 2
  22301652.807   -20947451.001 8 -12931735.235 9
  24097257.606    -8601849.674 6  -7701594.668 4
  25126495.239   -11548316.707 5  -2643214.648 2
  21357636.426    -6725010.520 8 -17251083.454 9
  22206073.635   -21924390.266 8 -11622879.162 9
  24362344.380    -8712200.769 6  -3211166.990 3
 94  1 21 22 32 30.0030000  0  8 28 22 19 27 14 18 29 31
  24612568.733    -6441878.737 6  -5044959.816 3
  25386526.763    15937673.846 5   9328757.218 2
  22297179.694   -20970942.769 8 -12950040.499 9
  24085763.443    -8662261.033 6  -7748668.418 4
  25149383.374   -11428036.890 5  -2549490.167 2
  21356239.213    -6732374.515 8 -17256821.637 9
  22215926.644   -21872616.515 8 -11582536.007 9
  24349766.348    -8778300.733 5  -3262673.435 3
 94  1 21 22 33  0.0030000  0  8 28 22 19 27 14 18 29 31
  24609032.801    -6460481.329 5  -5059455.301 3
  25407792.751    16049475.979 5   9415875.686 2
  22292749.750   -20994226.017 8 -12968183.275 9
  24074298.810    -8722526.684 6  -7795628.645 4
  25172278.974   -11307689.302 5  -2455712.984 2
  21354915.420    -6739301.135 8 -17262218.998 9
  22225848.006   -21820470.609 8 -11541902.854 9
  24337232.894    -8844177.194 5  -3314005.669 3
 94  1 21 22 33 30.0030000  0  8 28 22 19 27 14 18 29 31
  24605590.104    -6478601.117 6  -5073574.599 3
  25429098.372    16161393.011 5   9503083.678 2
  22288360.069   -21017298.773 8 -12986162.035 9
  24062850.545    -8782631.370 6  -7842463.438 4
  25195189.653   -11187286.637 6  -2361892.809 2
  21353682.014    -6745792.806 8 -17267277.457 9
  22235842.577   -21767962.530 8 -11500987.489 9
  24324739.163    -8909821.058 5  -3365156.649 3
 94  1 21 22 34  0.0030000  0  8 28 22 19 27 14 18 29 31
  24602224.005    -6496244.945 6  -5087322.984 3
  25450421.170    16273407.317 5   9590367.470 3
  22284004.894   -21040159.990 8 -13003975.963 9
  24051445.721    -8842576.638 6  -7889174.005 4
  25218114.453   -11066838.243 6  -2268037.012 2
  21352534.378    -6751840.963 8 -17271990.293 9
  22245904.721   -21715078.177 8 -11459778.939 9
  24312291.841    -8975198.792 5  -3416100.323 4
 94  1 21 22 34 30.0030000  0  8 28 22 19 27 14 18 29 31
  24598951.980    -6513427.882 5  -5100712.226 3
  25471735.335    16385489.153 5   9677703.914 3
  22279698.166   -21062821.604 8 -13021634.344 9
  24040072.104    -8902369.374 6  -7935765.724 4
  25241041.441   -10946373.526 6  -2174168.504 2
  21351463.789    -6757453.798 8 -17276363.937 9
  22256037.016   -21661835.400 8 -11418291.096 9
  24299906.335    -9040299.348 5  -3466827.966 3
 94  1 21 22 35  0.0030000  0  8 28 22 19 27 14 18 29 31
  24595779.966    -6530142.605 6  -5113736.661 4
  25493089.821    16497642.741 5   9765096.243 3
  22275419.408   -21085294.652 8 -13039145.802 9
  24028719.983    -8962019.571 6  -7982246.361 4
  25263958.475   -10825904.319 5  -2080296.508 3
  21350473.515    -6762651.879 8 -17280414.387 9
  22266237.515   -21608232.199 8 -11376522.402 9
  24287574.972    -9105123.318 5  -3517340.135 3
 94  1 21 22 35 30.0030000  0  8 28 22 19 27 14 18 29 31
  24592685.508    -6546389.505 6  -5126396.502 4
  25514445.387    16609892.489 5   9852563.520 3
  22271176.505   -21107580.948 8 -13056511.733 9
  24017387.139    -9021550.205 6  -8028633.835 4
  25286887.262   -10705436.072 5  -1986425.274 3
  21349562.955    -6767453.613 8 -17284156.002 9
  22276513.980   -21554232.971 8 -11334445.102 9
  24275291.485    -9169666.792 5  -3567633.719 3
 94  1 21 22 36  0.0030000  0  8 28 22 19 27 14 18 29 31
  24589685.275    -6562161.372 6  -5138686.209 4
  25535824.696    16722250.750 5   9940115.342 3
  22266975.244   -21129677.377 8 -13073729.723 9
  24006083.104    -9080987.150 6  -8074948.298 4
  25309809.753   -10584976.005 5  -1892560.407 3
  21348725.125    -6771851.277 9 -17287582.758 9
  22286868.062   -21499829.456 8 -11292052.780 9
  24263058.184    -9233938.327 5  -3617715.368 3
 94  1 21 22 36 30.0030000  0  8 28 22 19 27 14 18 29 31
  24586774.140    -6577455.508 5  -5150603.623 4
  25557235.904    16834729.367 5  10027760.962 3
  22262806.390   -21151592.257 8 -13090806.251 9
  23994787.105    -9140338.322 6  -8121195.929 4
  25332733.084   -10464526.287 5  -1798703.601 3
  21347965.271    -6775846.486 8 -17290695.909 9
  22297296.163   -21445023.402 8 -11249346.799 9
  24250876.777    -9297965.103 6  -3667606.321 3
 94  1 21 22 37  0.0030000  0  8 28 22 19 27 14 18 29 31
  24583947.397    -6592284.938 6  -5162159.026 4
  25578658.563    16947342.301 5  10115511.242 3
  22258667.275   -21173329.654 8 -13107744.473 9
  23983504.265    -9199622.794 6  -8167391.594 4
  25355649.339   -10344091.541 5  -1704858.489 4
  21347282.584    -6779430.456 8 -17293488.608 9
  22307799.572   -21389812.591 8 -11206325.422 8
  24238729.757    -9361747.928 6  -3717307.163 3
 94  1 21 22 37 30.0030000  0  8 28 22 19 27 14 18 29 31
  24581217.337    -6606650.145 5  -5173352.631 4
  25600112.821    17060084.358 5  10203362.142 3
  22254571.301   -21194872.297 9 -13124530.924 9
  23972240.104    -9258838.123 6  -8213533.369 5
  25378562.507   -10223674.634 4  -1611027.252 3
  21346684.948    -6782581.188 8 -17295943.720 9
  22318382.635   -21334207.964 8 -11162997.155 8
  24226648.870    -9425279.170 6  -3766811.972 3
 94  1 21 22 38  0.0030000  0  8 28 22 19 27 14 18 29 31
  24578581.352    -6620542.723 6  -5184177.958 4
  25621596.698    17172934.942 5  10291297.594 3
  22250506.385   -21216203.165 8 -13141152.378 9
  23960991.651    -9317947.077 6  -8259592.281 5
  25401477.503   -10103265.333 4  -1517201.961 3
  21346169.574    -6785290.517 8 -17298054.889 9
  22329036.510   -21278213.444 8 -11119365.103 8
  24214610.974    -9488543.766 6  -3816109.007 3
 94  1 21 22 38 30.0030000  0  8 28 22 19 27 14 18 29 31
  24576021.514    -6633963.837 6  -5194635.983 4
  25643087.350    17285879.750 5  10379306.462 3
  22246488.387   -21237326.051 8 -13157611.753 9
  23949770.599    -9376925.993 6  -8305549.842 5
  25424391.870    -9982856.859 4  -1423377.321 3
  21345735.685    -6787564.252 8 -17299826.632 9
  22339766.741   -21221829.720 8 -11075429.756 8
  24202626.260    -9551516.269 6  -3865178.438 3
 94  1 21 22 39  0.0030000  0  8 28 22 19 27 14 18 29 31
  24573558.959    -6646895.973 5  -5204712.919 4
  25664587.746    17398900.780 5  10467374.741 2
  22242509.571   -21258225.001 8 -13173896.656 9
  23938576.348    -9435755.730 6  -8351391.171 5
  25447302.879    -9862441.371 4  -1329547.212 3
  21345383.009    -6789402.093 8 -17301258.712 9
  22350573.000   -21165052.212 8 -11031187.577 8
  24190704.024    -9614173.543 6  -3914002.237 3
 94  1 21 22 39 30.0030000  0  8 28 22 19 27 14 18 29 31
  24571193.447    -6659320.018 6  -5214393.969 4
  25686109.217    17511972.400 5  10555482.479 2
  22238578.932   -21278892.681 9 -13190001.319 9
  23927408.300    -9494408.793 6  -8397094.812 5
  25470222.432    -9742014.929 4  -1235708.589 3
  21345118.172    -6790813.837 8 -17302358.774 9
  22361454.447   -21107877.209 8 -10986635.651 8
  24178834.641    -9676521.293 6  -3962584.809 3
 94  1 21 22 40  0.0030000  0  8 28 22 19 27 14 18 29 31
  24568931.183    -6671237.569 6  -5223680.326 4
  25707640.671    17625096.679 5  10643631.223 2
  22234689.095   -21299333.384 9 -13205929.138 9
  23916284.201    -9552891.749 6  -8442665.917 5
  25493135.180    -9621576.447 4  -1141860.545 3
  21344927.924    -6791796.467 8 -17303124.453 9
  22372413.091   -21050290.776 8 -10941763.123 8
  24167033.821    -9738553.452 6  -4010921.515 3
 94  1 21 22 40 30.0030000  0  8 28 22 19 27 14 18 29 31
  24566754.630    -6682651.275 5  -5232574.106 4
  25729170.986    17738277.093 5  10731823.665 2
  22230844.587   -21319554.168 9 -13221685.585 9
  23905175.631    -9611241.886 6  -8488133.529 5
  25516065.076    -9501133.709 4  -1048009.228 2
  21344824.825    -6792343.513 8 -17303550.729 9
  22383442.905   -20992309.021 8 -10896582.578 8
  24155284.385    -9800288.118 6  -4059026.393 3
 94  1 21 22 41  0.0030000  0  8 28 22 19 27 14 18 29 31
  24564682.224    -6693560.320 6  -5241074.623 4
  25750715.181    17851523.345 5  10820067.447 2
  22227036.833   -21339550.310 8 -13237266.980 9
  23894096.321    -9669464.909 6  -8533502.105 5
  25538975.785    -9380690.796 5   -954157.774 2
  21344805.459    -6792444.866 8 -17303629.714 9
  22394553.873   -20933932.519 8 -10851094.413 8
  24143590.440    -9861727.382 6  -4106901.094 3
 94  1 21 22 41 30.0030000  0  8 28 22 19 27 14 18 29 31
  24562700.356    -6703966.411 5  -5249183.259 4
  25772293.283    17964857.552 5  10908379.773 2
  22223268.232   -21359344.219 8 -13252690.795 9
  23883037.337    -9727574.960 6  -8578782.619 5
  25561899.475    -9260260.234 5   -860315.869 2
  21344872.372    -6792092.671 8 -17303355.266 9
  22405735.292   -20875165.876 8 -10805302.228 8
  24131960.082    -9922861.839 6  -4154538.276 3
 94  1 21 22 42  0.0030000  0  8 28 22 19 27 14 18 29 31
  24560815.231    -6713876.373 6  -5256905.282 4
  25793872.044    18078293.766 5  10996771.596 2
  22219538.214   -21378957.874 8 -13267974.146 9
  23871995.232    -9785595.819 6  -8623993.656 5
  25584808.985    -9139843.669 5   -766484.879 2
  21345025.117    -6791283.454 8 -17302724.711 9
  22416992.199   -20816021.087 8 -10759215.411 8
  24120385.395    -9983678.466 6  -4201927.831 3
 94  1 21 22 42 30.0040000  0  8 28 22 19 27 14 18 29 31
  24559021.993    -6723279.731 6  -5264232.553 4
  25815485.012    18191833.017 5  11085243.684 2
  22215834.218   -21398399.139 8 -13283123.188 9
  23860979.987    -9843514.365 6  -8669124.956 5
  25607724.701    -9019435.672 5   -672660.527 2
  21345267.889    -6790022.366 8 -17301742.041 9
  22428312.482   -20756509.304 8 -10712842.609 8
  24108874.743   -10044168.904 6  -4249063.196 3
 94  1 21 22 43  0.0040000  0  8 28 22 19 27 14 18 29 31
  24557333.112    -6732186.708 6  -5271173.027 4
  25837094.652    18305459.172 5  11173783.499 2
  22212167.367   -21417689.194 8 -13298154.366 9
  23849979.253    -9901324.804 6  -8714172.019 5
  25630630.584    -8899062.150 5   -578863.173 2
  21345593.643    -6788312.332 8 -17300409.530 9
  22439706.874   -20696646.455 8 -10666196.263 8
  24097437.721   -10104313.992 6  -4295929.440 3
 94  1 21 22 43 30.0040000  0  8 28 22 19 27 14 18 29 31
  24555735.038    -6740590.923 6  -5277721.791 4
  25858745.663    18419168.877 5  11262388.456 2
  22208528.006   -21436813.832 8 -13313056.686 9
  23838999.174    -9959027.364 6  -8759135.020 5
  25653529.691    -8778721.334 6   -485091.173 2
  21346000.042    -6786157.646 8 -17298730.558 9
  22451164.912   -20636434.466 7 -10619277.840 8
  24086052.293   -10164119.421 6  -4342530.986 3
 94  1 21 22 44  0.0040000  0  8 28 22 19 27 14 18 29 31
  24554222.346    -6748505.135 5  -5283888.655 3
  25880395.625    18532932.146 5  11351035.093 2
  22204923.511   -21455753.067 8 -13327814.521 9
  23828036.963   -10016623.588 6  -8804015.149 5
  25676423.882    -8658418.200 6   -391348.644 2
  21346495.299    -6783574.507 8 -17296717.726 9
  22462691.542   -20575877.352 8 -10572090.521 8
  24074731.051   -10223607.037 6  -4388884.975 3
 94  1 21 22 44 30.0040000  0  8 28 22 19 27 14 18 29 31
  24552811.732    -6755917.113 6  -5289664.215 4
  25902045.557    18646744.751 5  11439720.195 2
  22201362.277   -21474475.054 8 -13342403.069 9
  23817098.286   -10074093.433 6  -8848796.815 5
  25699310.368    -8538158.647 5   -297640.014 2
  21347069.851    -6780553.001 8 -17294363.302 9
  22474283.707   -20514954.421 8 -10524618.115 8
  24063470.246   -10282775.509 6  -4434990.248 3
 94  1 21 22 45  0.0040000  0  8 28 22 19 27 14 18 29 31
  24551503.768    -6762827.095 6  -5295048.566 4
  25923710.449    18760593.821 5  11528433.698 2
  22197840.315   -21492965.181 9 -13356810.958 9
  23806187.399   -10131447.360 6  -8893488.116 5
  25722187.020    -8417944.926 5   -203967.070 2
  21347725.857    -6777094.094 8 -17291668.036 9
  22485948.662   -20453652.131 7 -10476850.119 8
  24052270.480   -10341639.230 6  -4480858.057 3
 94  1 21 22 45 30.0040000  0  8 28 22 19 27 14 18 29 31
  24550281.874    -6769231.387 6  -5300038.895 4
  25945380.827    18874472.081 5  11617170.001 2
  22194370.097   -21511209.076 8 -13371026.964 9
  23795292.941   -10188682.868 6  -8938087.187 5
  25745051.442    -8297771.160 5   -110325.298 2
  21348466.494    -6773204.094 8 -17288636.867 9
  22497690.123   -20391945.905 7 -10428767.380 8
  24041128.753   -10400200.909 6  -4526490.510 3
 94  1 21 22 46  0.0040000  0  8 28 22 19 27 14 18 29 31
  24549161.339    -6775120.121 6  -5304627.513 3
  25967059.479    18988389.777 5  11705936.998 2
  22190941.041   -21529219.714 8 -13385061.222 9
  23784421.777   -10245795.264 6  -8982590.324 5
  25767916.762    -8177624.452 5    -16704.541 2
  21349293.262    -6768866.094 8 -17285256.604 9
  22509516.606   -20329813.919 8 -10380352.848 7
  24030041.978   -10458436.697 5  -4571869.005 3
 94  1 21 22 46 30.0040000  0  8 28 22 19 27 14 18 29 31
  24548142.405    -6780493.791 6  -5308814.773 4
  25988739.960    19102352.163 5  11794738.816 2
  22187554.136   -21547021.876 8 -13398933.025 9
  23773583.561   -10302791.458 6  -9027002.890 5
  25790776.027    -8057509.675 5     76891.323 2
  21350201.063    -6764074.477 8 -17281522.876 9
  22521417.287   -20267264.015 8 -10331612.701 7
  24019021.697   -10516340.195 6  -4616988.589 4
 94  1 21 22 47  0.0040000  0  7 28 19 27 14 18 29 31
  24547214.457    -6785359.256 6  -5312605.979 4
  22184203.535   -21564629.987 8 -13412653.618 9
  23762752.928   -10359668.092 6  -9071322.316 5
  25813625.459    -7937416.978 5    170469.904 2
  21351204.079    -6758827.583 9 -17277434.380 9
  22533398.073   -20204299.959 8 -10282549.829 8
  24008073.247   -10573898.659 6  -4661839.285 4
 94  1 21 22 47 30.0040000  0  7 28 19 27 14 18 29 31
  24546384.991    -6789712.127 5  -5315997.810 4
  22180884.923   -21582062.821 8 -13426237.626 9
  23751953.835   -10416404.534 6  -9115532.495 5
  25836471.563    -7817351.520 4    264027.295 2
  21352292.505    -6753114.677 9 -17272982.758 9
  22545459.263   -20140931.688 8 -10233171.970 7
  23997188.442   -10631093.219 6  -4706406.450 4
 94  1 21 22 48  0.0040000  0  6 28 19 27 18 29 31
  24545653.618    -6793553.183 6  -5318990.827 4
  22177604.294   -21599332.617 8 -13439694.592 9
  23741191.675   -10473000.231 6  -9159633.009 5
  21353463.045    -6746947.488 8 -17268177.165 9
  22557587.817   -20077181.181 7 -10183496.262 7
  23986375.168   -10687933.921 6  -4750697.849 4
 94  1 21 22 48 30.0040000  0  6 28 19 27 18 29 31
  24545019.077    -6796885.426 6  -5321587.337 4
  22174347.199   -21616426.114 8 -13453014.199 9
  23730448.253   -10529445.664 6  -9203616.433 5
  21354720.045    -6740327.005 8 -17263018.339 9
  22569791.648   -20013061.050 8 -10133532.542 7
  23975620.593   -10744425.547 6  -4794717.294 4
 94  1 21 22 49  0.0040000  0  6 28 19 27 18 29 31
  24544483.678    -6799699.419 5  -5323780.066 3
  22171130.456   -21633333.239 8 -13466188.569 9
  23719729.173   -10585739.175 6  -9247481.486 5
  21356069.471    -6733252.189 8 -17257505.492 9
  22582061.374   -19948567.626 7 -10083277.951 7
  23964941.027   -10800556.882 6  -4838455.930 4
 94  1 21 22 49 30.0040000  0  7 28 19 27 18 29  2 31
  24544050.328    -6801980.543 6  -5325557.515 3
  22167952.626   -21650049.365 9 -13479214.107 9
  23709047.028   -10641893.714 6  -9291238.230 5
  21357500.350    -6725721.068 8 -17251637.093 9
  22594406.498   -19883703.787 7 -10032734.729 7
  26148353.002    -2517878.26915  -1423061.357 2
  23954325.076   -10856332.612 6  -4881917.502 4
 94  1 21 22 50  0.0040000  0  7 28 19 27 18 29  2 31
  24543710.843    -6803724.670 5  -5326916.576 3
  22164807.953   -21666558.170 8 -13492078.127 9
  23698387.578   -10697928.110 6  -9334901.402 5
  21359023.746    -6717724.850 8 -17245406.295 9
  22606819.525   -19818461.128 7  -9981896.347 7
  26131204.034    -2608023.711 5  -1493304.645 2
  23943783.683   -10911759.161 6  -4925106.995 3
 94  1 21 22 50 30.0040000  0  7 28 19 27 18 29  2 31
  24543487.617    -6804927.719 5  -5327853.972 3
  22161704.052   -21682857.100 8 -13504778.552 9
  23687744.376   -10753855.706 6  -9378481.283 5
  21360636.959    -6709247.950 8 -17238800.886 9
  22619310.827   -19752840.483 8  -9930763.345 7
  26114066.968    -2698041.156 5  -1563448.043 2
  23933299.342   -10966824.891 6  -4968015.267 3
 94  1 21 22 51  0.0040000  0  7 28 19 27 18 29  2 31
  24543362.154    -6805573.917 5  -5328357.493 3
  22158651.685   -21698932.760 8 -13517305.036 9
  23677125.397   -10809672.911 7  -9421975.187 5
  21362342.238    -6700276.520 8 -17231810.174 9
  22631869.073   -19686825.634 7  -9879323.240 7
  26096962.429    -2787925.708 5  -1633487.932 2
  23922891.567   -11021512.443 5  -5010628.912 3
 94  1 21 22 51 30.0040000  0  7 28 19 27 18 29  2 31
  24543342.308    -6805677.707 5  -5328438.364 4
  22155632.115   -21714777.356 8 -13529651.446 9
  23666525.515   -10865372.911 7  -9465377.752 5
  21364144.740    -6690811.423 8 -17224434.762 9
  22644508.623   -19620410.845 7  -9827571.466 7
  26079884.152    -2877672.326 5  -1703420.474 1
  23912562.637   -11075819.070 6  -5052945.652 3
 94  1 21 22 52  0.0040000  0  7 28 19 27 18 29  2 31
  24543419.115    -6805253.913 5  -5328108.100 4
  22152662.071   -21730394.100 8 -13541820.337 9
  23655950.067   -10920950.560 7  -9508684.991 5
  21366037.270    -6680857.599 8 -17216678.530 9
  22657222.521   -19553598.758 8  -9775510.138 7
  26062828.239    -2967287.712 5  -1773250.493 1
  23902300.472   -11129727.909 6  -5094952.472 3
 94  1 21 22 52 30.0040000  0  7 28 19 27 18 29  2 31
  24543602.977    -6804320.971 5  -5327381.111 4
  22149730.970   -21745786.709 8 -13553814.562 9
  23645398.211   -10976401.171 7  -9551893.247 5
  21368021.836    -6670434.116 8 -17208556.341 9
  22670012.687   -19486390.360 8  -9723139.945 7
  26045806.234    -3056780.355 4  -1842985.119 1
  23892117.211   -11183231.365 6  -5136643.407 4
 94  1 21 22 53  0.0040000  0  7 28 19 27 18 29  2 31
  24543875.608    -6802891.846 6  -5326267.514 4
  22146842.020   -21760966.698 8 -13565643.125 9
  23634869.440   -11031720.455 7  -9594999.133 5
  21370095.681    -6659554.583 8 -17200078.773 9
  22682877.501   -19418785.027 7  -9670460.492 7
  26028802.485    -3146163.146 4  -1912633.907 1
  23882014.056   -11236341.739 6  -5178028.059 4
 94  1 21 22 53 30.0040000  0  7 28 19 27 18 29  2 31
  24544243.124    -6800961.234 6  -5324763.093 4
  22143989.345   -21775956.540 8 -13577323.505 9
  23624364.743   -11086907.979 7  -9638002.388 5
  21372249.869    -6648222.306 8 -17191248.437 9
  22695816.573   -19350786.246 7  -9617474.431 7
  26011811.568    -3235428.128 4  -1982190.978 1
  23871976.974   -11289066.268 6  -5219112.022 4
 94  1 21 22 54  0.0040000  0  7 28 19 27 18 29  2 31
  24544707.113    -6798505.046 5  -5322849.162 4
  22141174.744   -21790760.580 9 -13588859.098 9
  23613892.063   -11141963.511 7  -9680902.761 5
  21374492.137    -6636428.001 8 -17182058.062 9
  22708831.493   -19282400.282 7  -9564186.693 7
  25994843.105    -3324573.166 3  -2051654.607 1
  23862017.239   -11341416.243 6  -5259904.104 4
 94  1 21 22 54 30.0040000  0  7 28 19 27 18 29  2 31
  24545280.466    -6795507.086 5  -5320513.060 4
  22138393.569   -21805368.258 9 -13600241.691 9
  23603444.146   -11196879.620 7  -9723694.514 5
  21376832.017    -6624162.980 8 -17172500.905 9
  22721918.753   -19213616.854 7  -9510589.224 7
  25977905.670    -3413589.842 3  -2121018.196 1
  23852124.028   -11393400.245 6  -5300411.065 4
 94  1 21 22 55  0.0040000  0  7 28 19 27 18 29  2 31
  24545954.789    -6791957.522 5  -5317747.138 4
  22135649.569   -21819794.405 8 -13611482.833 9
  23593020.332   -11251660.259 7  -9766380.684 5
  21379249.573    -6611435.899 8 -17162583.699 9
  22735078.053   -19144473.267 7  -9456711.123 7
  25960981.247    -3502479.135 3  -2190282.535 2
  23842298.150   -11445029.335 6  -5340641.459 4
 94  1 21 22 55 30.0040000  0  7 28 19 27 18 29  2 31
  24546733.710    -6787853.886 5  -5314549.491 4
  22132942.653   -21834021.677 8 -13622569.007 9
  23582621.011   -11306294.332 7  -9808952.640 5
  21381760.006    -6598237.593 8 -17152299.291 9
  22748302.498   -19074968.007 7  -9402551.185 7
  25944103.981    -3591219.799 3  -2259430.990 2
  23832544.343   -11496276.947 6  -5380574.581 4
 94  1 21 22 56  0.0040000  0  6 28 19 27 18 29 31
  24547618.727    -6783203.803 5  -5310926.031 4
  22130275.279   -21848029.713 8 -13633484.341 9
  23572251.400   -11360782.996 7  -9851411.305 6
  21384364.303    -6584559.462 8 -17141641.011 9
  22761597.124   -19005107.123 7  -9348114.142 7
  23822873.128   -11547121.404 6  -5420193.592 4
 94  1 21 22 56 30.0040000  0  6 28 19 27 18 29 31
  24548610.860    -6778023.161 6  -5306889.125 4
  22127651.885   -21861830.832 9 -13644238.440 9
  23561909.310   -11415137.155 7  -9893765.142 6
  21387053.741    -6570418.298 8 -17130621.900 9
  22774956.296   -18934902.117 7  -9293408.960 7
  23813275.063   -11597553.977 6  -5459491.610 4
 94  1 21 22 57  0.0040000  0  6 28 19 27 18 29 31
  24549695.390    -6772322.089 6  -5302446.705 4
  22125057.871   -21875440.753 8 -13654843.562 9
  23551583.318   -11469365.577 7  -9936021.028 6
  21389836.564    -6555817.784 8 -17119244.885 9
  22788386.009   -18864342.727 8  -9238427.656 7
  23803758.331   -11647567.415 6  -5498463.079 4
 94  1 21 22 57 30.0040000  0  6 28 19 27 18 29 31
  24550874.503    -6766096.387 6  -5297595.471 4
  22122504.029   -21888858.077 8 -13665298.597 9
  23541291.143   -11523487.491 7  -9978193.904 6
  21392702.730    -6540739.873 8 -17107495.852 9
  22801885.603   -18793391.420 7  -9183140.940 7
  23794320.325   -11697161.596 6  -5537107.786 4
 94  1 21 22 58  0.0040000  0  7 28 19 27 18 29  2 31
  24552165.589    -6759321.766 6  -5292316.524 4
  22119987.241   -21902086.157 9 -13675606.180 9
  23531011.919   -11577513.094 7 -10020291.738 6
  21395664.380    -6525191.945 9 -17095380.577 9
  22815458.976   -18722044.128 7  -9127545.647 7
  25860070.446     2905309.17514    -48011.752
  23784962.903   -11746350.282 6  -5575436.533 4
 94  1 21 22 58 30.0040000  0  7 28 19 27 18 29  2 31
  24553558.365    -6751998.045 6  -5286609.739 4
  22117501.692   -21915138.839 9 -13685777.082 9
  23520747.415   -11631438.128 7 -10062311.207 6
  21398706.134    -6509184.738 8 -17082907.425 9
  22829121.238   -18650284.791 7  -9071629.317 7
  25843350.930     2817399.680 5   -116512.696 1
  23775673.744   -11795143.370 6  -5613457.031 4
 94  1 21 22 59  0.0040000  0  7 28 19 27 18 29  2 31
  24555058.137    -6744132.546 6  -5280480.756 4
  22115053.857   -21928012.319 9 -13695808.355 9
  23510502.548   -11685264.433 7 -10104253.750 6
  21401840.194    -6492713.518 8 -17070072.709 9
  22842853.651   -18578110.085 7  -9015389.315 7
  25826632.944     2729608.318 5   -184921.492 2
  23766468.256   -11843542.299 6  -5651170.461 4
 94  1 21 22 59 30.0040000  0  7 28 19 27 18 29  2 31
  24556656.421    -6735721.699 6  -5273926.840 4
  22112639.988   -21940700.997 8 -13705695.616 9
  23500286.610   -11738984.573 7 -10146113.546 6
  21405065.122    -6475785.739 8 -17056882.224 9
  22856659.574   -18505557.441 7  -8958854.791 7
  25809957.168     2641930.623 5   -253241.742 2
  23757334.510   -11891538.162 6  -5688569.753 4
 94  1 21 23  0  0.0040000  0  7 28 19 27 18 29  2 31
  24558353.246    -6726784.202 6  -5266962.574 4
  22110263.233   -21953205.946 9 -13715439.718 9
  23490083.234   -11792568.336 7 -10187867.114 6
  21408365.807    -6458407.873 8 -17043341.027 9
  22870530.761   -18432656.019 7  -8902048.499 7
  25793303.158     2554377.178 5   -321465.117 2
  23748279.188   -11939121.161 6  -5725647.365 4
 94  1 21 23  0 30.0040000  0  7 28 19 27 18 29  2 31
  24560151.941    -6717343.090 6  -5259605.832 4
  22107916.548   -21965527.201 9 -13725040.673 9
  23479914.184   -11846013.013 7 -10229512.289 6
  21411767.372    -6440556.576 8 -17029430.937 9
  22884473.359   -18359403.444 7  -8844968.606 7
  25776654.453     2466942.753 5   -389595.827 2
  23739306.640   -11986277.185 6  -5762392.228 4
 94  1 21 23  1  0.0040000  0  7 28 19 27 18 29  2 31
  24562047.318    -6707382.523 6  -5251844.357 4
  22105607.277   -21977641.388 8 -13734480.298 9
  23469772.714   -11899312.385 7 -10271044.253 6
  21415259.954    -6422212.349 9 -17015136.732 9
  22898477.174   -18285808.310 7  -8787621.774 7
  25760045.022     2379647.880 5   -457617.762 2
  23730418.303   -12032989.529 6  -5798791.402 4
 94  1 21 23  1 30.0040000  0  7 28 19 27 18 29  2 31
  24564042.587    -6696882.334 6  -5243662.373 4
  22103342.764   -21989547.653 9 -13743757.882 9
  23459659.606   -11952455.375 7 -10312454.318 6
  21418845.292    -6403360.050 8 -17000446.620 9
  22912547.244   -18211865.604 7  -8730004.086 7
  25743474.114     2292519.373 5   -525510.015 2
  23721612.200   -12079251.858 6  -5834839.930 4
 94  1 21 23  2  0.0040000  0  7 28 19 27 18 29  2 31
  24566148.000    -6685831.713 6  -5235051.481 4
  22101120.822   -22001241.144 9 -13752869.677 9
  23449575.966   -12005448.211 7 -10353747.405 6
  21422535.647    -6383975.035 8 -16985341.413 9
  22926692.231   -18137529.320 7  -8672079.750 7
  25726915.527     2205573.042 5   -593260.399 2
  23712892.436   -12125068.695 6  -5870541.299 4
 94  1 21 23  2 30.0040000  0  7 28 19 27 18 29  2 31
  24568364.035    -6674208.274 6  -5225994.274 4
  22098938.543   -22012720.682 9 -13761814.752 9
  23439514.332   -12058302.363 7 -10394932.424 6
  21426323.555    -6364055.087 8 -16969819.379 9
  22940919.002   -18062776.905 7  -8613831.125 7
  25710406.646     2118813.220 4   -660865.405 2
  23704263.960   -12170428.330 6  -5905886.425 4
 94  1 21 23  3  0.0040000  0  7 28 19 27 18 29  2 31
  24570681.281    -6661994.873 5  -5216477.315 4
  22096790.710   -22023994.641 9 -13770599.635 9
  23429484.685   -12111012.297 7 -10436005.047 6
  21430213.872    -6343621.645 8 -16953897.212 9
  22955221.321   -17987622.736 7  -8555269.442 7
  25693924.506     2032239.490 4   -728325.411 2
  23695715.018   -12215338.716 6  -5940881.494 4
 94  1 21 23  3 30.0040000  0  7 28 19 27 18 29  2 31
  24573124.680    -6649201.213 6  -5206508.216 4
  22094680.381   -22035081.567 9 -13779238.791 9
  23419484.658   -12163575.868 7 -10476963.652 6
  21434197.634    -6322688.537 8 -16937585.706 9
  22969595.200   -17912069.938 7  -8496397.147 6
  25677493.751     1945831.608 4   -795656.179 2
  23687259.911   -12259802.855 6  -5975528.861 4
 94  1 21 23  4  0.0040000  0  7 28 19 27 18 29  2 31
  24575661.134    -6635846.088 6  -5196101.609 4
  22092610.044   -22045974.823 9 -13787727.011 9
  23409505.676   -12215995.151 7 -10517809.789 6
  21438270.164    -6301278.713 8 -16920902.721 9
  22984044.087   -17836124.349 7  -8437218.782 6
  25661077.356     1859574.244 4   -862869.710 2
  23678879.513   -12303805.936 6  -6009816.897 4
 94  1 21 23  4 30.0040000  0  7 28 19 27 18 29  2 31
  24578305.603    -6621933.478 5  -5185260.578 4
  22090572.145   -22056676.334 9 -13796065.844 9
  23399557.274   -12268258.843 7 -10558534.714 6
  21442435.031    -6279410.143 8 -16903862.275 9
  22998567.203   -17759822.188 7  -8377762.548 6
  25644682.905     1773453.845 4   -929976.451 2
  23670593.789   -12347347.908 6  -6043745.665 4
 94  1 21 23  5  0.0040000  0  7 28 19 27 18 29  2 31
  24581059.706    -6607468.484 6  -5173989.107 4
  22088571.090   -22067176.883 9 -13804248.074 9
  23389645.685   -12320365.117 7 -10599136.968 6
  21446681.291    -6257081.259 8 -16886463.147 9
  23013152.076   -17683175.670 7  -8318038.025 6
  25628335.642     1687468.424 4   -996977.990 2
  23662392.726   -12390438.128 6  -6077322.422 4
 94  1 21 23  5 30.0040000  0  7 28 19 27 18 29  2 31
  24583913.341    -6592463.698 6  -5162296.317 4
  22086612.726   -22077465.172 9 -13812264.914 9
  23379757.780   -12372324.868 7 -10639625.023 6
  21451022.496    -6234280.428 8 -16868696.263 9
  23027809.169   -17606167.502 7  -8258031.691 6
  25612001.780     1601629.090 4  -1063865.679 2
  23654278.873   -12433079.378 6  -6110549.329 4
 94  1 21 23  6  0.0040000  0  7 28 19 27 18 29  2 31
  24586877.539    -6576899.853 6  -5150168.594 4
  22084703.618   -22087520.928 9 -13820100.548 9
  23369900.395   -12424141.134 7 -10680001.288 6
  21455450.910    -6210991.481 8 -16850549.033 9
  23042531.887   -17528779.793 7  -8197729.599 6
  25595694.060     1515963.294 4  -1130618.240 2
  23646249.712   -12475265.731 6  -6143421.720 5
 94  1 21 23  6 30.0040000  0  7 28 19 27 18 29  2 31
  24589946.035    -6560768.379 6  -5137598.601 4
  22082833.842   -22097339.005 9 -13827750.979 9
  23360068.011   -12475821.038 7 -10720271.275 6
  21459982.333    -6187192.587 8 -16832004.434 9
  23057332.131   -17451010.238 7  -8137129.946 6
  25579428.610     1430488.729 4  -1197221.662 2
  23638311.717   -12517005.482 6  -6175946.132 4
 94  1 21 23  7  0.0040000  0  7 28 19 27 18 29  2 31
  24593117.869    -6544091.288 6  -5124603.397 4
  22081011.524   -22106919.666 9 -13835216.417 9
  23350251.877   -12527385.284 7 -10760451.167 6
  21464605.103    -6162889.060 8 -16813066.615 9
  23072207.683   -17372854.209 7  -8076229.173 6
  25563207.919     1345206.644 4  -1263675.161 2
  23630452.988   -12558291.511 6  -6208116.986 4
 94  1 21 23  7 30.0040000  0  7 28 19 27 18 29  2 31
  24596397.838    -6526875.764 6  -5111188.682 4
  22079236.872   -22116251.374 9 -13842487.848 9
  23340460.356   -12578837.720 7 -10800543.924 6
  21469326.954    -6138067.391 8 -16793725.054 9
  23087155.605   -17294297.183 7  -8015015.910 6
  25547007.585     1260121.183 4  -1329975.424 2
  23622689.382   -12599107.727 6  -6239921.778 4
 94  1 21 23  8  0.0040000  0  7 28 19 27 18 29  2 31
  24599774.880    -6509129.923 6  -5097360.695 4
  22077503.412   -22125346.457 9 -13849574.901 9
  23330694.526   -12630182.130 7 -10840552.492 6
  21474148.486    -6112739.061 8 -16773988.687 9
  23102175.687   -17215361.652 7  -7953507.737 6
  25530852.788     1175206.917 5  -1396142.334 2
  23615010.618   -12639443.380 6  -6271352.080 4
 94  1 21 23  8 30.0040000  0  7 28 19 27 18 29  2 31
  24603245.997    -6490860.252 6  -5083124.615 4
  22075814.472   -22134212.683 9 -13856483.620 9
  23320939.160   -12681399.989 7 -10880462.465 6
  21479064.423    -6086899.538 8 -16753853.990 9
  23117268.258   -17136047.424 7  -7891704.480 6
  25514719.277     1090455.670 5  -1462182.155 2
  23607430.006   -12679291.895 6  -6302402.811 4
